[[{"header":{"parameterUnit":"m.s-1","parameterCategory":1,"la1":30.6,"la2":29.2853,"lo1":-89.7004,"lo2":-87.6739,"dy":0.0162,"dx":0.0183,"nx":112,"ny":82,"refTime":"2024-07-06T06:00:00:Z","depth":0,"parameterNumber":2,"parameterNumberName":"U-component_of_WINDS"},"data":[0.0,0.0,0.0,0.0,0.0,0.0,0.0,0.0,0.0,0.0,0.0,0.0,0.0,0.0,0.0,0.0,0.0,0.0,0.0,0.0,0.0,0.0,0.0,0.0,0.0,0.0,0.0,0.0,0.0,0.0,0.0,0.0,0.0,0.0,0.0,0.0,0.0,0.0,0.0,0.0,0.0,0.0,0.0,0.0,0.0,0.0,0.0,0.0,0.0,0.0,0.0,0.0,0.0,0.0,0.0,0.0,0.0,0.0,0.0,0.0,0.0,0.0,0.0,0.0,0.0,0.0,0.0,0.0,0.0,0.0,0.0,0.0,0.0,0.0,0.0,0.0,0.0,0.0,0.0,0.0,0.0,0.0,0.0,0.0,0.0,0.0,0.0,0.0,0.0,0.0,0.0,-2.0573,-2.3526,-2.5313,-2.5307,-2.5605,-2.4101,-2.0055,0.0,0.0,0.0,0.0,0.0,0.0,0.0,0.0,0.0,0.0,0.0,0.0,0.0,0.0,0.0,0.0,0.0,0.0,0.0,0.0,0.0,0.0,0.0,0.0,0.0,0.0,0.0,0.0,0.0,0.0,0.0,0.0,0.0,0.0,0.0,0.0,0.0,0.0,0.0,0.0,0.0,0.0,0.0,0.0,0.0,0.0,0.0,0.0,0.0,0.0,0.0,0.0,0.0,0.0,0.0,0.0,0.0,0.0,0.0,0.0,0.0,0.0,0.0,0.0,0.0,0.0,0.0,0.0,0.0,0.0,0.0,0.0,0.0,0.0,0.0,0.0,0.0,0.0,0.0,0.0,0.0,0.0,0.0,0.0,0.0,0.0,0.0,0.0,0.0,0.0,0.0,0.0,0.0,0.0,0.0,0.0,0.0,0.0,0.0,0.0,0.0,0.0,0.0,0.0,-1.9117,-2.3751,-2.4719,-2.5239,-2.5673,-2.4942,-2.3143,-2.0012,0.0,0.0,0.0,0.0,0.0,0.0,0.0,0.0,0.0,0.0,0.0,0.0,0.0,0.0,0.0,0.0,0.0,0.0,0.0,0.0,0.0,0.0,0.0,0.0,0.0,0.0,0.0,0.0,0.0,0.0,0.0,0.0,0.0,0.0,0.0,0.0,0.0,0.0,0.0,0.0,0.0,0.0,0.0,0.0,0.0,0.0,0.0,0.0,0.0,0.0,0.0,0.0,0.0,0.0,0.0,0.0,0.0,0.0,0.0,0.0,0.0,0.0,0.0,0.0,0.0,0.0,0.0,0.0,0.0,0.0,0.0,0.0,0.0,0.0,0.0,0.0,0.0,0.0,0.0,0.0,0.0,0.0,0.0,0.0,0.0,0.0,0.0,0.0,0.0,0.0,0.0,0.0,0.0,0.0,0.0,0.0,0.0,0.0,0.0,0.0,0.0,0.0,0.0,-1.8175,-2.0244,-2.4547,-2.4717,-2.4734,-2.5319,-2.427,-2.2528,-1.9965,-1.8111,0.0,0.0,0.0,0.0,0.0,0.0,0.0,0.0,0.0,0.0,0.0,0.0,0.0,0.0,0.0,0.0,0.0,0.0,0.0,0.0,0.0,0.0,0.0,0.0,0.0,0.0,0.0,0.0,0.0,0.0,0.0,0.0,0.0,0.0,0.0,0.0,0.0,0.0,0.0,0.0,0.0,0.0,0.0,0.0,0.0,0.0,0.0,0.0,0.0,0.0,0.0,0.0,0.0,0.0,0.0,0.0,0.0,0.0,0.0,0.0,0.0,0.0,0.0,0.0,0.0,0.0,0.0,0.0,0.0,0.0,0.0,0.0,0.0,0.0,0.0,0.0,0.0,0.0,0.0,0.0,0.0,0.0,0.0,0.0,0.0,0.0,0.0,0.0,0.0,0.0,0.0,0.0,0.0,0.0,0.0,0.0,0.0,0.0,0.0,0.0,0.0,0.0,-2.0299,-2.159,-2.4665,-2.4452,-2.4347,-2.4953,-2.3495,-2.1697,-1.9719,-1.711,0.0,0.0,0.0,0.0,0.0,0.0,0.0,0.0,0.0,0.0,0.0,0.0,0.0,0.0,0.0,0.0,0.0,0.0,0.0,0.0,0.0,0.0,0.0,0.0,0.0,0.0,0.0,0.0,0.0,0.0,0.0,0.0,0.0,0.0,0.0,0.0,0.0,0.0,0.0,0.0,0.0,0.0,0.0,0.0,0.0,0.0,0.0,0.0,0.0,0.0,0.0,0.0,0.0,0.0,0.0,0.0,0.0,0.0,0.0,0.0,0.0,0.0,0.0,0.0,0.0,0.0,0.0,0.0,0.0,0.0,0.0,0.0,0.0,0.0,0.0,0.0,0.0,0.0,0.0,0.0,0.0,0.0,0.0,0.0,0.0,0.0,0.0,0.0,0.0,0.0,0.0,0.0,0.0,0.0,0.0,0.0,0.0,0.0,0.0,0.0,0.0,0.0,-2.0707,-2.2936,-2.4796,-2.4452,-2.4347,-2.4953,-2.2468,-2.033,-1.9041,-1.5812,0.0,0.0,0.0,0.0,0.0,0.0,0.0,0.0,0.0,0.0,0.0,0.0,0.0,0.0,0.0,0.0,0.0,0.0,0.0,0.0,0.0,0.0,0.0,0.0,0.0,0.0,0.0,0.0,0.0,0.0,0.0,0.0,0.0,0.0,0.0,0.0,0.0,0.0,0.0,0.0,0.0,0.0,0.0,0.0,0.0,0.0,0.0,0.0,0.0,0.0,0.0,0.0,0.0,0.0,0.0,0.0,0.0,0.0,0.0,0.0,0.0,0.0,0.0,0.0,0.0,0.0,0.0,0.0,0.0,0.0,0.0,0.0,0.0,0.0,0.0,0.0,0.0,0.0,0.0,0.0,0.0,0.0,0.0,0.0,0.0,0.0,0.0,0.0,0.0,0.0,0.0,0.0,0.0,0.0,0.0,0.0,0.0,0.0,0.0,0.0,0.0,0.0,-2.0248,-2.2152,0.0,-2.4243,-2.4204,-2.4426,-2.2794,-2.0936,-1.9028,0.0,0.0,0.0,0.0,0.0,0.0,0.0,0.0,0.0,0.0,0.0,0.0,0.0,0.0,0.0,0.0,0.0,0.0,0.0,0.0,0.0,0.0,0.0,0.0,0.0,0.0,0.0,0.0,0.0,0.0,0.0,0.0,0.0,0.0,0.0,0.0,0.0,0.0,0.0,0.0,0.0,0.0,0.0,0.0,0.0,0.0,0.0,0.0,0.0,0.0,0.0,0.0,0.0,0.0,0.0,0.0,0.0,0.0,0.0,0.0,0.0,0.0,0.0,0.0,0.0,0.0,0.0,0.0,0.0,0.0,0.0,0.0,0.0,0.0,0.0,0.0,0.0,0.0,0.0,0.0,0.0,0.0,0.0,0.0,0.0,0.0,0.0,0.0,0.0,0.0,0.0,0.0,0.0,0.0,0.0,0.0,0.0,0.0,0.0,0.0,0.0,0.0,-1.8326,-2.0195,-2.1969,0.0,-2.4083,-2.4083,-2.4083,-2.2544,-2.0818,-1.9015,0.0,0.0,0.0,0.0,0.0,0.0,0.0,0.0,0.0,0.0,0.0,0.0,0.0,0.0,0.0,0.0,0.0,0.0,0.0,0.0,0.0,0.0,0.0,0.0,0.0,0.0,0.0,0.0,0.0,0.0,0.0,0.0,0.0,0.0,0.0,0.0,0.0,0.0,0.0,0.0,0.0,0.0,0.0,0.0,0.0,0.0,0.0,0.0,0.0,0.0,0.0,0.0,0.0,0.0,0.0,0.0,0.0,0.0,0.0,0.0,0.0,0.0,0.0,0.0,0.0,0.0,0.0,0.0,0.0,0.0,0.0,0.0,0.0,0.0,0.0,0.0,0.0,0.0,0.0,0.0,0.0,0.0,0.0,0.0,0.0,0.0,0.0,0.0,0.0,0.0,0.0,0.0,0.0,0.0,0.0,0.0,0.0,0.0,0.0,0.0,0.0,0.0,-1.8157,-2.0733,-2.2846,-2.3995,-2.4083,-2.4083,-2.4083,-2.1485,-1.9564,0.0,0.0,0.0,0.0,0.0,0.0,0.0,0.0,0.0,0.0,0.0,0.0,0.0,0.0,0.0,0.0,0.0,0.0,0.0,0.0,0.0,0.0,0.0,0.0,0.0,0.0,0.0,0.0,0.0,0.0,0.0,0.0,0.0,0.0,0.0,0.0,0.0,0.0,0.0,0.0,0.0,0.0,0.0,0.0,0.0,0.0,0.0,0.0,0.0,0.0,0.0,0.0,0.0,0.0,0.0,0.0,0.0,0.0,0.0,0.0,0.0,0.0,0.0,0.0,0.0,0.0,0.0,0.0,0.0,0.0,0.0,0.0,0.0,0.0,0.0,0.0,0.0,0.0,0.0,0.0,0.0,0.0,0.0,0.0,0.0,0.0,0.0,0.0,0.0,0.0,0.0,0.0,0.0,0.0,0.0,0.0,0.0,0.0,0.0,0.0,0.0,0.0,0.0,-1.8465,-2.0873,-2.2844,-2.3995,-2.4083,-2.4083,-2.4083,-2.257,-2.0857,-1.9028,0.0,0.0,0.0,0.0,0.0,0.0,0.0,0.0,0.0,0.0,0.0,0.0,0.0,0.0,0.0,0.0,0.0,0.0,0.0,0.0,0.0,0.0,0.0,0.0,0.0,0.0,0.0,0.0,0.0,0.0,0.0,0.0,0.0,0.0,0.0,0.0,0.0,0.0,0.0,0.0,0.0,0.0,0.0,0.0,0.0,0.0,0.0,0.0,0.0,0.0,0.0,0.0,0.0,0.0,0.0,0.0,0.0,0.0,0.0,0.0,0.0,0.0,0.0,0.0,0.0,0.0,0.0,0.0,0.0,0.0,0.0,0.0,0.0,0.0,0.0,0.0,0.0,0.0,0.0,0.0,0.0,0.0,0.0,0.0,0.0,0.0,0.0,0.0,0.0,0.0,0.0,0.0,0.0,0.0,0.0,0.0,0.0,0.0,0.0,0.0,0.0,0.0,-1.8914,-2.1263,-2.3184,-2.4334,-2.4452,-2.4452,-2.4452,-2.2962,-2.1263,-1.9381,0.0,0.0,0.0,0.0,0.0,0.0,0.0,0.0,0.0,0.0,0.0,0.0,0.0,0.0,0.0,0.0,0.0,0.0,0.0,0.0,0.0,0.0,0.0,0.0,0.0,0.0,0.0,0.0,0.0,0.0,0.0,0.0,0.0,0.0,0.0,0.0,0.0,0.0,0.0,0.0,0.0,0.0,0.0,0.0,0.0,0.0,0.0,0.0,0.0,0.0,0.0,0.0,0.0,0.0,0.0,0.0,0.0,0.0,0.0,0.0,0.0,0.0,0.0,0.0,0.0,0.0,0.0,0.0,0.0,0.0,0.0,0.0,0.0,0.0,0.0,0.0,0.0,0.0,0.0,0.0,0.0,0.0,0.0,0.0,0.0,0.0,0.0,0.0,0.0,0.0,0.0,0.0,0.0,0.0,0.0,0.0,0.0,0.0,0.0,0.0,0.0,0.0,-1.9512,-2.1877,-2.3746,-2.4953,-2.507,-2.5057,-2.5005,-2.2988,-2.1211,-1.9956,0.0,0.0,0.0,0.0,0.0,0.0,0.0,0.0,0.0,0.0,0.0,0.0,0.0,0.0,0.0,0.0,0.0,0.0,0.0,0.0,0.0,0.0,0.0,0.0,0.0,0.0,0.0,0.0,0.0,0.0,0.0,0.0,0.0,0.0,0.0,0.0,0.0,0.0,0.0,0.0,0.0,0.0,0.0,0.0,0.0,0.0,0.0,0.0,0.0,0.0,0.0,0.0,0.0,0.0,0.0,0.0,0.0,0.0,0.0,0.0,-1.774,0.0,0.0,0.0,0.0,0.0,0.0,0.0,0.0,0.0,0.0,0.0,0.0,0.0,0.0,0.0,0.0,0.0,0.0,0.0,0.0,0.0,0.0,0.0,0.0,0.0,0.0,0.0,0.0,0.0,0.0,0.0,0.0,0.0,0.0,0.0,0.0,0.0,0.0,0.0,0.0,0.0,-2.0124,-2.2492,-2.436,-2.5524,-2.5641,-2.5458,-2.5031,-2.4112,-2.2675,-2.0635,-1.7978,0.0,0.0,0.0,0.0,0.0,0.0,0.0,0.0,0.0,0.0,0.0,0.0,0.0,0.0,0.0,0.0,0.0,0.0,0.0,0.0,0.0,0.0,0.0,0.0,0.0,0.0,0.0,0.0,0.0,0.0,0.0,0.0,0.0,0.0,0.0,0.0,0.0,0.0,0.0,0.0,0.0,0.0,0.0,0.0,0.0,0.0,0.0,0.0,0.0,0.0,0.0,0.0,0.0,0.0,0.0,0.0,0.0,0.0,0.0,0.0,-2.0007,0.0,0.0,0.0,0.0,0.0,0.0,0.0,0.0,0.0,0.0,0.0,0.0,0.0,0.0,0.0,0.0,0.0,0.0,0.0,0.0,0.0,0.0,0.0,0.0,0.0,0.0,0.0,0.0,0.0,0.0,0.0,0.0,0.0,0.0,0.0,0.0,0.0,0.0,0.0,0.0,-2.0701,-2.3093,-2.4962,-2.6112,-2.6229,-2.5994,-2.5419,-2.4609,-2.3367,-2.1642,-1.9303,0.0,0.0,0.0,0.0,0.0,0.0,0.0,0.0,0.0,0.0,0.0,0.0,0.0,0.0,0.0,0.0,0.0,0.0,0.0,0.0,0.0,0.0,0.0,0.0,0.0,0.0,0.0,0.0,0.0,0.0,0.0,0.0,0.0,0.0,0.0,0.0,0.0,0.0,0.0,0.0,0.0,0.0,0.0,0.0,0.0,0.0,0.0,0.0,0.0,0.0,0.0,0.0,0.0,-2.4923,-2.5533,-2.5157,-2.5912,-2.655,-2.6992,-2.5501,-2.4664,-2.4266,-2.2179,0.0,0.0,0.0,0.0,0.0,0.0,0.0,0.0,0.0,0.0,0.0,0.0,0.0,0.0,0.0,0.0,0.0,0.0,0.0,0.0,0.0,0.0,0.0,0.0,-2.4779,-2.4403,0.0,0.0,0.0,0.0,0.0,0.0,0.0,0.0,0.0,0.0,0.0,0.0,-2.1564,-2.3903,-2.5698,-2.6745,-2.685,-2.6595,-2.602,-2.4984,-2.39,-2.2779,-2.0701,-1.8793,0.0,0.0,0.0,0.0,0.0,0.0,0.0,0.0,0.0,0.0,0.0,0.0,0.0,0.0,0.0,0.0,0.0,0.0,0.0,0.0,0.0,0.0,0.0,0.0,0.0,0.0,0.0,0.0,0.0,0.0,0.0,0.0,-1.5239,-1.5497,0.0,0.0,0.0,0.0,0.0,0.0,0.0,0.0,0.0,0.0,0.0,0.0,0.0,-2.3389,-2.4432,-2.6074,-2.7177,-2.7846,-3.0039,-3.0874,-3.0506,-3.1302,-3.1715,-3.1806,-3.1784,0.0,-2.5621,-2.5166,0.0,0.0,0.0,0.0,0.0,0.0,0.0,0.0,0.0,0.0,0.0,0.0,0.0,0.0,0.0,0.0,0.0,0.0,0.0,0.0,0.0,0.0,-2.7543,-2.7667,-2.7445,-2.6994,0.0,-2.3561,-2.0767,-1.9381,-1.7891,0.0,0.0,0.0,0.0,0.0,0.0,0.0,-2.3406,-2.5341,-2.67,-2.732,-2.7385,-2.7183,-2.6641,-2.5968,-2.5088,-2.3939,-2.2675,-2.1381,-2.0164,-1.8109,0.0,0.0,0.0,0.0,0.0,0.0,0.0,0.0,0.0,0.0,0.0,0.0,0.0,0.0,0.0,0.0,0.0,0.0,0.0,0.0,0.0,0.0,0.0,0.0,0.0,0.0,0.0,0.0,0.0,-1.5168,-1.7591,-1.7471,-1.816,-1.8262,0.0,0.0,0.0,0.0,0.0,0.0,0.0,0.0,0.0,-2.5219,-2.6207,-2.7374,-2.8817,-2.9902,-3.0605,-3.0979,-3.2053,-3.255,-3.2541,-3.2999,-3.3273,-3.3387,-3.3515,-3.2359,-3.0276,-2.8835,-2.6974,-2.4991,0.0,0.0,0.0,0.0,-2.3178,-2.3498,-2.4772,-2.4968,0.0,-2.4372,0.0,0.0,0.0,0.0,0.0,0.0,0.0,0.0,0.0,0.0,-2.8543,-2.9209,-2.9418,-2.9379,-2.903,-2.7353,-2.5158,0.0,-2.1864,-2.07,-1.7891,0.0,0.0,0.0,0.0,-2.198,-2.4308,-2.5842,-2.6896,-2.7438,-2.749,-2.7301,-2.6758,-2.6452,-2.5811,-2.4674,-2.3825,-2.2844,-2.1694,-2.0059,-1.8208,0.0,0.0,0.0,0.0,0.0,0.0,0.0,0.0,0.0,0.0,0.0,0.0,0.0,0.0,0.0,0.0,0.0,0.0,0.0,0.0,0.0,0.0,0.0,0.0,0.0,0.0,0.0,0.0,-1.7348,-1.953,-1.9293,-2.0708,-2.1053,0.0,0.0,0.0,0.0,0.0,0.0,-2.4478,-2.5785,-2.7157,-2.856,-2.9627,-3.0764,-3.2006,-3.2633,-3.2986,-3.313,-3.3434,-3.378,-3.4126,-3.434,-3.4499,-3.4658,-3.479,-3.4695,-3.4345,-3.1938,-3.0024,-2.8514,-2.735,-2.6507,-2.6058,-2.6882,-2.7016,-2.6991,-2.869,-2.8987,-2.8521,-2.8137,-2.7031,-2.564,-2.4506,0.0,0.0,0.0,0.0,-2.5755,-2.6788,-2.8053,-2.9261,-3.015,-3.0673,-3.0869,-3.0451,-3.0019,-2.883,0.0,-2.5345,-2.4429,-2.1224,0.0,0.0,0.0,0.0,-2.3959,-2.5641,-2.6614,-2.7275,-2.7706,-2.7581,-2.732,-2.6935,-2.6798,-2.6274,-2.528,-2.4648,-2.3812,-2.2662,-2.1668,-2.0017,-1.767,0.0,0.0,0.0,0.0,0.0,0.0,0.0,0.0,0.0,0.0,0.0,0.0,0.0,0.0,0.0,0.0,0.0,0.0,0.0,0.0,0.0,0.0,0.0,0.0,0.0,0.0,0.0,0.0,0.0,-2.1137,-2.3811,0.0,0.0,0.0,0.0,-2.4691,-2.579,-2.6942,-2.8093,-2.9781,-3.0973,-3.1562,-3.2215,-3.2568,-3.2646,-3.3247,-3.3809,-3.4319,-3.4894,-3.5572,-3.6356,-3.6558,-3.6644,-3.6687,-3.714,-3.6872,-3.6004,-3.3842,-3.2448,-3.1626,-3.0971,-3.0169,-2.9429,-2.9962,-3.0398,-3.0815,-3.1406,-3.1615,-3.1575,-3.1549,-2.967,-2.749,-2.7981,-2.6942,0.0,0.0,-2.8082,-2.9161,-2.9738,-3.0361,-3.0869,-3.0934,-3.096,-3.0973,-3.0947,-3.0921,-3.0359,0.0,-2.7347,-2.6379,-2.5602,0.0,-2.4913,-2.5362,-2.6033,-2.6915,-2.8093,-2.8289,-2.8307,-2.8368,-2.785,-2.749,-2.7451,-2.6987,-2.6412,-2.5793,-2.5236,-2.4429,-2.3195,-2.2624,-2.1602,-2.0155,-1.791,0.0,0.0,0.0,0.0,0.0,0.0,0.0,0.0,0.0,0.0,0.0,0.0,0.0,0.0,0.0,0.0,0.0,0.0,0.0,0.0,0.0,0.0,0.0,0.0,0.0,0.0,0.0,0.0,-2.4249,-2.6091,0.0,-2.4842,-2.5641,-2.6556,-2.7151,-2.8582,-2.9797,-3.0568,-3.1914,-3.2921,-3.347,-3.4058,-3.4541,-3.4881,-3.5103,-3.5299,-3.5495,-3.5704,-3.6057,-3.6484,-3.6571,-3.6688,-3.6817,-3.7002,-3.6882,-3.6543,-3.5813,-3.4794,-3.3695,-3.3101,-3.26,-3.2177,-3.225,-3.2273,-3.2304,-3.2359,-3.2385,-3.2385,-3.2385,-3.1692,-3.0895,-3.1091,-3.0725,-3.0241,-3.0257,-3.057,-3.0882,-3.0725,-3.083,-3.0986,-3.0986,-3.0986,-3.0986,-3.0986,-3.0986,-3.0803,-3.0176,-2.9431,-2.836,-2.6661,-2.685,-2.702,-2.6452,-2.7203,-2.8093,-2.8891,-2.8996,-2.8996,-2.8996,-2.8438,-2.8072,-2.8072,-2.721,-2.6425,-2.5832,-2.4936,-2.406,-2.3221,-2.224,-2.1303,-2.0462,-1.8746,-1.6959,0.0,0.0,0.0,0.0,0.0,0.0,0.0,0.0,0.0,0.0,0.0,0.0,0.0,0.0,0.0,0.0,0.0,0.0,0.0,0.0,0.0,0.0,0.0,0.0,0.0,0.0,-2.6072,-2.653,-2.8245,-2.8784,-2.7392,-2.8456,-2.951,-3.0098,-3.1378,-3.2385,-3.2933,-3.3914,-3.4607,-3.4959,-3.5365,-3.5744,-3.6109,-3.6305,-3.641,-3.641,-3.6619,-3.6844,-3.7065,-3.7065,-3.7153,-3.7285,-3.7373,-3.7373,-3.7259,-3.7247,-3.6657,-3.5695,-3.5103,-3.4754,-3.4553,-3.4419,-3.4124,-3.3738,-3.3379,-3.3156,-3.2999,-3.2999,-3.2855,-3.2685,-3.2685,-3.2685,-3.262,-3.2241,-3.2084,-3.2045,-3.1666,-3.1561,-3.1509,-3.1326,-3.1274,-3.1222,-3.1026,-3.0986,-3.0986,-3.0986,-3.0686,-2.9928,-2.8399,-2.88,-2.9035,-2.8276,-2.8778,-2.9405,-2.9833,-2.9693,-2.9575,-2.9575,-2.9039,-2.8643,-2.8433,-2.751,-2.6634,-2.5845,-2.4936,-2.4047,-2.3221,-2.2368,-2.1496,-2.0733,-1.9328,-1.7956,-1.6667,0.0,0.0,0.0,0.0,0.0,0.0,0.0,0.0,0.0,0.0,0.0,0.0,0.0,0.0,0.0,0.0,0.0,0.0,0.0,0.0,0.0,0.0,0.0,-2.3606,-2.618,-2.8053,-2.7927,-3.0236,-3.1406,-3.0322,-3.1757,-3.2999,-3.36,-3.4149,-3.4711,-3.5286,-3.5835,-3.6136,-3.6136,-3.6162,-3.6188,-3.6188,-3.6789,-3.709,-3.709,-3.7678,-3.8077,-3.8253,-3.8253,-3.8253,-3.8266,-3.852,-3.8506,-3.8232,-3.8136,-3.7953,-3.7652,-3.707,-3.6688,-3.6484,-3.6484,-3.6012,-3.5247,-3.4659,-3.4097,-3.3639,-3.3639,-3.3234,-3.2738,-3.2738,-3.2738,-3.2738,-3.2725,-3.2725,-3.2712,-3.2698,-3.2685,-3.2555,-3.1967,-3.1836,-3.1667,-3.1143,-3.1013,-3.1013,-3.0986,-3.0986,-3.0986,-3.0986,-3.0986,-3.0986,-3.0986,-3.0986,0.0,-3.0986,-3.0503,-3.0127,-3.0127,-2.9653,-2.91,-2.8499,-2.7863,-2.7007,-2.5858,-2.5262,-2.4468,-2.3289,-2.3095,-2.2424,-2.1169,-1.9775,-1.8807,-1.8279,0.0,0.0,0.0,0.0,0.0,0.0,0.0,0.0,0.0,0.0,0.0,0.0,0.0,0.0,0.0,0.0,0.0,0.0,0.0,0.0,0.0,0.0,-2.7006,-2.6476,-2.8328,-2.9983,-3.0642,-3.1872,-3.266,-3.2633,-3.3417,-3.4175,-3.4789,-3.5325,-3.5704,-3.5874,-3.6436,-3.6763,-3.6763,-3.756,-3.7991,-3.7991,-3.8593,-3.8893,-3.8893,-3.9063,-3.9176,-3.9223,-3.9223,-3.9223,-3.921,-3.927,-3.9128,-3.8846,-3.8839,-3.8508,-3.8018,-3.7317,-3.683,-3.6484,-3.6484,-3.6249,-3.5861,-3.5691,-3.5273,-3.4829,-3.4829,-3.441,-3.3927,-3.3927,-3.3927,-3.3849,-3.3456,-3.3352,-3.3247,-3.2803,-3.2685,-3.2659,-3.2489,-3.245,-3.2293,-3.1693,-3.1575,-3.1483,-3.1065,-3.0986,-3.0986,-3.0986,-3.0986,-3.0986,-3.0986,-3.0986,0.0,-3.0986,-3.0856,-3.0751,-3.0751,-3.0241,-2.9666,-2.9114,-2.8111,-2.7007,-2.5858,-2.4896,-2.4204,-2.3861,-2.3202,-2.2572,-2.1971,-2.1222,-2.0539,0.0,0.0,0.0,0.0,0.0,0.0,0.0,0.0,0.0,0.0,0.0,0.0,0.0,0.0,0.0,0.0,0.0,0.0,0.0,0.0,0.0,0.0,-2.7387,-2.9368,-2.964,-3.0703,-3.1764,-3.2463,-3.3184,-3.3762,-3.4241,-3.4789,-3.5365,-3.5966,-3.6305,-3.6684,-3.7168,-3.7521,-3.7835,-3.8083,-3.8736,-3.9089,-3.9089,-3.9429,-3.9612,-3.9612,-3.9612,-3.9612,-3.9612,-3.9612,-3.9612,0.0,-3.9612,-3.9511,-3.9339,-3.942,-3.9017,0.0,0.0,0.0,0.0,0.0,-3.6621,-3.6449,-3.6188,-3.59,-3.5639,-3.5639,-3.5247,-3.4776,-3.4776,-3.4593,-3.4332,-3.4018,-3.3927,-3.3849,-3.3496,-3.3404,-3.3352,-3.3117,-3.3064,-3.2908,-3.2319,-3.1967,-3.1706,-3.1405,-3.1143,0.0,-3.0986,-3.0986,-3.0986,-3.0986,-3.0986,-3.0986,-3.0986,-3.0986,-3.0986,-3.0986,-3.0699,-3.0268,-2.968,-2.8556,0.0,0.0,0.0,-2.4666,-2.43,-2.3524,0.0,0.0,0.0,0.0,0.0,0.0,0.0,0.0,-2.1571,-2.1757,0.0,0.0,0.0,0.0,0.0,0.0,0.0,0.0,0.0,0.0,0.0,0.0,0.0,0.0,0.0,0.0,-2.9627,-3.1014,-3.2581,-3.3054,-3.3356,-3.3667,-3.4162,-3.4763,-3.543,-3.5926,-3.6488,-3.7142,-3.7194,-3.7665,-3.8749,0.0,0.0,0.0,0.0,-3.9703,-3.9703,-3.9769,-3.9795,-3.9795,-3.9795,-3.9795,-3.9795,-3.9795,-3.9795,-3.9795,-3.9795,-3.9769,-3.9751,-3.9952,-3.9549,-3.8783,-3.8326,-3.8057,-3.7848,-3.7299,-3.7103,-3.7024,-3.6488,0.0,0.0,-3.6201,-3.5835,-3.5391,-3.5391,-3.4972,-3.4502,-3.4502,-3.445,-3.4397,-3.4397,-3.4397,-3.428,-3.3796,-3.3679,-3.3522,-3.2921,-3.2398,-3.198,-3.1915,-3.147,-3.1078,-3.1078,-3.1026,-3.0986,-3.0986,-3.0986,-3.0986,-3.0986,-3.0986,-3.0986,-3.0986,0.0,0.0,-3.014,-2.9134,-2.8239,-2.7478,-2.6577,-2.5688,-2.4858,-2.4392,-2.4226,-2.4356,-2.4845,-2.5322,-2.5787,-2.6791,-2.7128,-2.67,-2.3671,-2.3514,0.0,0.0,0.0,0.0,0.0,0.0,0.0,0.0,0.0,0.0,0.0,0.0,0.0,0.0,0.0,-2.8957,-3.1248,-3.3038,-3.3378,-3.4256,-3.4688,-3.428,-3.4763,-3.5534,-3.6567,-3.6776,-3.726,-3.8305,-3.8383,-3.8697,-3.9403,-3.9442,-3.9494,-3.9612,-4.003,-4.0265,-4.0265,-4.0736,-4.0984,-4.0984,0.0,0.0,-4.0984,-4.0984,-4.0984,-4.0984,-4.0984,-4.0821,-4.057,-4.0619,-4.0263,-3.957,-3.8431,-3.7933,-3.7887,-3.7769,-3.773,-3.7717,-3.7599,-3.7233,-3.6828,-3.6828,-3.6436,-3.5953,-3.5953,-3.5561,0.0,-3.5129,-3.4776,-3.4397,-3.4397,-3.4397,-3.4371,-3.4267,-3.4241,-3.4084,-3.3535,-3.3326,-3.3104,-3.262,-3.2071,-3.1641,-3.1641,-3.13,-3.0986,-3.0986,-3.0986,-3.0986,-3.0986,-3.0986,-3.0986,-3.0986,-3.0986,-3.0764,-3.014,-2.977,-2.9149,-2.8247,-2.785,-2.743,-2.6938,-2.7294,-2.7215,-2.6653,-2.6753,-2.6854,-2.6954,-2.7168,-2.7682,-2.8423,-2.7331,-2.6879,0.0,0.0,0.0,0.0,0.0,0.0,0.0,0.0,0.0,0.0,0.0,-2.5638,-2.6922,0.0,-3.0108,-3.1248,-3.2881,-3.411,-3.4397,-3.5168,-3.5482,-3.492,-3.5626,-3.6371,-3.6946,-3.7521,-3.8096,-3.8671,-3.8985,-3.9416,-3.9978,-4.0017,-4.0148,-4.0448,-4.0723,-4.0867,-4.0867,-4.1167,-4.1311,-4.1311,-4.1311,-4.1311,-4.1311,-4.1311,-4.1311,-4.1311,-4.1311,-4.1191,-4.1051,-4.07,-4.0398,-4.0044,-3.9123,-3.8579,-3.8279,-3.8004,-3.79,-3.79,-3.79,-3.7704,-3.7456,-3.7456,-3.705,-3.6554,-3.6554,-3.6162,-3.5639,-3.5378,-3.5077,-3.4776,-3.4476,-3.4397,-3.4397,-3.4397,-3.4397,-3.4332,-3.4058,-3.3783,-3.3496,-3.3208,-3.2672,-3.2267,-3.2267,-3.1797,-3.1313,-3.1026,-3.0986,-3.0986,-3.0986,-3.0986,-3.0986,-3.0986,-3.0986,-3.0869,-3.0594,-2.9986,-2.9383,-2.8755,-2.8514,-2.8267,-2.7946,-2.8333,-2.8274,-2.7695,-2.7959,-2.8109,-2.8109,-2.8398,-2.8825,-2.9352,-2.9076,-2.88,0.0,0.0,0.0,0.0,0.0,0.0,0.0,0.0,-2.4461,-2.6405,-2.7538,-2.8533,-2.9751,-3.0828,-3.198,-3.3496,-3.4214,-3.4776,-3.5365,-3.5926,-3.607,-3.5521,-3.6371,-3.705,-3.7168,-3.8109,-3.8762,-3.888,-3.9429,-4.0004,-4.0566,-4.0592,-4.0814,-4.1298,-4.1311,-4.1311,-4.1311,-4.1311,-4.1311,-4.1311,-4.1311,-4.1311,-4.1311,-4.1361,-4.1361,-4.1311,-4.1311,-4.1311,-4.1272,-4.0788,-4.0592,-4.054,-3.9978,-3.9468,-3.8985,-3.8436,-3.8161,-3.8057,-3.8057,-3.7991,-3.79,-3.79,-3.7573,-3.7168,-3.7168,-3.6763,-3.6188,-3.5757,-3.5547,-3.5312,-3.4724,-3.4567,-3.4541,-3.4424,-3.4397,-3.4397,-3.4397,-3.4058,-3.3744,-3.3744,-3.3273,-3.2868,-3.2868,-3.2385,-3.1771,-3.1235,-3.1052,-3.0986,-3.0986,-3.0986,-3.0986,-3.0986,-3.0986,-3.0986,-3.0911,-3.0183,-2.9584,-2.9183,-2.9059,-2.8913,-2.867,-2.8816,-2.8767,-2.8436,-2.8863,-2.9051,-2.9063,-2.9566,-2.9792,-2.9792,-2.9792,-2.9792,-1.9593,-2.0979,-2.2414,-2.4055,-2.4136,-2.5103,0.0,0.0,-2.9031,-3.1625,-3.2222,-3.2342,-3.2306,-3.2855,-3.3522,-3.4201,-3.4816,-3.5391,-3.5926,-3.6528,-3.6684,-3.6083,-3.6606,-3.7207,-3.7756,-3.8357,-3.8932,-3.9468,-4.0017,-4.0592,-4.118,-4.1219,-4.1246,-4.1311,-4.1311,-4.1311,-4.1311,-4.1311,-4.1311,-4.1311,-4.1311,-4.1311,-4.1311,-4.1547,-4.156,-4.1311,-4.1311,-4.1311,-4.1311,-4.1246,-4.1219,-4.1154,-4.0553,-4.0278,-4.0161,-3.9625,-3.9076,-3.8619,-3.8619,-3.8305,-3.79,-3.79,-3.7861,-3.7808,-3.7808,-3.7377,-3.6894,-3.6828,-3.6423,-3.5887,-3.5338,-3.5195,-3.5064,-3.4528,-3.4397,-3.4397,-3.4397,-3.4345,-3.4306,-3.4306,-3.3862,-3.3496,-3.3496,-3.2999,-3.2398,-3.1797,-3.1313,-3.0986,-3.0986,-3.0986,-3.0986,-3.0986,-3.0986,-3.0874,-3.0482,-3.052,-3.0317,-2.977,-2.9999,-3.0037,-2.9642,-2.968,-2.9642,-2.9603,-2.9666,-2.9691,-2.9691,-2.9767,-2.9792,-2.9792,-2.9792,-2.9792,-2.3823,-2.4674,-2.512,0.0,-2.7709,-2.9074,-3.0943,-3.1196,-3.1399,-3.271,-3.3278,-3.3449,-3.3248,-3.3679,-3.4241,0.0,-3.5391,-3.5966,-3.6541,-3.6841,-3.692,-3.6658,-3.6854,-3.7103,-3.7351,-3.8501,-3.9337,-3.9586,-4.0435,-4.105,-4.1311,-4.1311,-4.1311,-4.1311,-4.1311,-4.1311,-4.1311,-4.1311,-4.1311,-4.1311,-4.1461,-4.1461,-4.1311,-4.1597,-4.1547,-4.1311,-4.1311,-4.1311,-4.1311,-4.1311,-4.1311,-4.1285,-4.1036,-4.0932,-4.0827,-3.9939,-3.9455,-3.9181,-3.8828,-3.8553,-3.8318,-3.8004,-3.79,-3.79,-3.79,-3.773,-3.7456,-3.7103,-3.6828,-3.6488,-3.5913,-3.5534,-3.5234,-3.4986,-3.4659,-3.4397,-3.4397,-3.4397,-3.4397,-3.4397,-3.4214,-3.4058,-3.4058,-3.3587,-3.3143,-3.2894,-3.2071,-3.1365,-3.1026,-3.0986,-3.0986,-3.0986,-3.0986,-3.0874,-3.0609,-3.0533,-3.0381,-3.0011,-3.0113,-3.0113,-2.9792,-2.9895,-2.9934,-2.9792,-2.9792,-2.9792,-2.9792,-2.9792,-2.9792,-2.9792,-2.9792,-2.9967,-2.5955,0.0,0.0,-2.8438,-3.0387,-3.1981,-3.1479,-3.2152,-3.2959,-3.3317,-3.362,-3.379,-3.3628,-3.3914,-3.4424,-3.5168,-3.5757,-3.6371,-3.7142,-3.7103,-3.6946,-3.6776,-3.675,-3.675,-3.675,-3.8331,-3.9429,-3.9599,-4.0514,-4.1141,-4.1311,-4.1311,-4.1311,-4.1311,-4.1311,-4.1311,-4.1311,-4.1311,-4.1311,-4.1311,-4.1511,-4.1511,-4.1311,-4.1597,-4.1647,-4.1511,-4.1461,-4.1361,-4.1311,-4.1311,-4.1311,-4.1311,-4.1311,-4.1311,-4.1219,-4.0383,-3.9978,-3.9756,-3.9155,-3.8841,-3.8619,-3.8083,-3.79,-3.79,-3.79,-3.79,-3.7808,-3.7377,-3.726,-3.7116,-3.6502,-3.6057,-3.573,-3.5561,-3.5064,-3.4646,-3.4646,-3.4515,-3.4397,-3.4397,-3.4397,-3.4397,-3.4397,-3.4071,-3.3757,-3.3613,-3.2868,-3.2058,-3.1313,-3.1078,-3.0986,-3.0986,-3.0949,-3.0849,-3.0609,-3.0482,-3.0292,-3.0049,-3.0075,-3.0011,-2.9792,-2.9934,-2.9934,-2.9792,-2.9792,-2.9792,-2.9792,-2.9792,-2.988,-3.0018,-3.0018,-3.0319,0.0,0.0,-2.9503,-2.9853,-3.1307,-3.2892,-3.3622,-3.3819,-3.3963,-3.4269,-3.394,-3.3587,-3.3587,-3.36,-3.3979,-3.5116,-3.5757,-3.6515,-3.7704,-3.7377,-3.6789,-3.6201,-3.6136,-3.6136,0.0,-3.7704,-3.8985,-3.9573,-4.0122,-4.0697,-4.1285,-4.1311,-4.1311,-4.1311,-4.1311,-4.1311,-4.1311,-4.1311,-4.1311,-4.1311,-4.1311,-4.1311,-4.1311,-4.1597,-4.1845,-4.2079,-4.1796,-4.1547,-4.1311,-4.1311,-4.1311,-4.1311,-4.1311,-4.1311,-4.1311,-4.1272,-4.0893,-4.0318,-3.9769,-3.9194,-3.8619,-3.8083,-3.79,-3.79,-3.79,-3.79,-3.79,-3.7887,-3.7874,-3.7743,-3.7129,-3.6972,-3.6802,-3.6214,-3.5665,-3.5273,-3.5273,-3.4816,-3.4397,-3.4397,-3.4397,-3.4397,-3.4397,-3.4384,-3.4188,-3.3679,-3.3561,-3.3117,-3.1928,-3.1326,-3.0986,-3.0986,-3.0849,-3.0622,-3.0444,-3.0406,-3.0228,-2.983,-2.9972,-3.0011,-2.9792,-2.9792,-2.9792,-2.9792,-2.9792,-2.9792,-2.9792,-2.9792,-3.0068,-3.0595,-3.0595,-3.0871,-2.7694,0.0,-3.0815,-3.1279,-3.2657,-3.3871,-3.3738,-3.379,-3.387,-3.3863,-3.3404,-3.2999,-3.2999,-3.2999,-3.3496,-3.5051,-3.5443,-3.6109,-3.7691,-3.773,-3.7377,-3.6776,-3.705,0.0,0.0,0.0,0.0,-3.9534,-4.0109,-4.0671,-4.1285,-4.1311,-4.1311,-4.1311,-4.1311,-4.1311,-4.1311,-4.1461,-4.1547,-4.1547,-4.1746,-4.1895,-4.2105,-4.1993,-4.1931,-4.1845,-4.1746,-4.1547,-4.1311,-4.1311,-4.1311,-4.1311,-4.1311,-4.1311,-4.1311,-4.1311,-4.1193,-4.0932,-4.0344,-3.9782,-3.9207,-3.8632,-3.82,-3.79,-3.79,-3.79,-3.79,-3.79,-3.79,-3.7861,-3.7652,-3.7299,-3.6946,-3.675,-3.6253,-3.573,-3.5378,-3.5142,-3.4881,-3.4476,-3.4397,-3.4397,-3.4397,-3.4397,-3.4332,-3.4162,-3.3483,-3.2712,-3.1902,-3.1628,-3.1405,-3.1026,-3.0949,-3.0761,-3.0444,-3.0406,-3.0228,-2.983,-2.9869,-2.9869,-2.9792,-2.9792,-2.9792,-2.9792,-2.9792,-2.9792,-2.9792,-3.0168,-3.0432,-3.062,-3.0972,-3.1424,-2.972,-3.1082,-3.194,-3.2589,-3.3688,-3.4432,-3.3748,-3.3709,-3.3618,-3.3051,-3.2333,-3.1784,-3.1784,-3.1601,-3.2176,-3.4332,-3.4842,-3.573,-3.7887,-3.7848,-3.7586,-3.7612,-3.7891,-3.7968,0.0,0.0,0.0,-3.9534,-4.0109,-4.0671,-4.1285,-4.1311,-4.1311,-4.1311,-4.1311,-4.1361,-4.1461,-4.1597,-4.1746,-4.1845,-4.2029,-4.2239,-4.2511,-4.2239,-4.2029,-4.1845,-4.1746,-4.1547,-4.1311,-4.1311,-4.1311,-4.1311,-4.1311,-4.1311,-4.1311,-4.1311,-4.1311,-4.1219,-4.0618,-4.0187,-3.9769,-3.8972,-3.8475,-3.8161,-3.7965,-3.79,-3.79,-3.79,-3.79,-3.79,-3.79,-3.7612,-3.7325,-3.7325,-3.6867,-3.6332,-3.5979,-3.5744,-3.5417,-3.4829,-3.4724,-3.4646,-3.4437,-3.4397,-3.4397,-3.4397,-3.377,-3.3104,-3.2502,-3.2241,-3.1927,-3.1352,-3.13,-3.1057,-3.0457,-3.0406,-3.0228,-2.983,-2.9792,-2.9792,-2.9792,-2.9792,-2.9792,-2.9792,-2.9993,-3.0093,-3.0093,-3.0633,-3.0984,-3.1198,-3.1537,-3.1989,-3.0358,-3.1599,-3.2986,-3.3741,-3.4334,-3.453,-3.3799,-3.3522,-3.313,-3.1915,-3.0766,-2.9944,-2.9892,0.0,-3.0213,-3.3038,-3.4047,-3.5447,-3.8305,-3.7887,-3.767,0.0,0.0,0.0,0.0,0.0,0.0,-3.966,0.0,-4.0671,-4.1285,-4.1311,-4.1311,-4.1311,-4.1311,-4.1411,-4.1696,-4.1746,-4.1895,-4.2128,-4.2128,-4.2239,-4.2511,-4.2239,-4.2079,-4.2079,-4.1845,-4.1547,-4.1311,-4.1311,-4.1311,-4.1311,-4.1311,-4.1311,-4.1311,-4.1311,-4.1311,-4.1232,-4.0657,-4.0448,-4.0239,-3.9155,-3.8762,-3.8619,-3.8109,-3.7926,-3.79,-3.79,-3.79,-3.79,-3.79,-3.79,-3.79,-3.79,-3.7469,-3.7037,-3.7011,-3.6554,-3.5992,-3.5443,-3.5312,-3.5103,-3.4502,-3.4397,-3.4397,-3.4397,-3.4397,-3.4201,-3.3666,-3.3091,-3.2515,-3.1902,-3.185,-3.1461,-3.0573,-3.0496,-3.0305,-2.9918,-2.988,-2.988,-2.988,-2.988,-2.988,-2.988,-3.0382,-3.0658,-3.0658,-3.1185,-3.17,-3.2215,-3.224,-3.2554,-3.12,-3.2707,-3.4085,-3.4252,-3.4198,-3.4042,-3.3667,-3.2581,-3.1326,-3.0176,-2.9013,-2.7894,-2.7046,0.0,0.0,-3.185,-3.4047,0.0,-3.8385,-4.0073,0.0,-4.054,0.0,-4.0887,-4.0534,-4.042,0.0,0.0,-4.0331,-4.0671,-4.1285,-4.1311,-4.1311,-4.1311,-4.1311,-4.1411,-4.1696,-4.2105,-4.2449,-4.2679,-4.2498,-4.2547,-4.279,-4.2324,-4.2079,-4.2079,-4.1845,-4.1547,-4.1311,-4.1311,-4.1311,-4.1311,-4.1311,-4.1311,-4.1311,-4.1311,-4.1311,-4.1298,-4.1141,-4.0788,-4.037,-4.0069,-3.9403,-3.8684,-3.8553,-3.8227,-3.79,-3.79,-3.79,-3.79,-3.79,-3.79,-3.79,-3.79,-3.7782,-3.7547,-3.7103,-3.6881,-3.6606,-3.6018,-3.5574,-3.5103,-3.4502,-3.4397,-3.4397,-3.4397,-3.4397,-3.4201,-3.3666,-3.3456,-3.313,-3.2542,-3.2476,-3.2306,-3.1927,-3.1756,-3.157,-3.1318,-3.1105,-3.0984,-3.0984,-3.0984,-3.0984,-3.0984,-3.1122,-3.1198,-3.1198,-3.1738,-3.2077,-3.2227,-3.2654,-3.293,-3.2358,-3.3648,-3.47,-3.4444,-3.4061,-3.3487,-3.2306,-3.1117,-2.9627,-2.7458,-2.6491,0.0,-2.4517,-2.5916,0.0,0.0,0.0,0.0,-3.8358,-4.0326,-4.1562,0.0,-4.2638,0.0,-4.2551,-4.229,-4.2112,0.0,-4.1267,-4.1008,-4.1435,-4.1361,-4.1411,-4.1647,-4.1547,-4.1647,-4.2056,-4.2449,-4.2741,-4.2887,-4.2741,-4.2741,-4.2887,-4.2324,-4.2079,-4.2079,0.0,-4.1461,-4.1311,-4.1311,-4.1311,-4.1311,-4.1311,-4.1311,-4.1311,-4.1311,-4.1311,-4.1311,-4.1311,-4.1089,-4.0762,-4.0501,-3.9978,-3.9364,-3.8867,-3.8501,-3.8214,-3.7965,-3.79,-3.79,-3.79,-3.79,-3.79,-3.79,-3.79,-3.7808,-3.7469,-3.7403,-3.722,-3.6619,-3.6044,-3.5469,-3.4894,-3.4789,-3.4711,-3.4437,-3.4397,-3.4293,-3.3979,-3.394,-3.3731,-3.3156,-3.3091,-3.2866,-3.2339,-3.2166,-3.1952,-3.1643,-3.148,-3.1386,-3.1386,-3.1386,-3.1386,-3.1386,-3.1625,-3.175,-3.175,-3.2315,-3.2591,-3.2604,-3.2918,-3.3124,-3.3448,-3.432,-3.4936,-3.443,-3.3822,-3.2777,-3.0492,-2.9405,-2.7876,-2.457,0.0,-2.3315,-2.2257,-2.3916,-2.6282,-2.8765,0.0,-3.4802,-3.8372,-3.986,-4.1242,-4.3006,-4.428,-4.4902,-4.4535,-4.4359,-4.4312,-4.4312,-4.2674,-4.1733,-4.1832,-4.1511,-4.156,-4.2029,-4.1895,-4.2056,-4.2511,-4.279,-4.2887,-4.2887,-4.2838,-4.2887,-4.2887,-4.2324,-4.2079,-4.2079,-4.156,0.0,-4.1311,-4.1311,-4.1311,-4.1311,-4.1311,-4.1311,-4.1311,-4.1311,-4.1311,-4.1311,-4.1311,-4.1311,-4.1219,-4.071,-4.0488,-4.0226,-3.9246,-3.8828,-3.8606,-3.8148,-3.7952,-3.79,-3.79,-3.79,-3.79,-3.79,-3.79,-3.79,-3.79,-3.79,-3.773,-3.7116,-3.658,-3.6057,-3.5495,-3.5338,-3.5116,-3.4593,-3.445,-3.4397,-3.4397,-3.4397,-3.4214,-3.3757,-3.3692,-3.3292,-3.2423,-3.2303,-3.2087,-3.1694,-3.1653,-3.1612,-3.1612,-3.1612,-3.1612,-3.1612,-3.2089,-3.2328,-3.2328,-3.283,-3.3124,-3.3124,-3.3124,-3.3124,-3.3566,-3.4211,-3.4678,-3.393,-3.2934,-3.1628,-2.9849,-2.7863,0.0,0.0,-2.1943,-2.108,-2.0374,-2.2126,-2.4739,-2.8007,0.0,0.0,0.0,0.0,-4.3243,0.0,0.0,0.0,0.0,0.0,0.0,0.0,0.0,-4.3416,-4.266,-4.1782,-4.1461,-4.1746,-4.2155,-4.2413,-4.2511,-4.279,-4.2887,-4.2887,-4.2693,-4.2693,-4.2887,-4.2092,-4.1881,-4.2079,-4.156,0.0,-4.1311,-4.1311,-4.1311,-4.1311,-4.1311,-4.1311,-4.1311,-4.1311,-4.1311,-4.1311,-4.1311,-4.1311,-4.1298,-4.1193,-4.0827,-4.0383,-4.0187,-3.9468,-3.8697,-3.8593,-3.824,-3.79,-3.79,-3.79,-3.79,-3.79,-3.79,-3.79,-3.79,-3.79,-3.773,-3.7116,-3.692,-3.6658,-3.607,-3.5587,-3.526,-3.5155,-3.4711,-3.4397,-3.4397,-3.4397,-3.4358,-3.4267,-3.41,-3.3936,-3.3762,-3.3414,-3.3149,-3.3064,-3.2907,-3.2822,-3.2822,-3.2822,-3.2822,-3.2822,-3.288,-3.293,-3.293,-3.3074,-3.3124,-3.3124,-3.3124,-3.3124,-3.3592,-3.4211,-3.4624,-3.3813,-3.2712,-3.1119,-2.8551,0.0,0.0,0.0,-2.0151,-1.9496,-1.861,0.0,0.0,0.0,0.0,0.0,0.0,0.0,0.0,0.0,0.0,0.0,0.0,0.0,0.0,0.0,0.0,-4.4111,-4.3239,-4.252,-4.2155,-4.2105,-4.2498,-4.2693,-4.2693,-4.2838,-4.2887,-4.2887,-4.279,-4.2693,-4.2693,-4.2141,-4.1881,-4.1881,-4.1461,0.0,-4.1311,-4.1311,-4.1311,-4.1311,-4.1311,-4.1311,-4.1311,-4.1311,-4.1311,-4.1311,-4.1311,-4.1311,-4.1311,-4.1311,-4.1115,-4.0827,-4.0514,-3.9834,-3.9115,-3.8802,-3.8318,-3.79,-3.79,-3.79,-3.79,-3.79,-3.79,-3.79,-3.79,-3.79,-3.7808,-3.7521,-3.7469,-3.7286,-3.6671,-3.6358,-3.6083,-3.5757,-3.5234,-3.4868,-3.4868,-3.4593,-3.4397,-3.4397,-3.4243,-3.4034,-3.3894,-3.3611,-3.3356,-3.324,-3.3154,-3.3124,-3.3124,-3.3124,-3.3124,-3.3124,-3.3124,-3.3124,-3.3124,-3.3124,-3.3124,-3.3124,-3.3124,-3.3124,-3.3592,-3.417,-3.4502,-3.3615,-3.2515,-3.0712,-2.7118,-2.4975,0.0,0.0,-1.8623,-1.8296,-1.7525,0.0,-2.2192,0.0,0.0,0.0,0.0,0.0,0.0,0.0,0.0,0.0,0.0,0.0,0.0,0.0,0.0,0.0,-4.362,-4.328,-4.2922,-4.2511,-4.2741,-4.2887,-4.2887,-4.2887,-4.2887,-4.2887,-4.2887,-4.2741,-4.2511,-4.2239,-4.1931,-4.1696,-4.1411,0.0,0.0,-4.1311,-4.1311,-4.1311,-4.1311,-4.1311,-4.1311,-4.1311,-4.1311,-4.1311,-4.1311,-4.1311,-4.1311,-4.1311,-4.1311,-4.1219,-4.0749,-4.0226,-3.9664,-3.9076,-3.8501,-3.8044,-3.7926,-3.79,-3.79,-3.79,-3.79,-3.79,-3.79,-3.79,-3.79,-3.79,-3.79,-3.7756,-3.7273,-3.709,-3.6841,-3.6358,-3.5822,-3.543,-3.5312,-3.4881,-3.4541,-3.441,-3.416,-3.3937,-3.3725,-3.3471,-3.3283,-3.3124,-3.3124,-3.3124,-3.3124,-3.3124,-3.3124,-3.3124,-3.3124,-3.3124,-3.3124,-3.3124,-3.3124,-3.3124,-3.3124,-3.3144,-3.3552,-3.4033,-3.4177,-3.3051,-3.1914,-3.0019,-2.6065,0.0,0.0,-1.878,-1.7735,-1.7486,-1.7944,-1.8675,0.0,0.0,0.0,-2.9846,0.0,0.0,0.0,0.0,0.0,0.0,0.0,0.0,0.0,0.0,0.0,0.0,-4.3598,-4.3687,-4.3396,-4.2511,-4.2741,-4.2887,-4.2887,-4.2887,-4.2887,-4.2887,-4.2887,-4.2741,-4.2511,-4.2239,-4.1931,-4.1696,-4.1411,0.0,0.0,-4.1311,-4.1311,-4.1311,-4.1311,-4.1311,-4.1311,-4.1311,-4.1311,-4.1311,-4.1311,-4.1311,-4.1311,-4.1311,-4.1311,-4.1311,-4.1246,-4.0814,-4.0226,-3.9677,-3.9102,-3.8514,-3.8031,-3.79,-3.79,-3.79,-3.79,-3.79,-3.79,-3.79,-3.79,-3.79,-3.79,-3.7887,-3.7835,-3.7364,-3.6985,-3.6933,-3.641,-3.5848,-3.5365,-3.5247,-3.4999,-3.4463,-3.4008,-3.3725,-3.3713,-3.3356,-3.3124,-3.3124,-3.3124,-3.3124,-3.3124,-3.3124,-3.3124,-3.3124,-3.3124,-3.3124,-3.3124,-3.3124,-3.3124,-3.3124,-3.3124,-3.3345,-3.2319,-3.2947,-3.3182,-3.2346,-3.1065,-2.9114,-2.5764,0.0,-2.1132,-1.861,-1.7617,-1.7264,-1.7512,-1.8022,-1.9329,0.0,-2.3357,-2.609,-3.2035,0.0,0.0,0.0,0.0,0.0,0.0,0.0,0.0,0.0,0.0,0.0,-4.581,-4.4702,-4.3984,-4.3586,-4.3149,-4.2887,-4.2887,-4.2887,-4.2887,-4.2887,-4.2887,-4.2679,-4.2239,-4.2128,-4.1881,-4.1461,-4.1361,0.0,0.0,-4.1311,-4.1311,-4.1311,-4.1311,-4.1311,-4.1311,-4.1311,-4.1311,-4.1311,-4.1311,-4.1311,-4.1311,-4.1311,-4.1311,-4.1311,-4.1311,-4.0893,-4.0305,-3.9756,-3.9181,-3.8593,-3.8044,-3.79,-3.79,-3.79,-3.79,-3.79,-3.79,-3.79,-3.79,-3.79,-3.79,-3.79,-3.79,-3.7704,-3.7547,-3.7547,-3.7037,-3.6567,-3.6345,-3.6005,-3.5517,-3.4773,-3.4088,-3.3713,-3.3713,-3.3313,-3.3124,-3.3124,-3.3124,-3.3124,-3.3124,-3.3124,-3.3124,-3.3124,-3.3124,-3.3124,-3.3124,-3.3124,-3.3124,-3.3124,-3.342,-3.3684,-3.1063,-3.1993,-3.2555,-3.1941,-3.0555,-2.8512,0.0,-2.3054,-2.0806,-1.8336,-1.7499,-1.7199,-1.7199,-1.7552,-1.8532,-2.0662,-2.1755,-2.415,-2.9331,0.0,0.0,0.0,0.0,0.0,0.0,0.0,0.0,0.0,0.0,0.0,0.0,-4.6063,-4.4886,-4.4312,-4.3375,-4.2887,-4.2887,-4.2887,-4.2887,-4.2887,-4.2887,-4.2631,-4.2079,-4.2079,-4.1796,-4.1311,0.0,0.0,0.0,-4.1311,-4.1311,-4.1311,-4.1311,-4.1311,-4.1311,-4.1311,-4.1311,-4.1311,-4.1311,-4.1311,-4.1311,-4.1311,-4.1311,-4.1311,-4.1311,-4.1023,-4.0566,-4.0004,-3.9298,-3.8593,-3.8044,-3.79,-3.79,-3.79,-3.79,-3.79,-3.79,-3.79,-3.79,-3.79,-3.79,-3.79,-3.79,-3.79,-3.79,-3.79,-3.7547,-3.7207,-3.7024,-3.6632,-3.6061,-3.5314,-3.4641,-3.4041,-3.3624,-3.3313,-3.3124,-3.3124,-3.3124,-3.3124,-3.3124,-3.3124,-3.3124,-3.3124,-3.3124,-3.3156,-3.3319,-3.3319,-3.3407,-3.3571,-3.396,-3.4223,-2.9909,-3.1392,-3.2555,-3.1941,-3.0555,-2.8373,0.0,-2.2766,-2.0688,-1.78,-1.7199,-1.7199,-1.7199,-1.7212,-1.7787,-1.9538,-2.238,-2.541,-2.839,0.0,0.0,0.0,0.0,0.0,0.0,0.0,0.0,0.0,0.0,0.0,0.0,-4.7691,-4.63,-4.4359,-4.3375,-4.2887,-4.2887,-4.2887,-4.2887,-4.2887,-4.2887,-4.2631,-4.2079,-4.2079,-4.1796,0.0,0.0,0.0,0.0,-4.1311,-4.1311,-4.1311,-4.1311,-4.1311,-4.1311,-4.1311,-4.1311,-4.1311,-4.1311,-4.1311,-4.1311,-4.1311,-4.1311,-4.1311,-4.1311,-4.1311,-4.118,-4.0579,-3.9586,-3.8593,-3.8044,-3.79,-3.79,-3.79,-3.79,-3.79,-3.79,-3.79,-3.79,-3.79,-3.79,-3.79,-3.79,-3.79,-3.79,-3.79,-3.79,-3.7678,-3.709,-3.6998,-3.6763,-3.6162,-3.567,-3.4837,-3.353,-3.324,-3.3124,-3.3124,-3.3124,-3.3124,-3.3124,-3.3124,-3.3124,-3.3124,-3.3124,-3.3345,-3.3884,-3.3884,-3.4173,-3.4655,-3.4668,-3.4969,-2.5916,-2.6955,-2.7771,-2.6772,-2.5819,-2.4543,-2.2296,-2.1028,-1.9747,-1.763,-1.7199,-1.7199,-1.7199,-1.7413,-1.848,-2.1132,-2.3038,0.0,0.0,0.0,0.0,0.0,0.0,0.0,0.0,0.0,0.0,0.0,0.0,0.0,0.0,-4.7734,-4.6929,-4.63,-4.5358,-4.4869,-4.4869,-4.4186,-4.3871,-4.3871,-4.3197,-4.2741,-4.2351,-4.2177,0.0,0.0,0.0,0.0,0.0,-4.1311,-4.1311,-4.1311,-4.1311,-4.1311,-4.1311,-4.1311,-4.1311,-4.1311,-4.1311,-4.1311,-4.1311,-4.1311,-4.1311,-4.1311,-4.1311,-4.1311,-4.1115,-4.0135,-3.9311,-3.8593,-3.8044,-3.79,-3.79,-3.79,-3.79,-3.79,-3.79,-3.79,-3.79,-3.79,-3.79,-3.79,-3.79,-3.79,-3.79,-3.79,-3.79,-3.7835,-3.7639,-3.7625,-3.7345,-3.6579,-3.6232,-3.5513,-3.4331,-3.3851,-3.3633,-3.3633,-3.3633,-3.3809,-3.4186,-3.4198,-3.4198,-3.4198,-3.4198,-3.4286,-3.4462,-3.4462,-3.4705,-3.5245,-3.5245,-3.5579,-2.321,-2.4295,-2.4984,-2.4266,-2.3498,-2.2505,-2.1053,-2.0059,-1.9028,-1.7512,-1.7199,-1.7199,-1.7199,-1.7537,-1.8532,-2.0712,-2.2776,0.0,0.0,0.0,0.0,0.0,0.0,0.0,0.0,0.0,0.0,0.0,0.0,0.0,0.0,-4.8046,-4.7734,-4.7734,-4.6491,-4.5779,-4.5779,-4.5175,-4.4869,-4.4854,-4.428,-4.3823,-4.36,-4.3334,0.0,0.0,0.0,0.0,0.0,-4.1597,-4.1498,-4.1819,-4.1448,-4.1311,-4.1311,-4.1311,-4.1311,-4.1311,-4.1311,-4.1311,-4.1311,-4.1311,-4.1311,-4.1311,-4.1311,-4.1311,-4.1076,-3.9926,-3.9337,-3.8867,-3.8109,-3.79,-3.79,-3.79,-3.79,-3.79,-3.79,-3.79,-3.79,-3.79,-3.79,-3.79,-3.79,-3.79,-3.79,-3.79,-3.79,-3.79,-3.79,-3.79,-3.7723,-3.7209,-3.6825,-3.6211,-3.5314,-3.4591,-3.4211,-3.4211,-3.4211,-3.4361,-3.4713,-3.468,-3.468,-3.468,-3.468,-3.4781,-3.4994,-3.524,-3.5516,-3.5855,-3.5855,-3.6031,0.0,-2.2844,-2.3704,-2.3642,-2.2831,-2.1826,-2.0712,-1.9627,0.0,-1.7421,-1.7199,-1.7251,-1.7421,-1.7731,-1.8313,-1.9275,0.0,0.0,0.0,0.0,0.0,0.0,0.0,0.0,0.0,0.0,0.0,0.0,0.0,0.0,0.0,-4.862,-4.862,-4.862,-4.6929,-4.6003,-4.6003,-4.5913,-4.5913,-4.5913,-4.5824,-4.5689,-4.5403,-4.5115,0.0,0.0,0.0,0.0,0.0,-4.2199,-4.1967,-4.2695,-4.1683,-4.1311,-4.1311,-4.1311,-4.1311,-4.1311,-4.1311,-4.1311,-4.1311,-4.1311,-4.1311,-4.1311,-4.1311,-4.1311,-4.1076,-3.9926,-3.9612,-3.9351,-3.82,-3.79,-3.79,-3.79,-3.79,-3.79,-3.79,-3.79,-3.79,-3.79,-3.79,-3.79,-3.79,-3.79,-3.79,-3.79,-3.79,-3.79,-3.79,-3.79,-3.79,-3.7854,-3.7413,-3.689,-3.6365,-3.5363,-3.4776,-3.4776,-3.4776,-3.4801,-3.4839,-3.4839,-3.4839,-3.4839,-3.4839,-3.509,-3.5558,-3.6119,-3.6405,-3.6405,-3.6405,-3.6405,-1.827,0.0,-1.9917,-1.9041,-1.8963,-1.8911,0.0,-1.8153,-1.8074,-1.7356,-1.7199,-1.7748,-1.9549,-1.9831,-2.0886,-2.431,0.0,0.0,0.0,0.0,0.0,0.0,0.0,0.0,0.0,0.0,0.0,0.0,0.0,0.0,0.0,-4.862,-4.862,-4.862,-4.8172,-4.7946,-4.7946,-4.7248,-4.6886,-4.6842,-4.6137,-4.5779,-4.5689,-4.5207,-4.4978,0.0,0.0,0.0,-4.4219,-4.2937,-4.2612,-4.2695,-4.1683,-4.1311,-4.1311,-4.1311,-4.1311,-4.1311,-4.1311,-4.1311,-4.1311,-4.1311,-4.1311,-4.1311,-4.1311,-4.1311,-4.1076,-3.9926,-3.9612,-3.9351,-3.82,-3.79,-3.79,-3.79,-3.79,-3.79,-3.79,-3.79,-3.79,-3.79,-3.79,-3.79,-3.79,-3.79,-3.79,-3.79,-3.79,-3.79,-3.79,-3.79,-3.7808,-3.7611,-3.7307,-3.6964,-3.6625,-3.5793,-3.5307,-3.5307,-3.5307,-3.5542,-3.6003,-3.6015,-3.6015,-3.6015,-3.6015,-3.6044,-3.6169,-3.6342,-3.6405,-3.6405,-3.6405,-3.6405,-1.7199,-1.8231,-1.9159,-1.8545,-1.8636,-1.8793,-1.8466,-1.8022,-1.7655,-1.75,-1.7475,-1.8033,-1.9854,-2.0959,0.0,0.0,0.0,0.0,0.0,0.0,0.0,0.0,0.0,0.0,0.0,0.0,0.0,0.0,0.0,0.0,0.0,-4.862,-4.862,-4.862,-4.862,-4.862,-4.862,-4.8088,-4.7819,-4.7819,-4.7248,-4.6944,-4.6944,-4.6403,-4.6181,0.0,0.0,0.0,-4.5568,-4.4111,-4.3782,-4.405,-4.2563,-4.2016,-4.1918,-4.1448,-4.1311,-4.1311,-4.1311,-4.1311,-4.1311,-4.1311,-4.1311,-4.1311,-4.1311,-4.1311,-4.1128,-4.0226,-3.9795,-3.9403,-3.8501,-3.8083,-3.79,-3.79,-3.79,-3.79,-3.79,-3.79,-3.79,-3.79,-3.79,-3.79,-3.79,-3.79,-3.79,-3.79,-3.79,-3.79,-3.79,-3.79,-3.7808,-3.7505,-3.7261,-3.7015,-3.6709,-3.6222,-3.5918,-3.5918,-3.5918,-3.6056,-3.6405,-3.6405,-3.6405,-3.6405,-3.6405,-3.6405,-3.6405,-3.6405,-3.6405,-3.6405,-3.6405,-3.6405,-1.766,-1.9063,-2.0305,-1.9703,-1.9877,-2.0104,-1.9851,0.0,0.0,0.0,0.0,-1.8801,-2.0266,-2.2246,0.0,0.0,0.0,0.0,0.0,0.0,0.0,0.0,0.0,0.0,0.0,0.0,0.0,0.0,0.0,0.0,0.0,-4.862,-4.8578,-4.8578,-4.8537,-4.8537,-4.8537,-4.8563,-4.8563,-4.8537,-4.837,-4.8286,-4.8244,-4.7794,-4.7581,-4.7538,0.0,0.0,-4.7164,-4.5295,-4.5038,-4.5644,-4.3768,-4.3033,-4.2889,-4.1918,-4.1547,-4.1498,-4.1361,-4.1311,-4.1311,-4.1311,-4.1311,-4.1311,-4.1311,-4.1311,-4.1206,-4.0697,-4.0095,-3.9468,-3.8867,-3.8305,-3.79,-3.79,-3.79,-3.79,-3.79,-3.79,-3.79,-3.79,-3.79,-3.79,-3.79,-3.79,-3.79,-3.79,-3.79,-3.79,-3.79,-3.7854,-3.7749,-3.7459,-3.7214,-3.6922,-3.6675,-3.6499,-3.6405,-3.6405,-3.6405,-3.6405,-3.6405,-3.6405,-3.6405,-3.6405,-3.6405,-3.6405,-3.6405,-3.6405,-3.6405,-3.6405,-3.6405,-3.6405,-1.977,-2.1779,-2.2542,-1.9201,-2.0193,-2.1597,-2.0044,-1.9814,0.0,0.0,0.0,0.0,0.0,-2.5776,-2.7554,0.0,0.0,0.0,0.0,0.0,0.0,0.0,0.0,0.0,0.0,0.0,0.0,0.0,0.0,0.0,0.0,-4.862,-4.8537,-4.837,-4.8328,-4.8328,-4.8328,-4.8537,-4.8537,-4.8328,-4.8328,-4.8202,-4.8049,-4.7752,-4.7581,-4.7581,0.0,-4.7164,-4.7207,-4.6062,-4.5644,-4.5689,-4.4531,-4.4078,-4.3923,-4.2937,-4.2563,-4.2466,-4.1597,-4.1311,-4.1311,-4.1311,-4.1311,-4.1311,-4.1311,-4.1311,-4.1298,-4.1206,-4.0422,-3.9468,-3.8867,-3.8305,-3.79,-3.79,-3.79,-3.79,-3.79,-3.79,-3.79,-3.79,-3.79,-3.79,-3.79,-3.79,-3.79,-3.79,-3.79,-3.79,-3.79,-3.7703,-3.7459,-3.7201,-3.6909,-3.6675,-3.6452,-3.6405,-3.6405,-3.6405,-3.6405,-3.6405,-3.6405,-3.6405,-3.6405,-3.6405,-3.6405,-3.6405,-3.6405,-3.6405,-3.6405,-3.6405,-3.6405,-3.6405,-1.8938,-2.1282,-2.2946,-2.0896,-2.2658,-2.4756,-2.4259,-2.3607,-2.316,0.0,0.0,0.0,0.0,0.0,0.0,0.0,0.0,0.0,0.0,0.0,0.0,0.0,0.0,0.0,0.0,0.0,0.0,0.0,0.0,0.0,0.0,0.0,-4.8578,-4.8453,-4.837,-4.8286,-4.8286,-4.7919,-4.7935,-4.8286,-4.8034,-4.788,-4.7794,-4.7553,-4.7424,-4.7424,0.0,-4.7309,-4.7251,-4.6785,-4.6594,-4.6491,-4.5508,-4.5098,-4.4992,-4.397,-4.3259,-4.2744,-4.2284,-4.1769,-4.1311,-4.1311,-4.1311,-4.1311,-4.1311,-4.1311,-4.1311,-4.1311,-4.071,-3.9978,-3.9703,-3.9233,-3.8749,-3.841,-3.8344,-3.8266,-3.7965,-3.79,-3.79,-3.79,-3.79,-3.79,-3.79,-3.79,-3.79,-3.79,-3.79,-3.79,-3.79,-3.7808,-3.7564,-3.7155,-3.7015,-3.6781,-3.6452,-3.6405,-3.6405,-3.6405,-3.6405,-3.6405,-3.6405,-3.6405,-3.6405,-3.6405,-3.6405,-3.6405,-3.6405,-3.6405,-3.6405,-3.6405,-3.6405,-3.6405,-1.8529,-2.0741,-2.2988,-2.3241,-2.4988,-2.688,-2.7683,-2.6732,-2.5894,0.0,0.0,0.0,0.0,0.0,0.0,0.0,0.0,0.0,0.0,0.0,0.0,0.0,0.0,0.0,0.0,0.0,0.0,0.0,0.0,0.0,0.0,0.0,-4.8101,-4.7978,-4.7854,-4.7745,-4.7703,-4.6993,-4.7054,-4.7916,-4.7401,-4.7114,-4.7071,-4.6916,-4.692,-4.707,-4.707,-4.716,-4.7309,-4.7309,-4.7309,-4.7207,-4.6447,-4.6018,-4.5689,-4.4961,-4.4017,-4.3163,-4.3163,-4.2466,-4.1634,-4.1634,-4.1498,-4.1311,-4.1311,-4.1311,-4.1311,-4.1311,-4.0984,-4.0592,-4.0448,-4.0017,-3.9494,-3.9037,-3.8919,-3.8762,-3.8214,-3.8096,-3.8057,-3.7926,-3.79,-3.79,-3.79,-3.79,-3.79,-3.79,-3.79,-3.79,-3.79,-3.7854,-3.7611,-3.7155,-3.7062,-3.6828,-3.6452,-3.6405,-3.6405,-3.6405,-3.6405,-3.6405,-3.6405,-3.6405,-3.6405,-3.6405,-3.6405,-3.6405,-3.6405,-3.6405,-3.6405,-3.6405,-3.6405,-3.6405,-2.0641,-2.1916,-2.3304,-2.5693,-2.5998,-2.607,-2.7489,-2.7122,-2.7036,-2.8954,0.0,0.0,0.0,0.0,0.0,0.0,0.0,0.0,0.0,0.0,0.0,0.0,0.0,0.0,0.0,0.0,0.0,0.0,0.0,0.0,0.0,0.0,0.0,-4.6194,-4.6153,-4.6087,-4.5882,-4.5575,-4.586,-4.6701,-4.6128,-4.5718,-4.548,-4.5439,-4.5783,-4.6354,-4.6354,-4.6741,-4.7309,-4.7309,-4.7309,-4.7309,-4.7207,-4.6638,-4.5779,-4.5734,-4.5052,-4.4172,-4.4172,-4.3545,-4.2695,-4.2695,-4.2052,-4.1311,-4.1311,-4.1311,-4.1311,-4.1311,-4.1285,-4.1115,-4.0566,-4.0017,-3.9599,-3.956,-3.9547,-3.9377,-3.8776,-3.8658,-3.8501,-3.8004,-3.79,-3.79,-3.79,-3.79,-3.79,-3.79,-3.79,-3.79,-3.79,-3.7703,-3.7413,-3.7108,-3.6862,-3.6628,-3.6405,-3.6405,-3.6405,-3.6405,-3.6405,-3.6405,-3.6405,-3.6405,-3.6405,-3.6405,-3.6405,-3.6405,-3.6405,-3.6405,-3.6405,-3.6405,-3.6405,-3.6405,-1.9715,-2.188,-2.4133,-2.5098,-2.6737,-2.8435,-2.9807,-3.0842,-3.1882,-3.3201,-3.4,0.0,0.0,0.0,0.0,0.0,0.0,0.0,0.0,0.0,0.0,0.0,0.0,0.0,0.0,0.0,0.0,0.0,0.0,0.0,0.0,0.0,0.0,-4.6364,-4.6244,-4.6138,-4.6057,-4.5253,-4.5041,-4.5363,-4.5436,-4.5387,-4.5289,-4.5289,-4.5439,-4.5678,-4.5678,-4.5828,-4.6052,-4.6052,-4.6052,-4.6052,-4.6052,-4.6079,-4.6134,-4.6134,-4.5726,-4.5235,-4.5235,-4.4577,-4.3735,-4.3735,-4.3464,-4.3191,-4.3191,-4.2709,-4.2235,-4.2235,-4.1782,-4.1259,-4.1036,-4.0827,-4.0579,-4.02,-4.0109,-3.9847,-3.8919,-3.871,-3.8553,-3.8004,-3.79,-3.79,-3.79,-3.79,-3.79,-3.79,-3.79,-3.79,-3.79,-3.7808,-3.7657,-3.7366,-3.6968,-3.6628,-3.6405,-3.6405,-3.6405,-3.6405,-3.6405,-3.6405,-3.6405,-3.6405,-3.6405,-3.6405,-3.6405,-3.6405,-3.6405,-3.6405,-3.6405,-3.6405,-3.6405,-3.6405,-1.9619,-2.1807,-2.4186,-2.5023,-2.716,-2.9585,-3.1659,-3.32,-3.4535,-3.5808,-3.6446,-3.6851,-3.6961,0.0,0.0,0.0,0.0,0.0,0.0,0.0,0.0,0.0,0.0,0.0,0.0,0.0,0.0,0.0,0.0,0.0,0.0,0.0,0.0,0.0,-4.5736,-4.5617,-4.5458,-4.4749,-4.4363,-4.4188,-4.4588,-4.4758,-4.4676,-4.4676,-4.4781,-4.499,-4.499,-4.5095,-4.5289,-4.5289,-4.5289,-4.5289,-4.5289,-4.5589,-4.5992,-4.5992,-4.5864,-4.5639,-4.5639,-4.5121,-4.4478,-4.4478,-4.439,-4.4312,-4.4312,-4.3829,-4.3259,-4.3259,-4.2757,-4.215,-4.1868,-4.1547,-4.1206,-4.0788,-4.0697,-4.0435,-3.9455,-3.9115,-3.8828,-3.8266,-3.8018,-3.79,-3.79,-3.79,-3.79,-3.79,-3.79,-3.79,-3.79,-3.79,-3.7749,-3.7413,-3.6968,-3.6628,-3.6405,-3.6405,-3.6405,-3.6405,-3.6405,-3.6405,-3.6405,-3.6405,-3.6405,-3.6405,-3.6405,-3.6405,-3.6405,-3.6405,-3.6405,-3.6405,-3.6405,-3.6405,-2.0967,-2.1893,-2.3362,-2.5967,0.0,0.0,-3.2661,-3.3514,-3.4145,-3.629,-3.6877,-3.7319,-3.8335,0.0,0.0,0.0,0.0,0.0,0.0,0.0,0.0,0.0,0.0,0.0,0.0,0.0,0.0,0.0,0.0,0.0,0.0,0.0,0.0,0.0,-4.4281,-4.4089,-4.3729,-4.391,-4.3778,-4.329,-4.3557,-4.3557,-4.329,-4.329,-4.3648,-4.4302,-4.4302,-4.4676,-4.5274,-4.5274,-4.5274,-4.5274,-4.5274,-4.5274,-4.5289,-4.5289,-4.5289,-4.5289,-4.5289,-4.5088,-4.4821,-4.4821,-4.4569,-4.4298,-4.4298,-4.4298,-4.4298,-4.4298,-4.4312,-4.4078,-4.3081,-4.2101,-4.1311,-4.1311,-4.1311,-4.1154,-4.054,-3.9991,-3.9429,-3.8828,-3.8279,-3.79,-3.79,-3.79,-3.79,-3.79,-3.79,-3.79,-3.79,-3.79,-3.7703,-3.7168,-3.6862,-3.6628,-3.6405,-3.6405,-3.6405,-3.6405,-3.6405,-3.6405,-3.6405,-3.6405,-3.6405,-3.6405,-3.6405,-3.6405,-3.6405,-3.6405,-3.6405,-3.6405,-3.6405,-3.6405,-2.0607,-2.3076,0.0,-2.6393,0.0,0.0,0.0,-3.5112,0.0,0.0,-3.8876,-3.8852,-3.9152,0.0,0.0,0.0,0.0,0.0,0.0,0.0,0.0,0.0,0.0,0.0,0.0,0.0,0.0,0.0,0.0,0.0,0.0,0.0,0.0,0.0,-4.4511,-4.4396,-4.4127,-4.4026,-4.3871,-4.3596,-4.3463,-4.3384,-4.329,-4.329,-4.3409,-4.3589,-4.3589,-4.3693,-4.3873,-4.3873,-4.3873,-4.3873,-4.3873,-4.4197,-4.4601,-4.4601,-4.49,-4.5289,-4.5289,-4.5242,-4.5139,-4.5139,-4.5088,-4.5066,-4.5551,-4.5214,-4.4752,-4.5242,-4.4869,-4.4219,-4.3923,-4.3654,-4.3047,-4.1647,-4.1311,-4.1154,-4.054,-3.9991,-3.9429,-3.8828,-3.8279,-3.79,-3.79,-3.79,-3.79,-3.79,-3.79,-3.79,-3.79,-3.7749,-3.7505,-3.7155,-3.6862,-3.6628,-3.6405,-3.6405,-3.6405,-3.6405,-3.6405,-3.6405,-3.6405,-3.6405,-3.6405,-3.6405,-3.6405,-3.6405,-3.6405,-3.6405,-3.6405,-3.6405,-3.6405,-3.6405,-2.2183,-2.4777,0.0,-2.8622,-3.1501,-3.4394,-3.5835,0.0,0.0,0.0,0.0,0.0,0.0,0.0,0.0,0.0,0.0,0.0,0.0,0.0,0.0,0.0,0.0,0.0,0.0,0.0,0.0,0.0,0.0,0.0,0.0,0.0,0.0,0.0,-4.4473,-4.4358,-4.405,-4.4026,-4.3832,-4.3557,-4.3503,-4.3384,-4.329,-4.329,-4.329,-4.329,-4.329,-4.329,-4.329,-4.329,-4.329,-4.329,-4.329,-4.3544,-4.3888,-4.3888,-4.4182,-4.4511,-4.4511,-4.4691,-4.49,-4.49,-4.508,-4.5379,-4.5783,-4.5493,-4.5066,-4.5506,-4.536,-4.5012,-4.459,-4.4715,-4.4392,-4.2382,-4.1918,-4.1677,-4.0939,-4.0161,-3.9494,-3.9141,-3.8436,-3.79,-3.79,-3.79,-3.79,-3.79,-3.79,-3.79,-3.79,-3.7657,-3.7413,-3.7108,-3.6862,-3.6628,-3.6405,-3.6405,-3.6405,-3.6405,-3.6405,-3.6405,-3.6405,-3.6405,-3.6405,-3.6405,-3.6405,-3.6405,-3.6405,-3.6405,-3.6405,-3.6405,-3.6405,-3.6405,-2.4603,-2.6507,0.0,-3.1614,-3.2884,0.0,-3.7478,-3.8797,-3.9486,0.0,0.0,0.0,0.0,0.0,0.0,0.0,0.0,0.0,0.0,0.0,0.0,0.0,0.0,0.0,0.0,0.0,0.0,0.0,0.0,0.0,0.0,0.0,0.0,-4.4136,-4.4136,-4.3906,-4.3509,-4.3689,-4.3557,-4.311,-4.3377,-4.3407,-4.32,-4.326,-4.329,-4.329,-4.329,-4.329,-4.329,-4.329,-4.329,-4.329,-4.329,-4.329,-4.329,-4.329,-4.329,-4.329,-4.329,-4.3678,-4.4227,-4.4227,-4.4631,-4.5125,-4.5185,-4.5214,-4.5214,-4.5274,-4.5738,-4.6005,-4.5069,-4.5317,-4.5275,-4.3332,-4.2889,-4.2695,-4.1716,-4.0614,-3.986,-3.9759,-3.8912,-3.8161,-3.8161,-3.8161,-3.8116,-3.8024,-3.7946,-3.79,-3.79,-3.7657,-3.7366,-3.7108,-3.6815,-3.6581,-3.6405,-3.6405,-3.6405,-3.6405,-3.6405,-3.6405,-3.6405,-3.6405,-3.6405,-3.6405,-3.6405,-3.6405,-3.6405,-3.6405,-3.6405,-3.6405,-3.6405,-3.6405,-2.3316,-2.5788,0.0,0.0,-3.397,-3.654,-3.8085,-3.8964,0.0,0.0,0.0,0.0,0.0,0.0,0.0,0.0,0.0,0.0,0.0,0.0,0.0,0.0,0.0,0.0,0.0,0.0,0.0,0.0,0.0,0.0,0.0,0.0,0.0,-4.2744,-4.2744,-4.2558,-4.213,-4.2168,-4.2055,0.0,-4.188,-4.2149,-4.262,-4.309,-4.329,-4.329,-4.329,-4.329,-4.329,-4.329,-4.329,-4.329,-4.329,-4.329,-4.329,-4.329,-4.329,-4.329,-4.329,-4.3379,-4.3499,-4.3499,-4.3604,-4.3813,-4.4362,-4.4526,-4.4631,-4.5155,-4.5394,-4.5472,-4.5248,-4.5295,-4.5088,-4.3876,-4.3779,-4.3751,-4.3045,-4.2367,-4.1716,-4.1187,-4.0526,-4.0014,-4.0014,-4.0014,-3.9796,-3.9046,-3.8349,-3.79,-3.79,-3.7505,-3.7155,-3.7121,-3.6734,-3.6452,-3.6405,-3.6405,-3.6405,-3.6405,-3.6405,-3.6405,-3.6405,-3.6405,-3.6405,-3.6405,-3.6405,-3.6405,-3.6405,-3.6405,-3.6405,-3.6405,-3.6405,-3.6405,-2.3195,0.0,0.0,-3.2719,0.0,-3.7197,-3.7874,0.0,0.0,0.0,0.0,0.0,0.0,0.0,0.0,0.0,0.0,0.0,0.0,0.0,0.0,0.0,0.0,0.0,0.0,0.0,0.0,0.0,0.0,0.0,0.0,-4.2602,-4.2529,-4.2316,-4.2316,-4.2095,-4.1686,-4.1686,-4.1611,-4.1422,-4.1422,-4.1602,-4.1961,-4.2895,-4.329,-4.329,-4.329,-4.329,-4.329,-4.329,-4.329,-4.329,-4.329,-4.329,-4.329,-4.329,-4.329,-4.329,-4.329,-4.329,-4.329,-4.329,-4.329,-4.3364,-4.3708,-4.3798,-4.3873,-4.4257,-4.4586,-4.4825,-4.4825,-4.5065,-4.5165,-4.4632,-4.4298,-4.3828,-4.3006,-4.2413,-4.1894,-4.1585,-4.0996,-4.0603,-4.0603,-4.0246,-3.9768,-3.9285,-3.8472,-3.79,-3.79,-3.7551,-3.7261,-3.7108,-3.6781,-3.6499,-3.6405,-3.6405,-3.6405,-3.6405,-3.6405,-3.6405,-3.6405,-3.6405,-3.6405,-3.6405,-3.6405,-3.6405,-3.6405,-3.6405,-3.6405,-3.6405,-3.6405,-3.6405,-2.2975,0.0,-2.9871,-3.4455,-3.6216,0.0,0.0,0.0,0.0,0.0,0.0,0.0,0.0,0.0,0.0,0.0,0.0,0.0,0.0,0.0,0.0,0.0,0.0,0.0,0.0,0.0,0.0,0.0,0.0,0.0,-4.2248,-4.2248,-4.214,-4.1964,-4.1964,-4.1797,-4.1406,-4.1406,-4.1332,-4.1115,-4.1197,-4.1205,-4.125,-4.2447,-4.3021,-4.3125,-4.3245,-4.329,-4.329,-4.329,-4.329,-4.329,-4.329,-4.329,-4.329,-4.329,-4.329,-4.329,-4.329,-4.329,-4.329,-4.329,-4.329,-4.329,-4.329,-4.329,-4.329,-4.329,-4.3678,-4.4152,-4.4152,-4.4541,-4.4945,-4.4945,-4.4293,-4.353,-4.2777,-4.2291,-4.1951,-4.1852,-4.1398,-4.1071,-4.1071,-4.0159,-3.9417,-3.9417,-3.8562,-3.79,-3.79,-3.7657,-3.7413,-3.7201,-3.6909,-3.6628,-3.6452,-3.6405,-3.6405,-3.6405,-3.6405,-3.6405,-3.6405,-3.6405,-3.6405,-3.6405,-3.6405,-3.6405,-3.6405,-3.6405,-3.6405,-3.6405,-3.6405,-3.6405,0.0,0.0,-3.0203,0.0,-3.5106,0.0,0.0,0.0,0.0,0.0,0.0,0.0,0.0,0.0,0.0,0.0,0.0,0.0,0.0,0.0,0.0,0.0,0.0,0.0,0.0,0.0,0.0,0.0,0.0,0.0,-4.0766,-4.0766,-4.0712,-4.0572,-4.0572,-4.0481,-4.0233,-4.0233,-4.0126,-3.9932,-4.0321,-4.0531,-4.0561,-4.1309,-4.1953,-4.256,-4.309,-4.329,-4.329,-4.329,-4.329,-4.329,-4.329,-4.329,-4.329,-4.329,-4.329,-4.329,-4.329,-4.329,-4.329,-4.329,-4.329,-4.329,-4.329,-4.329,-4.329,-4.329,-4.3349,-4.3424,-4.3424,-4.3484,-4.3559,-4.3559,-4.3464,-4.3492,-4.3935,-4.3994,-4.3757,-4.3152,-4.2975,-4.2941,-4.2941,-4.1532,-4.0418,-4.0418,-3.8997,-3.79,-3.79,-3.7657,-3.7505,-3.7459,-3.7015,-3.6675,-3.6675,-3.6499,-3.6405,-3.6405,-3.6405,-3.6405,-3.6405,-3.6405,-3.6405,-3.6405,-3.6405,-3.6405,-3.6405,-3.6405,-3.6405,-3.6405,-3.6405,-3.6405,-2.1929,-2.5615,-2.9345,0.0,0.0,0.0,0.0,0.0,0.0,0.0,0.0,0.0,0.0,0.0,0.0,0.0,0.0,0.0,0.0,0.0,0.0,0.0,0.0,0.0,0.0,0.0,0.0,0.0,0.0,-4.0489,-4.0489,-4.0489,-4.0455,-4.0401,-4.0401,-4.0331,-4.0172,-4.0172,-4.0066,-3.9854,-4.0085,-4.0185,-4.0215,-4.0863,-4.1415,-4.1886,-4.2506,-4.2791,-4.2821,-4.314,-4.329,-4.329,-4.329,-4.329,-4.329,-4.329,-4.329,-4.329,-4.329,-4.329,-4.329,-4.329,-4.329,-4.329,-4.329,-4.329,-4.329,-4.329,-4.329,-4.329,-4.329,-4.329,-4.329,-4.329,-4.329,-4.3364,-4.3663,-4.3723,-4.3633,-4.3349,-4.329,-4.329,-4.329,-4.1796,-4.0603,-4.0603,-3.9042,-3.79,-3.79,-3.7808,-3.7657,-3.7505,-3.7307,-3.7015,-3.6722,-3.6628,-3.6546,-3.6405,-3.6405,-3.6405,-3.6405,-3.6405,-3.6405,-3.6405,-3.6405,-3.6405,-3.6405,-3.6405,-3.6405,-3.6405,-3.6405,-3.6405,0.0,0.0,-2.7085,0.0,0.0,0.0,0.0,0.0,0.0,0.0,0.0,0.0,0.0,0.0,0.0,0.0,0.0,0.0,0.0,0.0,0.0,0.0,0.0,0.0,0.0,0.0,0.0,0.0,0.0,-4.0489,-4.0489,-4.0489,-4.0489,-4.0489,-4.0489,-4.0455,-4.0331,-4.0312,-4.0242,-4.0081,-4.0031,-4.0011,-4.0026,-4.0512,-4.0867,-4.1085,-4.1896,-4.2218,-4.2201,-4.2845,-4.309,-4.3105,-4.323,-4.329,-4.329,-4.329,-4.329,-4.329,-4.329,-4.329,-4.329,-4.329,-4.329,-4.329,-4.329,-4.329,-4.329,-4.329,-4.329,-4.329,-4.329,-4.329,-4.329,-4.329,-4.329,-4.329,-4.329,-4.329,-4.329,-4.329,-4.329,-4.329,-4.329,-4.1796,-4.0603,-4.0603,-3.9163,-3.8057,-3.7926,-3.8018,-3.7951,-3.7624,-3.7459,-3.7261,-3.6815,-3.6675,-3.6534,-3.6405,-3.6405,-3.6405,-3.6405,-3.6405,-3.6405,-3.6405,-3.6405,-3.6405,-3.6405,-3.6405,-3.6405,-3.6405,-3.6405,-3.6405,0.0,-2.144,0.0,0.0,0.0,0.0,0.0,0.0,0.0,0.0,0.0,0.0,0.0,0.0,0.0,0.0,0.0,0.0,0.0,0.0,0.0,0.0,0.0,0.0,0.0,0.0,0.0,0.0,0.0,-4.0489,-4.0489,-4.0489,-4.0489,-4.0489,-4.0489,-4.0505,-4.0489,-4.0366,-4.0312,-4.0277,-4.0101,-4.0011,-4.0011,-4.0041,-4.0071,-4.0142,-4.1401,-4.1738,-4.1512,-4.231,-4.2541,-4.2515,-4.309,-4.329,-4.329,-4.329,-4.329,-4.329,-4.329,-4.329,-4.329,-4.329,-4.329,-4.329,-4.329,-4.329,-4.329,-4.329,-4.329,-4.329,-4.329,-4.329,-4.329,-4.329,-4.329,-4.329,-4.329,-4.329,-4.329,-4.329,-4.329,-4.329,-4.329,-4.1796,-4.0603,-4.0603,-3.9487,-3.8488,-3.7965,-3.8344,-3.8475,-3.7965,-3.7413,-3.7108,-3.7062,-3.6687,-3.6405,-3.6405,-3.6405,-3.6405,-3.6405,-3.6405,-3.6405,-3.6405,-3.6405,-3.6405,-3.6405,-3.6405,-3.6405,-3.6405,-3.6405,-3.6405,0.0,0.0,0.0,0.0,0.0,0.0,0.0,0.0,0.0,0.0,0.0,0.0,0.0,0.0,0.0,0.0,0.0,0.0,0.0,0.0,0.0,0.0,0.0,0.0,0.0,0.0,0.0,0.0,0.0,0.0,-3.9231,-3.9231,-3.9231,-3.9231,-3.9231,-3.9413,-3.9844,-4.0255,-4.0436,-4.0436,-4.0277,-4.0207,-4.0172,-4.0066,-3.9925,-3.9833,-4.041,-4.0792,-4.1009,-4.161,-4.2044,-4.2425,-4.2626,-4.297,-4.329,-4.329,-4.329,-4.329,-4.329,-4.329,-4.329,-4.329,-4.329,-4.329,-4.329,-4.329,-4.329,-4.329,-4.329,-4.329,-4.329,-4.329,-4.329,-4.329,-4.329,-4.329,-4.329,-4.329,-4.329,-4.329,-4.329,-4.329,-4.329,-4.1796,-4.0603,-4.0603,-3.9204,-3.8122,-3.7926,-3.807,-3.8122,-3.7926,-3.7551,-3.7307,-3.7108,-3.6769,-3.6534,-3.6405,-3.6405,-3.6405,-3.6405,-3.6405,-3.6405,-3.6405,-3.6405,-3.6405,-3.6405,-3.6405,-3.6405,-3.6405,-3.6405,-3.6405,-1.7908,0.0,0.0,0.0,0.0,0.0,0.0,0.0,0.0,0.0,0.0,0.0,0.0,0.0,0.0,0.0,0.0,0.0,0.0,0.0,0.0,0.0,0.0,0.0,0.0,0.0,0.0,0.0,0.0,0.0,-3.8508,-3.8508,-3.8508,-3.8508,-3.8508,-3.8723,-3.9136,-3.9631,-3.992,-4.0151,-4.0063,-4.0151,-4.0366,-4.0226,-4.0086,-3.9965,-4.0051,-4.0167,-4.0332,-4.092,-4.1385,-4.1782,-4.2231,-4.2626,-4.303,-4.3215,-4.329,-4.329,-4.329,-4.329,-4.329,-4.329,-4.329,-4.329,-4.329,-4.329,-4.329,-4.329,-4.329,-4.329,-4.329,-4.329,-4.329,-4.329,-4.329,-4.329,-4.329,-4.329,-4.329,-4.329,-4.329,-4.329,-4.329,-4.2058,-4.1071,-4.1071,-3.968,-3.8588,-3.8376,-3.8228,-3.8109,-3.7926,-3.7657,-3.74,-3.7108,-3.6862,-3.6628,-3.6405,-3.6405,-3.6405,-3.6405,-3.6405,-3.6405,-3.6405,-3.6405,-3.6405,-3.6405,-3.6405,-3.6405,-3.6405,-3.6405,-3.6405,0.0,0.0,0.0,0.0,0.0,0.0,0.0,0.0,0.0,0.0,0.0,0.0,0.0,0.0,0.0,0.0,0.0,0.0,0.0,0.0,0.0,0.0,0.0,0.0,0.0,0.0,0.0,0.0,0.0,-3.8446,-3.8446,-3.8446,-3.8446,-3.8446,-3.8477,-3.8477,-3.8477,-3.8492,-3.8846,-3.9459,-3.9444,-3.9813,-4.0459,-4.0459,-4.0474,-4.0489,-4.0347,-3.996,-3.9469,-4.0317,-4.0551,-4.0531,-4.1841,-4.2351,-4.2455,-4.306,-4.326,-4.3275,-4.329,-4.329,-4.329,-4.329,-4.329,-4.329,-4.329,-4.329,-4.329,-4.329,-4.329,-4.329,-4.329,-4.329,-4.329,-4.329,-4.329,-4.329,-4.329,-4.329,-4.329,-4.329,-4.329,-4.329,-4.329,-4.2578,-4.199,-4.199,-4.0906,-3.9843,-3.9278,-3.8891,-3.8488,-3.7965,-3.7657,-3.74,-3.7108,-3.6862,-3.6628,-3.6405,-3.6405,-3.6405,-3.6405,-3.6405,-3.6405,-3.6405,-3.6405,-3.6405,-3.6405,-3.6405,-3.6405,-3.6405,-3.6405,-3.6405,-1.7564,0.0,0.0,0.0,0.0,0.0,0.0,0.0,0.0,0.0,0.0,0.0,0.0,0.0,0.0,0.0,0.0,0.0,0.0,0.0,0.0,0.0,0.0,0.0,0.0,0.0,0.0,0.0,-3.7046,-3.7046,-3.7046,-3.7046,-3.7046,-3.7046,-3.7523,-3.7784,-3.7784,-3.8262,-3.86,-3.8785,-3.8637,-3.8907,-3.9566,-3.9459,-3.968,-4.0137,-4.0101,-3.9996,-3.9833,-4.0086,-4.0362,-4.0648,-4.1009,-4.137,-4.1767,-4.2425,-4.2626,-4.2701,-4.3125,-4.329,-4.329,-4.329,-4.329,-4.329,-4.329,-4.329,-4.329,-4.329,-4.329,-4.329,-4.329,-4.329,-4.329,-4.329,-4.329,-4.329,-4.329,-4.329,-4.329,-4.329,-4.329,-4.329,-4.329,-4.2578,-4.199,-4.199,-4.0529,-3.94,-3.9224,-3.8559,-3.807,-3.7926,-3.7657,-3.7459,-3.7413,-3.6968,-3.6675,-3.6628,-3.6499,-3.6405,-3.6405,-3.6405,-3.6405,-3.6405,-3.6405,-3.6405,-3.6405,-3.6405,-3.6405,-3.6405,-3.6405,-3.6405,-1.8371,-1.8897,0.0,0.0,0.0,0.0,0.0,0.0,0.0,0.0,0.0,0.0,0.0,0.0,0.0,0.0,0.0,0.0,0.0,0.0,0.0,0.0,0.0,0.0,0.0,0.0,0.0,-3.6492,-3.6492,-3.6492,-3.6492,-3.6492,-3.6492,-3.6492,-3.6876,-3.7076,-3.7076,-3.7477,-3.7815,-3.8092,-3.7979,-3.8251,-3.891,-3.913,-3.9379,-3.9675,-4.0034,-4.0172,-4.0137,-4.0137,-4.0188,-4.0284,-4.0497,-4.0733,-4.1055,-4.1752,-4.2171,-4.2455,-4.2791,-4.3105,-4.329,-4.329,-4.329,-4.329,-4.329,-4.329,-4.329,-4.329,-4.329,-4.329,-4.329,-4.329,-4.329,-4.329,-4.329,-4.329,-4.329,-4.329,-4.329,-4.329,-4.329,-4.329,-4.329,-4.2875,-4.2537,-4.2537,-4.1281,-4.0375,-4.0375,-3.9237,-3.8427,-3.8427,-3.7998,-3.7611,-3.7505,-3.7108,-3.6815,-3.6709,-3.6499,-3.6405,-3.6405,-3.6405,-3.6405,-3.6405,-3.6405,-3.6405,-3.6405,-3.6405,-3.6405,-3.6405,-3.6405,-3.6405,-1.9585,-1.9735,-2.0486,-2.1455,0.0,0.0,-2.3061,-2.3351,0.0,0.0,0.0,0.0,0.0,0.0,0.0,0.0,0.0,0.0,0.0,0.0,0.0,0.0,0.0,0.0,0.0,-3.6492,-3.6492,-3.6492,-3.6492,-3.6492,-3.6492,-3.6492,-3.6492,-3.6492,-3.6492,-3.6492,-3.6492,-3.6492,-3.6799,-3.7384,-3.7384,-3.7738,-3.8415,-3.9016,-3.9253,-3.9287,-4.0036,-4.0359,-4.0312,-4.0312,-4.0086,-3.9777,-4.0162,-4.0329,-4.0367,-4.1025,-4.1677,-4.2201,-4.2351,-4.2746,-4.32,-4.3275,-4.329,-4.329,-4.329,-4.329,-4.329,-4.329,-4.329,-4.329,-4.329,-4.329,-4.329,-4.329,-4.329,-4.329,-4.329,-4.329,-4.329,-4.329,-4.329,-4.329,-4.329,-4.329,-4.329,-4.329,-4.2578,-4.1949,-4.1867,-4.0289,-3.9166,-3.9077,-3.8349,-3.7808,-3.7551,-3.7261,-3.7015,-3.6769,-3.6546,-3.6405,-3.6405,-3.6405,-3.6405,-3.6405,-3.6405,-3.6405,-3.6405,-3.6405,-3.6405,-3.6405,-3.6405,-3.6405,-2.2918,-2.3125,-2.3319,-2.2024,0.0,0.0,-2.1216,-2.1825,0.0,0.0,0.0,0.0,0.0,0.0,0.0,0.0,0.0,0.0,0.0,0.0,0.0,0.0,0.0,0.0,0.0,-3.6492,-3.6492,-3.6492,-3.6492,-3.6492,-3.6492,-3.6492,-3.6492,-3.6492,-3.6492,-3.6492,-3.6492,-3.6492,-3.6553,-3.6692,-3.6692,-3.7046,-3.7707,-3.7831,-3.846,-3.9456,-3.9628,-3.9997,-4.0455,-4.0331,-4.0172,-3.994,-3.9868,-3.9748,-3.9694,-4.0352,-4.0666,-4.0935,-4.2036,-4.2485,-4.2641,-4.3125,-4.329,-4.329,-4.329,-4.329,-4.329,-4.329,-4.329,-4.329,-4.329,-4.329,-4.329,-4.329,-4.329,-4.329,-4.329,-4.329,-4.329,-4.329,-4.329,-4.329,-4.329,-4.329,-4.329,-4.329,-4.2578,-4.1728,-4.0986,-3.9899,-3.8912,-3.8226,-3.7979,-3.7854,-3.7808,-3.7366,-3.7062,-3.7015,-3.664,-3.6405,-3.6405,-3.6405,-3.6405,-3.6405,-3.6405,-3.6405,-3.6405,-3.6405,-3.6405,-3.6405,-3.6405,-3.6405,-2.4522,-2.4335,-2.4455,-2.3804,0.0,0.0,0.0,0.0,0.0,0.0,0.0,0.0,0.0,0.0,0.0,0.0,0.0,0.0,0.0,0.0,0.0,0.0,0.0,0.0,0.0,-3.5984,-3.6122,-3.6461,-3.6492,-3.6492,-3.6492,-3.6492,-3.6492,-3.6492,-3.6492,-3.6492,-3.6492,-3.6492,-3.6492,-3.6492,-3.6492,-3.6676,-3.7015,-3.7353,-3.7797,-3.8407,-3.9149,-3.9588,-3.9753,-4.0034,-4.0031,-3.9839,-3.9732,-3.9589,-3.9454,-3.9783,-4.0113,-4.0502,-4.116,-4.1632,-4.2021,-4.2641,-4.2851,-4.291,-4.32,-4.329,-4.329,-4.329,-4.329,-4.329,-4.329,-4.329,-4.329,-4.329,-4.329,-4.329,-4.329,-4.329,-4.329,-4.329,-4.329,-4.329,-4.329,-4.329,-4.329,-4.329,-4.2915,-4.2319,-4.1421,-4.0461,-3.9563,-3.8639,-3.8148,-3.79,-3.79,-3.7505,-3.7261,-3.7108,-3.6769,-3.6499,-3.6405,-3.6405,-3.6405,-3.6405,-3.6405,-3.6405,-3.6405,-3.6405,-3.6405,-3.6405,-3.6405,-3.6405,0.0,0.0,0.0,0.0,0.0,-2.4844,0.0,0.0,0.0,-2.4248,0.0,0.0,0.0,0.0,0.0,0.0,0.0,0.0,0.0,0.0,0.0,0.0,0.0,0.0,0.0,-3.4783,-3.5091,-3.603,-3.5861,-3.5876,-3.6276,-3.6415,-3.6492,-3.6492,-3.6492,-3.6492,-3.6492,-3.6492,-3.6492,-3.6492,-3.6492,-3.6492,-3.6507,-3.7061,-3.7305,-3.7345,-3.858,-3.9091,-3.9074,-3.9606,-3.9804,-3.9696,-3.9661,-3.9553,-3.9388,-3.9388,-3.9753,-4.0232,-4.0352,-4.0741,-4.1332,-4.1991,-4.2291,-4.2515,-4.3135,-4.329,-4.329,-4.329,-4.329,-4.329,-4.329,-4.329,-4.329,-4.329,-4.329,-4.329,-4.329,-4.329,-4.329,-4.329,-4.329,-4.329,-4.329,-4.329,-4.329,-4.329,-4.329,-4.2996,-4.2114,-4.1338,-4.0418,-3.9329,-3.8549,-3.807,-3.79,-3.7657,-3.7413,-3.7201,-3.6862,-3.6628,-3.6452,-3.6405,-3.6405,-3.6405,-3.6405,-3.6405,-3.6405,-3.6405,-3.6405,-3.6405,-3.6405,-3.6405,0.0,0.0,0.0,0.0,-2.7911,0.0,0.0,0.0,-2.4125,-2.2889,0.0,0.0,0.0,0.0,0.0,0.0,0.0,0.0,0.0,0.0,0.0,0.0,0.0,0.0,0.0,0.0,-3.2619,-3.4597,-3.3525,-3.3604,-3.5491,-3.6168,-3.6492,-3.6492,-3.6492,-3.6492,-3.6492,-3.6492,-3.6492,-3.6492,-3.6492,-3.6492,-3.6492,-3.6569,-3.6938,-3.7475,-3.7661,-3.8269,-3.9188,-3.9264,-3.9454,-3.9681,-3.9517,-3.9409,-3.9388,-3.9388,-3.9433,-3.9619,-4.0202,-4.0442,-4.0621,-4.128,-4.1931,-4.2515,-4.3135,-4.329,-4.329,-4.329,-4.329,-4.329,-4.329,-4.329,-4.329,-4.329,-4.329,-4.329,-4.329,-4.329,-4.329,-4.329,-4.329,-4.329,-4.329,-4.329,-4.329,-4.329,-4.329,-4.2996,-4.2114,-4.1908,-4.1169,-3.9373,-3.9121,-3.876,-3.7992,-3.7657,-3.7505,-3.7459,-3.6968,-3.6675,-3.6675,-3.6499,-3.6405,-3.6405,-3.6405,-3.6405,-3.6405,-3.6405,-3.6405,-3.6405,-3.6405,-3.6405,0.0,0.0,0.0,0.0,0.0,0.0,-2.5134,0.0,-2.3948,0.0,0.0,0.0,0.0,0.0,0.0,0.0,0.0,0.0,0.0,0.0,0.0,0.0,0.0,0.0,0.0,0.0,0.0,0.0,0.0,-3.2652,-3.4828,-3.5568,-3.6091,-3.6476,-3.6492,-3.6492,-3.6492,-3.6492,-3.6492,-3.6492,-3.6492,-3.6492,-3.6492,-3.6492,-3.6645,-3.6938,-3.7323,-3.7718,-3.8106,-3.8886,-3.9234,-3.9309,-3.951,-3.9517,-3.9388,-3.9388,-3.9388,-3.9454,-3.9738,-3.9828,-3.9933,-4.0591,-4.1557,-4.2455,-4.2686,-4.303,-4.329,-4.329,-4.329,-4.329,-4.329,-4.329,-4.329,-4.329,-4.329,-4.329,-4.329,-4.329,-4.329,-4.329,-4.329,-4.329,-4.329,-4.329,-4.329,-4.329,-4.329,-4.2996,-4.2114,-4.199,-4.1505,-4.0159,-3.9505,-3.9033,-3.8671,-3.8089,-3.7611,-3.7307,-3.6781,-3.6534,-3.6534,-3.6452,-3.6405,-3.6405,-3.6405,-3.6405,-3.6405,-3.6405,-3.6405,-3.6405,-3.6405,-3.6405,-3.1578,0.0,0.0,0.0,0.0,0.0,0.0,0.0,0.0,0.0,0.0,0.0,0.0,0.0,0.0,0.0,0.0,0.0,0.0,0.0,0.0,0.0,0.0,0.0,0.0,0.0,0.0,0.0,0.0,0.0,-3.3796,-3.4767,-3.5522,-3.6184,-3.6384,-3.6492,-3.6492,-3.6492,-3.6492,-3.6492,-3.6492,-3.6492,-3.6492,-3.6492,-3.6492,-3.6522,-3.7015,-3.7227,-3.7281,-3.8259,-3.88,-3.902,-3.9385,-3.951,-3.9496,-3.9409,-3.9388,-3.9388,-3.9388,-3.9388,-3.9493,-4.0187,-4.1055,-4.1931,-4.2291,-4.2701,-4.3105,-4.3245,-4.329,-4.329,-4.329,-4.329,-4.329,-4.329,-4.329,-4.329,-4.329,-4.329,-4.329,-4.329,-4.329,-4.329,-4.329,-4.329,-4.329,-4.329,-4.329,-4.309,-4.2456,-4.2374,-4.1976,-4.1071,-4.0375,-3.9768,-3.9241,-3.8562,-3.7815,-3.7062,-3.6687,-3.6452,-3.6405,-3.6405,-3.6405,-3.6405,-3.6405,-3.6405,-3.6405,-3.6405,-3.6405,-3.6405,-3.6405,-3.6405,0.0,0.0,0.0,-2.9396,0.0,0.0,0.0,0.0,-2.675,0.0,0.0,0.0,0.0,0.0,0.0,-2.3361,0.0,0.0,0.0,0.0,0.0,0.0,0.0,0.0,0.0,0.0,0.0,0.0,0.0,0.0,-3.2259,-3.3781,-3.4844,-3.5521,-3.6153,-3.6492,-3.6492,-3.6492,-3.6492,-3.6492,-3.6492,-3.6492,-3.6492,-3.6492,-3.6492,-3.6492,-3.6507,-3.6782,-3.7204,-3.725,-3.7961,-3.9009,-3.9039,-3.9279,-3.9661,-3.9481,-3.9388,-3.9388,-3.9388,-3.9388,-3.9493,-4.0187,-4.0427,-4.0711,-4.2021,-4.241,-4.256,-4.3125,-4.329,-4.329,-4.329,-4.329,-4.329,-4.329,-4.329,-4.329,-4.329,-4.329,-4.329,-4.329,-4.329,-4.329,-4.329,-4.329,-4.329,-4.329,-4.329,-4.329,-4.325,-4.325,-4.2915,-4.2032,-4.1949,-4.1169,-3.9329,-3.9015,-3.8264,-3.6803,-3.6709,-3.6581,-3.6405,-3.6405,-3.6405,-3.6405,-3.6405,-3.6405,-3.6405,-3.6405,-3.6405,-3.6405,-3.6405,-3.6405,0.0,0.0,-3.5727,-3.1874,0.0,0.0,0.0,0.0,0.0,0.0,0.0,0.0,0.0,0.0,-2.4787,-2.3427,0.0,0.0,0.0,0.0,0.0,0.0,0.0,0.0,0.0,0.0,0.0,0.0,0.0,0.0,0.0,-3.2903,-3.4218,-3.5445,-3.6138,-3.6492,-3.6492,-3.6492,-3.6492,-3.6492,-3.6892,-3.6892,-3.6523,-3.6922,-3.6861,-3.6492,-3.6492,-3.6583,-3.6767,-3.7212,-3.7901,-3.8708,-3.9001,-3.9512,-4.0051,-3.9732,-3.9517,-3.9388,-3.9388,-3.9388,-3.9454,-3.9679,-4.0053,-4.0561,-4.1482,-4.2051,-4.2545,-4.315,-4.329,-4.329,-4.329,-4.329,-4.329,-4.329,-4.329,-4.329,-4.329,-4.329,-4.329,-4.329,-4.329,-4.329,-4.329,-4.329,-4.329,-4.329,-4.329,-4.329,-4.329,-4.329,-4.321,-4.2875,-4.2319,-4.1728,-4.1113,-3.9708,-3.8368,-3.7062,-3.6815,-3.6628,-3.6405,-3.6405,-3.6405,-3.6405,-3.6405,-3.6405,-3.6405,-3.6405,-3.6405,-3.6405,-3.6405,-3.6405,-3.7105,-3.7288,0.0,-3.3735,-3.2656,0.0,-2.8129,0.0,0.0,0.0,0.0,0.0,0.0,0.0,0.0,-2.4663,-2.309,0.0,0.0,0.0,0.0,0.0,0.0,0.0,0.0,0.0,-2.1985,-2.4776,0.0,0.0,0.0,0.0,-3.3236,-3.4706,-3.5645,-3.6245,-3.6492,-3.6492,-3.66,-3.6831,-3.7208,-3.7328,-3.7163,-3.7533,-3.7401,-3.6816,-3.6816,-3.6693,-3.6522,-3.6969,-3.7677,-3.8521,-3.8836,-3.9451,-4.0172,-3.991,-3.9661,-3.9481,-3.9409,-3.9388,-3.9388,-3.9388,-3.9709,-4.0217,-4.1115,-4.1707,-4.2231,-4.305,-4.329,-4.329,-4.329,-4.329,-4.329,-4.329,-4.329,-4.329,-4.329,-4.329,-4.329,-4.329,-4.329,-4.329,-4.329,-4.329,-4.329,-4.329,-4.329,-4.329,-4.329,-4.329,-4.329,-4.329,-4.2795,-4.214,-4.1407,-3.9839,-3.8368,-3.7049,-3.6815,-3.6628,-3.6405,-3.6405,-3.6405,-3.6405,-3.6405,-3.6405,-3.6405,-3.6405,-3.6405,-3.6405,-3.6405,-3.6405]},{"header":{"parameterUnit":"m.s-1","parameterCategory":1,"la1":30.6,"la2":29.2853,"lo1":-89.7004,"lo2":-87.6739,"dy":0.0162,"dx":0.0183,"nx":112,"ny":82,"refTime":"2024-07-06T06:00:00:Z","depth":0,"parameterNumber":3,"parameterNumberName":"V-component_of_WINDS"},"data":[0.0,0.0,0.0,0.0,0.0,0.0,0.0,0.0,0.0,0.0,0.0,0.0,0.0,0.0,0.0,0.0,0.0,0.0,0.0,0.0,0.0,0.0,0.0,0.0,0.0,0.0,0.0,0.0,0.0,0.0,0.0,0.0,0.0,0.0,0.0,0.0,0.0,0.0,0.0,0.0,0.0,0.0,0.0,0.0,0.0,0.0,0.0,0.0,0.0,0.0,0.0,0.0,0.0,0.0,0.0,0.0,0.0,0.0,0.0,0.0,0.0,0.0,0.0,0.0,0.0,0.0,0.0,0.0,0.0,0.0,0.0,0.0,0.0,0.0,0.0,0.0,0.0,0.0,0.0,0.0,0.0,0.0,0.0,0.0,0.0,0.0,0.0,0.0,0.0,0.0,0.0,-2.2501,-2.4362,-2.5647,-2.6035,-2.4034,-2.2036,-2.0408,0.0,0.0,0.0,0.0,0.0,0.0,0.0,0.0,0.0,0.0,0.0,0.0,0.0,0.0,0.0,0.0,0.0,0.0,0.0,0.0,0.0,0.0,0.0,0.0,0.0,0.0,0.0,0.0,0.0,0.0,0.0,0.0,0.0,0.0,0.0,0.0,0.0,0.0,0.0,0.0,0.0,0.0,0.0,0.0,0.0,0.0,0.0,0.0,0.0,0.0,0.0,0.0,0.0,0.0,0.0,0.0,0.0,0.0,0.0,0.0,0.0,0.0,0.0,0.0,0.0,0.0,0.0,0.0,0.0,0.0,0.0,0.0,0.0,0.0,0.0,0.0,0.0,0.0,0.0,0.0,0.0,0.0,0.0,0.0,0.0,0.0,0.0,0.0,0.0,0.0,0.0,0.0,0.0,0.0,0.0,0.0,0.0,0.0,0.0,0.0,0.0,0.0,0.0,0.0,-2.1185,-2.6263,-2.622,-2.6481,-2.8079,-2.4997,-2.2594,-2.1743,0.0,0.0,0.0,0.0,0.0,0.0,0.0,0.0,0.0,0.0,0.0,0.0,0.0,0.0,0.0,0.0,0.0,0.0,0.0,0.0,0.0,0.0,0.0,0.0,0.0,0.0,0.0,0.0,0.0,0.0,0.0,0.0,0.0,0.0,0.0,0.0,0.0,0.0,0.0,0.0,0.0,0.0,0.0,0.0,0.0,0.0,0.0,0.0,0.0,0.0,0.0,0.0,0.0,0.0,0.0,0.0,0.0,0.0,0.0,0.0,0.0,0.0,0.0,0.0,0.0,0.0,0.0,0.0,0.0,0.0,0.0,0.0,0.0,0.0,0.0,0.0,0.0,0.0,0.0,0.0,0.0,0.0,0.0,0.0,0.0,0.0,0.0,0.0,0.0,0.0,0.0,0.0,0.0,0.0,0.0,0.0,0.0,0.0,0.0,0.0,0.0,0.0,0.0,-2.0141,-2.2483,-2.7202,-2.6915,-2.6874,-2.8058,-2.5353,-2.3126,-2.2077,-1.843,0.0,0.0,0.0,0.0,0.0,0.0,0.0,0.0,0.0,0.0,0.0,0.0,0.0,0.0,0.0,0.0,0.0,0.0,0.0,0.0,0.0,0.0,0.0,0.0,0.0,0.0,0.0,0.0,0.0,0.0,0.0,0.0,0.0,0.0,0.0,0.0,0.0,0.0,0.0,0.0,0.0,0.0,0.0,0.0,0.0,0.0,0.0,0.0,0.0,0.0,0.0,0.0,0.0,0.0,0.0,0.0,0.0,0.0,0.0,0.0,0.0,0.0,0.0,0.0,0.0,0.0,0.0,0.0,0.0,0.0,0.0,0.0,0.0,0.0,0.0,0.0,0.0,0.0,0.0,0.0,0.0,0.0,0.0,0.0,0.0,0.0,0.0,0.0,0.0,0.0,0.0,0.0,0.0,0.0,0.0,0.0,0.0,0.0,0.0,0.0,0.0,0.0,-2.2643,-2.3978,-2.7333,-2.7157,-2.7041,-2.7652,-2.5306,-2.3217,-2.1852,-1.8228,0.0,0.0,0.0,0.0,0.0,0.0,0.0,0.0,0.0,0.0,0.0,0.0,0.0,0.0,0.0,0.0,0.0,0.0,0.0,0.0,0.0,0.0,0.0,0.0,0.0,0.0,0.0,0.0,0.0,0.0,0.0,0.0,0.0,0.0,0.0,0.0,0.0,0.0,0.0,0.0,0.0,0.0,0.0,0.0,0.0,0.0,0.0,0.0,0.0,0.0,0.0,0.0,0.0,0.0,0.0,0.0,0.0,0.0,0.0,0.0,0.0,0.0,0.0,0.0,0.0,0.0,0.0,0.0,0.0,0.0,0.0,0.0,0.0,0.0,0.0,0.0,0.0,0.0,0.0,0.0,0.0,0.0,0.0,0.0,0.0,0.0,0.0,0.0,0.0,0.0,0.0,0.0,0.0,0.0,0.0,0.0,0.0,0.0,0.0,0.0,0.0,0.0,-2.3405,-2.5473,-2.7478,-2.7157,-2.7041,-2.7652,-2.479,-2.2431,-2.1148,-1.7485,0.0,0.0,0.0,0.0,0.0,0.0,0.0,0.0,0.0,0.0,0.0,0.0,0.0,0.0,0.0,0.0,0.0,0.0,0.0,0.0,0.0,0.0,0.0,0.0,0.0,0.0,0.0,0.0,0.0,0.0,0.0,0.0,0.0,0.0,0.0,0.0,0.0,0.0,0.0,0.0,0.0,0.0,0.0,0.0,0.0,0.0,0.0,0.0,0.0,0.0,0.0,0.0,0.0,0.0,0.0,0.0,0.0,0.0,0.0,0.0,0.0,0.0,0.0,0.0,0.0,0.0,0.0,0.0,0.0,0.0,0.0,0.0,0.0,0.0,0.0,0.0,0.0,0.0,0.0,0.0,0.0,0.0,0.0,0.0,0.0,0.0,0.0,0.0,0.0,0.0,0.0,0.0,0.0,0.0,0.0,0.0,0.0,0.0,0.0,0.0,0.0,0.0,-2.2636,-2.4549,0.0,-2.6924,-2.6881,-2.7128,-2.5259,-2.32,-2.1133,0.0,0.0,0.0,0.0,0.0,0.0,0.0,0.0,0.0,0.0,0.0,0.0,0.0,0.0,0.0,0.0,0.0,0.0,0.0,0.0,0.0,0.0,0.0,0.0,0.0,0.0,0.0,0.0,0.0,0.0,0.0,0.0,0.0,0.0,0.0,0.0,0.0,0.0,0.0,0.0,0.0,0.0,0.0,0.0,0.0,0.0,0.0,0.0,0.0,0.0,0.0,0.0,0.0,0.0,0.0,0.0,0.0,0.0,0.0,0.0,0.0,0.0,0.0,0.0,0.0,0.0,0.0,0.0,0.0,0.0,0.0,0.0,0.0,0.0,0.0,0.0,0.0,0.0,0.0,0.0,0.0,0.0,0.0,0.0,0.0,0.0,0.0,0.0,0.0,0.0,0.0,0.0,0.0,0.0,0.0,0.0,0.0,0.0,0.0,0.0,0.0,0.0,-2.0713,-2.2527,-2.4346,0.0,-2.6806,-2.6806,-2.6806,-2.5038,-2.307,-2.1119,0.0,0.0,0.0,0.0,0.0,0.0,0.0,0.0,0.0,0.0,0.0,0.0,0.0,0.0,0.0,0.0,0.0,0.0,0.0,0.0,0.0,0.0,0.0,0.0,0.0,0.0,0.0,0.0,0.0,0.0,0.0,0.0,0.0,0.0,0.0,0.0,0.0,0.0,0.0,0.0,0.0,0.0,0.0,0.0,0.0,0.0,0.0,0.0,0.0,0.0,0.0,0.0,0.0,0.0,0.0,0.0,0.0,0.0,0.0,0.0,0.0,0.0,0.0,0.0,0.0,0.0,0.0,0.0,0.0,0.0,0.0,0.0,0.0,0.0,0.0,0.0,0.0,0.0,0.0,0.0,0.0,0.0,0.0,0.0,0.0,0.0,0.0,0.0,0.0,0.0,0.0,0.0,0.0,0.0,0.0,0.0,0.0,0.0,0.0,0.0,0.0,0.0,-2.1119,-2.3434,-2.5317,-2.6649,-2.6806,-2.6806,-2.6806,-2.3862,-2.1728,0.0,0.0,0.0,0.0,0.0,0.0,0.0,0.0,0.0,0.0,0.0,0.0,0.0,0.0,0.0,0.0,0.0,0.0,0.0,0.0,0.0,0.0,0.0,0.0,0.0,0.0,0.0,0.0,0.0,0.0,0.0,0.0,0.0,0.0,0.0,0.0,0.0,0.0,0.0,0.0,0.0,0.0,0.0,0.0,0.0,0.0,0.0,0.0,0.0,0.0,0.0,0.0,0.0,0.0,0.0,0.0,0.0,0.0,0.0,0.0,0.0,0.0,0.0,0.0,0.0,0.0,0.0,0.0,0.0,0.0,0.0,0.0,0.0,0.0,0.0,0.0,0.0,0.0,0.0,0.0,0.0,0.0,0.0,0.0,0.0,0.0,0.0,0.0,0.0,0.0,0.0,0.0,0.0,0.0,0.0,0.0,0.0,0.0,0.0,0.0,0.0,0.0,0.0,-2.0825,-2.3335,-2.5371,-2.6649,-2.6806,-2.6806,-2.6806,-2.5067,-2.3113,-2.1133,0.0,0.0,0.0,0.0,0.0,0.0,0.0,0.0,0.0,0.0,0.0,0.0,0.0,0.0,0.0,0.0,0.0,0.0,0.0,0.0,0.0,0.0,0.0,0.0,0.0,0.0,0.0,0.0,0.0,0.0,0.0,0.0,0.0,0.0,0.0,0.0,0.0,0.0,0.0,0.0,0.0,0.0,0.0,0.0,0.0,0.0,0.0,0.0,0.0,0.0,0.0,0.0,0.0,0.0,0.0,0.0,0.0,0.0,0.0,0.0,0.0,0.0,0.0,0.0,0.0,0.0,0.0,0.0,0.0,0.0,0.0,0.0,0.0,0.0,0.0,0.0,0.0,0.0,0.0,0.0,0.0,0.0,0.0,0.0,0.0,0.0,0.0,0.0,0.0,0.0,0.0,0.0,0.0,0.0,0.0,0.0,0.0,0.0,0.0,0.0,0.0,0.0,-2.1052,-2.3667,-2.5749,-2.7026,-2.7157,-2.7157,-2.7157,-2.5502,-2.3563,-2.1525,0.0,0.0,0.0,0.0,0.0,0.0,0.0,0.0,0.0,0.0,0.0,0.0,0.0,0.0,0.0,0.0,0.0,0.0,0.0,0.0,0.0,0.0,0.0,0.0,0.0,0.0,0.0,0.0,0.0,0.0,0.0,0.0,0.0,0.0,0.0,0.0,0.0,0.0,0.0,0.0,0.0,0.0,0.0,0.0,0.0,0.0,0.0,0.0,0.0,0.0,0.0,0.0,0.0,0.0,0.0,0.0,0.0,0.0,0.0,0.0,0.0,0.0,0.0,0.0,0.0,0.0,0.0,0.0,0.0,0.0,0.0,0.0,0.0,0.0,0.0,0.0,0.0,0.0,0.0,0.0,0.0,0.0,0.0,0.0,0.0,0.0,0.0,0.0,0.0,0.0,0.0,0.0,0.0,0.0,0.0,0.0,0.0,0.0,0.0,0.0,0.0,0.0,-2.167,-2.4297,-2.6373,-2.7652,-2.7782,-2.7768,-2.771,-2.5531,-2.3557,-2.2164,0.0,0.0,0.0,0.0,0.0,0.0,0.0,0.0,0.0,0.0,0.0,0.0,0.0,0.0,0.0,0.0,0.0,0.0,0.0,0.0,0.0,0.0,0.0,0.0,0.0,0.0,0.0,0.0,0.0,0.0,0.0,0.0,0.0,0.0,0.0,0.0,0.0,0.0,0.0,0.0,0.0,0.0,0.0,0.0,0.0,0.0,0.0,0.0,0.0,0.0,0.0,0.0,0.0,0.0,0.0,0.0,0.0,0.0,0.0,0.0,-1.8653,0.0,0.0,0.0,0.0,0.0,0.0,0.0,0.0,0.0,0.0,0.0,0.0,0.0,0.0,0.0,0.0,0.0,0.0,0.0,0.0,0.0,0.0,0.0,0.0,0.0,0.0,0.0,0.0,0.0,0.0,0.0,0.0,0.0,0.0,0.0,0.0,0.0,0.0,0.0,0.0,0.0,-2.2301,-2.4979,-2.7055,-2.8347,-2.8477,-2.8274,-2.7739,-2.6779,-2.5183,-2.2867,-1.9923,0.0,0.0,0.0,0.0,0.0,0.0,0.0,0.0,0.0,0.0,0.0,0.0,0.0,0.0,0.0,0.0,0.0,0.0,0.0,0.0,0.0,0.0,0.0,0.0,0.0,0.0,0.0,0.0,0.0,0.0,0.0,0.0,0.0,0.0,0.0,0.0,0.0,0.0,0.0,0.0,0.0,0.0,0.0,0.0,0.0,0.0,0.0,0.0,0.0,0.0,0.0,0.0,0.0,0.0,0.0,0.0,0.0,0.0,0.0,0.0,-2.1268,0.0,0.0,0.0,0.0,0.0,0.0,0.0,0.0,0.0,0.0,0.0,0.0,0.0,0.0,0.0,0.0,0.0,0.0,0.0,0.0,0.0,0.0,0.0,0.0,0.0,0.0,0.0,0.0,0.0,0.0,0.0,0.0,0.0,0.0,0.0,0.0,0.0,0.0,0.0,0.0,-2.2991,-2.5647,-2.7723,-2.9,-2.9131,-2.8869,-2.8231,-2.7331,-2.5952,-2.3983,-2.1438,0.0,0.0,0.0,0.0,0.0,0.0,0.0,0.0,0.0,0.0,0.0,0.0,0.0,0.0,0.0,0.0,0.0,0.0,0.0,0.0,0.0,0.0,0.0,0.0,0.0,0.0,0.0,0.0,0.0,0.0,0.0,0.0,0.0,0.0,0.0,0.0,0.0,0.0,0.0,0.0,0.0,0.0,0.0,0.0,0.0,0.0,0.0,0.0,0.0,0.0,0.0,0.0,0.0,-2.7862,-2.8048,-2.8125,-2.7726,-2.7795,-2.8074,-2.6581,-2.6218,-2.6481,-2.4578,0.0,0.0,0.0,0.0,0.0,0.0,0.0,0.0,0.0,0.0,0.0,0.0,0.0,0.0,0.0,0.0,0.0,0.0,0.0,0.0,0.0,0.0,0.0,0.0,-2.752,-2.7043,0.0,0.0,0.0,0.0,0.0,0.0,0.0,0.0,0.0,0.0,0.0,0.0,-2.4002,-2.6547,-2.8478,-2.9639,-2.9755,-2.9537,-2.8898,-2.7808,-2.6602,-2.5299,-2.2991,-2.0872,0.0,0.0,0.0,0.0,0.0,0.0,0.0,0.0,0.0,0.0,0.0,0.0,0.0,0.0,0.0,0.0,0.0,0.0,0.0,0.0,0.0,0.0,0.0,0.0,0.0,0.0,0.0,0.0,0.0,0.0,0.0,0.0,-1.5884,-1.6259,0.0,0.0,0.0,0.0,0.0,0.0,0.0,0.0,0.0,0.0,0.0,0.0,0.0,-2.6846,-2.7254,-2.9086,-3.0249,-3.0723,-3.2926,-3.3619,-3.3001,-3.3275,-3.3421,-3.3443,-3.3058,0.0,-2.6764,-2.6577,0.0,0.0,0.0,0.0,0.0,0.0,0.0,0.0,0.0,0.0,0.0,0.0,0.0,0.0,0.0,0.0,0.0,0.0,0.0,0.0,0.0,0.0,-3.0523,-3.0727,-3.048,-3.0045,0.0,-2.6224,-2.3064,-2.1525,-1.987,0.0,0.0,0.0,0.0,0.0,0.0,0.0,-2.5995,-2.8144,-2.9653,-3.0409,-3.0481,-3.019,-2.9523,-2.884,-2.7924,-2.6646,-2.5183,-2.3746,-2.2345,-2.0068,0.0,0.0,0.0,0.0,0.0,0.0,0.0,0.0,0.0,0.0,0.0,0.0,0.0,0.0,0.0,0.0,0.0,0.0,0.0,0.0,0.0,0.0,0.0,0.0,0.0,0.0,0.0,0.0,0.0,-1.5707,-1.8256,-1.837,-1.9305,-1.9584,0.0,0.0,0.0,0.0,0.0,0.0,0.0,0.0,0.0,-2.807,-2.9491,-3.0805,-3.2004,-3.3209,-3.3916,-3.4105,-3.5134,-3.5367,-3.4896,-3.5003,-3.4986,-3.4877,-3.4781,-3.3508,-3.142,-3.0122,-2.8362,-2.6393,0.0,0.0,0.0,0.0,-2.5912,-2.6385,-2.8309,-2.8786,0.0,-2.8036,0.0,0.0,0.0,0.0,0.0,0.0,0.0,0.0,0.0,0.0,-3.17,-3.244,-3.2672,-3.2629,-3.2312,-3.0379,-2.794,0.0,-2.4283,-2.2939,-1.987,0.0,0.0,0.0,0.0,-2.4573,-2.6997,-2.8638,-2.9871,-3.0539,-3.0598,-3.0321,-2.9653,-2.9377,-2.8666,-2.7403,-2.646,-2.5371,-2.4094,-2.2229,-2.04,0.0,0.0,0.0,0.0,0.0,0.0,0.0,0.0,0.0,0.0,0.0,0.0,0.0,0.0,0.0,0.0,0.0,0.0,0.0,0.0,0.0,0.0,0.0,0.0,0.0,0.0,0.0,0.0,-1.8082,-2.0401,-2.033,-2.211,-2.2775,0.0,0.0,0.0,0.0,0.0,0.0,-2.7186,-2.8637,-3.0161,-3.1789,-3.2904,-3.4167,-3.5625,-3.6243,-3.6635,-3.6794,-3.6808,-3.6784,-3.6756,-3.6584,-3.6434,-3.6283,-3.6183,-3.6085,-3.5798,-3.329,-3.1364,-2.9916,-2.8947,-2.8239,-2.7883,-2.9144,-2.9418,-2.952,-3.1724,-3.2193,-3.1745,-3.125,-3.0353,-2.9237,-2.7944,0.0,0.0,0.0,0.0,-2.9628,-3.0749,-3.1639,-3.2498,-3.3485,-3.4066,-3.4283,-3.3819,-3.334,-3.2019,0.0,-2.8087,-2.7072,-2.3572,0.0,0.0,0.0,0.0,-2.6785,-2.8477,-2.9494,-3.0292,-3.0771,-3.0699,-3.0409,-2.9914,-2.9697,-2.9116,-2.8014,-2.7374,-2.6445,-2.5168,-2.4012,-2.2476,-2.0507,0.0,0.0,0.0,0.0,0.0,0.0,0.0,0.0,0.0,0.0,0.0,0.0,0.0,0.0,0.0,0.0,0.0,0.0,0.0,0.0,0.0,0.0,0.0,0.0,0.0,0.0,0.0,0.0,0.0,-2.2323,-2.5759,0.0,0.0,0.0,0.0,-2.7362,-2.858,-2.9856,-3.1132,-3.3003,-3.4399,-3.5131,-3.5778,-3.617,-3.6257,-3.6925,-3.7549,-3.8115,-3.8754,-3.9247,-3.9589,-3.9376,-3.9296,-3.9256,-3.8882,-3.8517,-3.794,-3.5198,-3.3748,-3.3182,-3.2566,-3.2141,-3.1976,-3.2626,-3.3392,-3.4148,-3.4956,-3.5189,-3.5145,-3.5116,-3.3024,-3.0598,-3.1076,-2.9987,0.0,0.0,-3.1326,-3.2457,-3.3173,-3.3794,-3.4283,-3.4356,-3.4385,-3.4399,-3.437,-3.4341,-3.3717,0.0,-3.0306,-2.9233,-2.8434,0.0,-2.7608,-2.8229,-2.8913,-2.9827,-3.1132,-3.135,-3.1438,-3.1437,-3.093,-3.0598,-3.0554,-2.9972,-2.9334,-2.8709,-2.8028,-2.7072,-2.5818,-2.5071,-2.4203,-2.3135,-2.0558,0.0,0.0,0.0,0.0,0.0,0.0,0.0,0.0,0.0,0.0,0.0,0.0,0.0,0.0,0.0,0.0,0.0,0.0,0.0,0.0,0.0,0.0,0.0,0.0,0.0,0.0,0.0,0.0,-2.6232,-2.8225,0.0,-2.7409,-2.8477,-2.9493,-3.0088,-3.1743,-3.3093,-3.3949,-3.5444,-3.6562,-3.7172,-3.7825,-3.8362,-3.8739,-3.8986,-3.9204,-3.9421,-3.9654,-3.9783,-3.9816,-3.9736,-3.9602,-3.9482,-3.9335,-3.9207,-3.9016,-3.7987,-3.6665,-3.5122,-3.4502,-3.4278,-3.4355,-3.466,-3.5065,-3.5486,-3.5859,-3.5967,-3.5967,-3.5967,-3.5198,-3.4312,-3.453,-3.4124,-3.3587,-3.3678,-3.4026,-3.4298,-3.4124,-3.424,-3.4414,-3.4414,-3.4414,-3.4414,-3.4414,-3.4414,-3.4211,-3.3514,-3.2687,-3.1496,-2.961,-2.9755,-2.9943,-2.9377,-3.0146,-3.1132,-3.2017,-3.2133,-3.2133,-3.2133,-3.1584,-3.1177,-3.1177,-3.0219,-2.9348,-2.8752,-2.7694,-2.6721,-2.5847,-2.4864,-2.3973,-2.3178,-2.1565,-1.9857,0.0,0.0,0.0,0.0,0.0,0.0,0.0,0.0,0.0,0.0,0.0,0.0,0.0,0.0,0.0,0.0,0.0,0.0,0.0,0.0,0.0,0.0,0.0,0.0,0.0,0.0,-2.7897,-2.9016,-3.0756,-3.1481,-3.0422,-3.1673,-3.2774,-3.3427,-3.4849,-3.5967,-3.6656,-3.7665,-3.8434,-3.8826,-3.9276,-3.9697,-4.0104,-4.0321,-4.0437,-4.0437,-4.067,-4.0651,-4.0449,-4.0449,-4.0368,-4.0247,-4.0165,-4.0165,-4.0218,-3.9855,-3.8882,-3.7533,-3.691,-3.6784,-3.6973,-3.7071,-3.7077,-3.7061,-3.699,-3.6823,-3.6649,-3.6649,-3.6489,-3.6301,-3.6301,-3.6301,-3.6228,-3.5807,-3.5712,-3.559,-3.5169,-3.5053,-3.4994,-3.4791,-3.4733,-3.4675,-3.4457,-3.4414,-3.4414,-3.4414,-3.408,-3.3238,-3.154,-3.1915,-3.2176,-3.1335,-3.1961,-3.2658,-3.3061,-3.2977,-3.2846,-3.2846,-3.2251,-3.1741,-3.1509,-3.0553,-2.9581,-2.8767,-2.7694,-2.6707,-2.5847,-2.5116,-2.435,-2.3486,-2.2431,-2.1163,-1.9644,0.0,0.0,0.0,0.0,0.0,0.0,0.0,0.0,0.0,0.0,0.0,0.0,0.0,0.0,0.0,0.0,0.0,0.0,0.0,0.0,0.0,0.0,0.0,-2.5761,-2.8383,-3.0348,-3.0544,-3.3434,-3.4956,-3.375,-3.527,-3.6649,-3.7317,-3.7926,-3.8551,-3.9189,-3.9799,-4.0133,-4.0133,-4.0162,-4.0191,-4.0191,-4.0858,-4.1192,-4.1192,-4.1845,-4.2011,-4.1745,-4.1745,-4.1745,-4.176,-4.1579,-4.1565,-4.1632,-4.0628,-4.0345,-4.0465,-3.9753,-3.9602,-3.9816,-3.9816,-3.9559,-3.9146,-3.8492,-3.7868,-3.736,-3.736,-3.691,-3.6359,-3.6359,-3.6359,-3.6359,-3.6344,-3.6344,-3.633,-3.6315,-3.6301,-3.6156,-3.5581,-3.5436,-3.5247,-3.4588,-3.4443,-3.4443,-3.4414,-3.4414,-3.4414,-3.4414,-3.4414,-3.4414,-3.4414,-3.4414,0.0,-3.4414,-3.3877,-3.3532,-3.3532,-3.2933,-3.2249,-3.1582,-3.0945,-3.006,-2.8781,-2.8057,-2.7115,-2.5865,-2.5933,-2.5458,-2.4299,-2.3308,-2.2463,-2.1784,0.0,0.0,0.0,0.0,0.0,0.0,0.0,0.0,0.0,0.0,0.0,0.0,0.0,0.0,0.0,0.0,0.0,0.0,0.0,0.0,0.0,0.0,-2.9666,-2.9276,-3.105,-3.2793,-3.3883,-3.5088,-3.5955,-3.6243,-3.7114,-3.7955,-3.8638,-3.9233,-3.9654,-3.9842,-4.0466,-4.0829,-4.0829,-4.1715,-4.2194,-4.2194,-4.2861,-4.3195,-4.3195,-4.3384,-4.3414,-4.3371,-4.3371,-4.3371,-4.3357,-4.3328,-4.2982,-4.2393,-4.2108,-4.1749,-4.1218,-3.9843,-3.9496,-3.9816,-3.9816,-3.9819,-3.9828,-3.9639,-3.9175,-3.8681,-3.8681,-3.8217,-3.768,-3.768,-3.768,-3.7593,-3.7157,-3.7041,-3.6925,-3.6431,-3.6301,-3.6272,-3.6083,-3.604,-3.5865,-3.5276,-3.5145,-3.4965,-3.4501,-3.4414,-3.4414,-3.4414,-3.4414,-3.4414,-3.4414,-3.4414,0.0,-3.4414,-3.4269,-3.4153,-3.4153,-3.3587,-3.2948,-3.2263,-3.1221,-3.006,-2.8781,-2.765,-2.6881,-2.6559,-2.6283,-2.6081,-2.5953,-2.5179,-2.4477,0.0,0.0,0.0,0.0,0.0,0.0,0.0,0.0,0.0,0.0,0.0,0.0,0.0,0.0,0.0,0.0,0.0,0.0,0.0,0.0,0.0,0.0,-3.0217,-3.2402,-3.2919,-3.3801,-3.4816,-3.6054,-3.6613,-3.725,-3.8028,-3.8638,-3.9276,-3.9944,-4.0321,-4.0742,-4.1279,-4.1671,-4.202,-4.2295,-4.3021,-4.3413,-4.3413,-4.379,-4.3993,-4.3993,-4.3993,-4.3993,-4.3993,-4.3993,-4.3993,0.0,-4.3993,-4.369,-4.3214,-4.3113,-4.2767,0.0,0.0,0.0,0.0,0.0,-4.0405,-4.0481,-4.0191,-3.9871,-3.9581,-3.9581,-3.9146,-3.8623,-3.8623,-3.842,-3.813,-3.7781,-3.768,-3.7593,-3.7201,-3.7099,-3.7041,-3.678,-3.6722,-3.6548,-3.5894,-3.5581,-3.529,-3.4878,-3.4588,0.0,-3.4414,-3.4414,-3.4414,-3.4414,-3.4414,-3.4414,-3.4414,-3.4414,-3.4414,-3.4414,-3.4095,-3.3616,-3.2962,-3.1714,0.0,0.0,0.0,-2.7515,-2.7345,-2.6883,0.0,0.0,0.0,0.0,0.0,0.0,0.0,0.0,-2.5651,-2.5929,0.0,0.0,0.0,0.0,0.0,0.0,0.0,0.0,0.0,0.0,0.0,0.0,0.0,0.0,0.0,0.0,-3.2904,-3.452,-3.6185,-3.6389,-3.6642,-3.7309,-3.7941,-3.8609,-3.9349,-3.99,-4.0525,-4.125,-4.1308,-4.1831,-4.3036,0.0,0.0,0.0,0.0,-4.4095,-4.4095,-4.4168,-4.4197,-4.4197,-4.4197,-4.4197,-4.4197,-4.4197,-4.4197,-4.4197,-4.4197,-4.4168,-4.4052,-4.3791,-4.3445,-4.2979,-4.2101,-4.1897,-4.2034,-4.1424,-4.1207,-4.112,-4.0525,0.0,0.0,-4.0205,-3.9799,-3.9305,-3.9305,-3.8841,-3.8318,-3.8318,-3.826,-3.8202,-3.8202,-3.8202,-3.8072,-3.7535,-3.7404,-3.723,-3.6562,-3.5981,-3.5595,-3.5523,-3.4951,-3.4516,-3.4516,-3.4457,-3.4414,-3.4414,-3.4414,-3.4414,-3.4414,-3.4414,-3.4414,-3.4414,0.0,0.0,-3.3547,-3.2428,-3.15,-3.0922,-2.9711,-2.8907,-2.8596,-2.8122,-2.824,-2.9026,-2.9609,-3.0178,-3.0731,-3.1928,-3.2258,-3.175,-2.8147,-2.8023,0.0,0.0,0.0,0.0,0.0,0.0,0.0,0.0,0.0,0.0,0.0,0.0,0.0,0.0,0.0,-3.2089,-3.4704,-3.6693,-3.707,-3.7962,-3.844,-3.8072,-3.8609,-3.9465,-4.0612,-4.0844,-4.1381,-4.2542,-4.2629,-4.2977,-4.3761,-4.3805,-4.3863,-4.3993,-4.4458,-4.4719,-4.4719,-4.5242,-4.5518,-4.5518,0.0,0.0,-4.5518,-4.5518,-4.5518,-4.5518,-4.5518,-4.5138,-4.4469,-4.4425,-4.4036,-4.3373,-4.2402,-4.2036,-4.2078,-4.1947,-4.1903,-4.1889,-4.1758,-4.1352,-4.0902,-4.0902,-4.0466,-3.9929,-3.9929,-3.9494,0.0,-3.9015,-3.8623,-3.8202,-3.8202,-3.8202,-3.8173,-3.8057,-3.8028,-3.7854,-3.7244,-3.7012,-3.6765,-3.6228,-3.5619,-3.5218,-3.5218,-3.4762,-3.4414,-3.4414,-3.4414,-3.4414,-3.4414,-3.4414,-3.4414,-3.4414,-3.4414,-3.4167,-3.3547,-3.3354,-3.273,-3.144,-3.1271,-3.1278,-3.1471,-3.1886,-3.2005,-3.1764,-3.1884,-3.2003,-3.2123,-3.2377,-3.2991,-3.3873,-3.2572,-3.2033,0.0,0.0,0.0,0.0,0.0,0.0,0.0,0.0,0.0,0.0,0.0,-2.7979,-2.9769,0.0,-3.3365,-3.4704,-3.6519,-3.7883,-3.8202,-3.9059,-3.9407,-3.8783,-3.9567,-4.0394,-4.1033,-4.1671,-4.231,-4.2948,-4.3297,-4.3776,-4.44,-4.4443,-4.4589,-4.4922,-4.5227,-4.5387,-4.5387,-4.5721,-4.588,-4.588,-4.588,-4.588,-4.588,-4.588,-4.588,-4.588,-4.588,-4.5647,-4.5194,-4.4906,-4.4573,-4.4182,-4.3356,-4.2847,-4.2513,-4.2208,-4.2092,-4.2092,-4.2092,-4.1874,-4.1599,-4.1599,-4.1149,-4.0597,-4.0597,-4.0162,-3.9581,-3.9291,-3.8957,-3.8623,-3.8289,-3.8202,-3.8202,-3.8202,-3.8202,-3.813,-3.7825,-3.752,-3.7201,-3.6881,-3.6286,-3.5836,-3.5836,-3.5314,-3.4777,-3.4457,-3.4414,-3.4414,-3.4414,-3.4414,-3.4414,-3.4414,-3.4414,-3.4283,-3.3978,-3.3893,-3.3358,-3.2217,-3.2301,-3.2517,-3.2793,-3.3028,-3.3104,-3.3006,-3.332,-3.3499,-3.3499,-3.3844,-3.4352,-3.4981,-3.4651,-3.4322,0.0,0.0,0.0,0.0,0.0,0.0,0.0,0.0,-2.6461,-2.8627,-2.9921,-3.1207,-3.2898,-3.4163,-3.5517,-3.7201,-3.7999,-3.8623,-3.9276,-3.99,-4.006,-3.945,-4.0394,-4.1149,-4.1279,-4.2324,-4.305,-4.3181,-4.379,-4.4429,-4.5053,-4.5082,-4.5329,-4.5866,-4.588,-4.588,-4.588,-4.588,-4.588,-4.588,-4.588,-4.588,-4.588,-4.5835,-4.5835,-4.588,-4.588,-4.588,-4.5837,-4.53,-4.5082,-4.5024,-4.44,-4.3834,-4.3297,-4.2687,-4.2382,-4.2266,-4.2266,-4.2194,-4.2092,-4.2092,-4.1729,-4.1279,-4.1279,-4.0829,-4.0191,-3.9712,-3.9479,-3.9218,-3.8565,-3.8391,-3.8362,-3.8231,-3.8202,-3.8202,-3.8202,-3.7825,-3.7476,-3.7476,-3.6954,-3.6504,-3.6504,-3.5967,-3.5363,-3.469,-3.4486,-3.4414,-3.4414,-3.4414,-3.4414,-3.4414,-3.4414,-3.4414,-3.4481,-3.4266,-3.3883,-3.3351,-3.3355,-3.3482,-3.3716,-3.3591,-3.3608,-3.3888,-3.4397,-3.4698,-3.4713,-3.5235,-3.5504,-3.5504,-3.5504,-3.5504,-2.0422,-2.1772,-2.321,-2.4964,-2.5158,-2.6395,0.0,0.0,-3.12,-3.4361,-3.5165,-3.5373,-3.5801,-3.6489,-3.723,-3.7984,-3.8667,-3.9305,-3.99,-4.0568,-4.0742,-4.0075,-4.0655,-4.1323,-4.1932,-4.26,-4.3239,-4.3834,-4.4443,-4.5082,-4.5735,-4.5779,-4.5808,-4.588,-4.588,-4.588,-4.588,-4.588,-4.588,-4.588,-4.588,-4.588,-4.588,-4.564,-4.5654,-4.588,-4.588,-4.588,-4.588,-4.5808,-4.5779,-4.5706,-4.5039,-4.4734,-4.4603,-4.4008,-4.3398,-4.289,-4.289,-4.2542,-4.2092,-4.2092,-4.2049,-4.199,-4.199,-4.1512,-4.0974,-4.0902,-4.0452,-3.9857,-3.9247,-3.9088,-3.8942,-3.8347,-3.8202,-3.8202,-3.8202,-3.8144,-3.8101,-3.8101,-3.7607,-3.7201,-3.7201,-3.6649,-3.5981,-3.5392,-3.4777,-3.4414,-3.4414,-3.4414,-3.4414,-3.4414,-3.4414,-3.4515,-3.4835,-3.4725,-3.4798,-3.5165,-3.4892,-3.486,-3.5248,-3.5215,-3.5248,-3.528,-3.5355,-3.5385,-3.5385,-3.5474,-3.5504,-3.5504,-3.5504,-3.5504,-2.5105,-2.5832,-2.6298,0.0,-2.9199,-3.0704,-3.3182,-3.3454,-3.3745,-3.5619,-3.6317,-3.6663,-3.6845,-3.7404,-3.8028,0.0,-3.9305,-3.9944,-4.0583,-4.0916,-4.1004,-4.0713,-4.0931,-4.1207,-4.1482,-4.276,-4.3689,-4.3964,-4.4908,-4.559,-4.588,-4.588,-4.588,-4.588,-4.588,-4.588,-4.588,-4.588,-4.588,-4.588,-4.5745,-4.5745,-4.588,-4.5595,-4.564,-4.588,-4.588,-4.588,-4.588,-4.588,-4.588,-4.5851,-4.5576,-4.5459,-4.5343,-4.4356,-4.3819,-4.3515,-4.3123,-4.2818,-4.2557,-4.2208,-4.2092,-4.2092,-4.2092,-4.1903,-4.1599,-4.1207,-4.0902,-4.0525,-3.9886,-3.9465,-3.9131,-3.8855,-3.8492,-3.8202,-3.8202,-3.8202,-3.8202,-3.8202,-3.7999,-3.7825,-3.7825,-3.7302,-3.6809,-3.6533,-3.5619,-3.4835,-3.4457,-3.4414,-3.4414,-3.4414,-3.4414,-3.4515,-3.475,-3.4817,-3.4949,-3.5294,-3.518,-3.518,-3.5504,-3.5392,-3.5359,-3.5504,-3.5504,-3.5504,-3.5504,-3.5504,-3.5504,-3.5504,-3.5504,-3.5714,-2.7471,0.0,0.0,-3.023,-3.2231,-3.3923,-3.4203,-3.4858,-3.5655,-3.6439,-3.6851,-3.7119,-3.7266,-3.7665,-3.8231,-3.9059,-3.9712,-4.0394,-4.125,-4.1207,-4.1033,-4.0844,-4.0815,-4.0815,-4.0815,-4.2571,-4.379,-4.3979,-4.4995,-4.5692,-4.588,-4.588,-4.588,-4.588,-4.588,-4.588,-4.588,-4.588,-4.588,-4.588,-4.57,-4.57,-4.588,-4.5595,-4.5549,-4.57,-4.5745,-4.5835,-4.588,-4.588,-4.588,-4.588,-4.588,-4.588,-4.5779,-4.485,-4.44,-4.4153,-4.3485,-4.3137,-4.289,-4.2295,-4.2092,-4.2092,-4.2092,-4.2092,-4.199,-4.1512,-4.1381,-4.1221,-4.0539,-4.0046,-3.9683,-3.9494,-3.8942,-3.8478,-3.8478,-3.8333,-3.8202,-3.8202,-3.8202,-3.8202,-3.8202,-3.7839,-3.7491,-3.7331,-3.6504,-3.5604,-3.4777,-3.4516,-3.4414,-3.4414,-3.4448,-3.4563,-3.475,-3.4835,-3.5001,-3.5261,-3.5213,-3.5294,-3.5504,-3.5359,-3.5359,-3.5504,-3.5504,-3.5504,-3.5504,-3.5504,-3.5609,-3.5774,-3.5774,-3.6133,0.0,0.0,-3.0618,-3.1527,-3.3135,-3.4889,-3.6531,-3.6907,-3.7146,-3.7976,-3.7694,-3.7302,-3.7302,-3.7317,-3.7738,-3.9,-3.9712,-4.0554,-4.1874,-4.1512,-4.0858,-4.0205,-4.0133,-4.0133,0.0,-4.1874,-4.3297,-4.395,-4.456,-4.5198,-4.5851,-4.588,-4.588,-4.588,-4.588,-4.588,-4.588,-4.588,-4.588,-4.588,-4.588,-4.588,-4.588,-4.5595,-4.5367,-4.5124,-4.5413,-4.564,-4.588,-4.588,-4.588,-4.588,-4.588,-4.588,-4.588,-4.5837,-4.5416,-4.4777,-4.4168,-4.3529,-4.289,-4.2295,-4.2092,-4.2092,-4.2092,-4.2092,-4.2092,-4.2078,-4.2063,-4.1918,-4.1236,-4.1062,-4.0873,-4.022,-3.961,-3.9175,-3.9175,-3.8667,-3.8202,-3.8202,-3.8202,-3.8202,-3.8202,-3.8188,-3.797,-3.7404,-3.7273,-3.678,-3.5537,-3.4791,-3.4414,-3.4414,-3.4563,-3.4765,-3.4868,-3.4902,-3.5082,-3.5472,-3.5326,-3.5294,-3.5504,-3.5504,-3.5504,-3.5504,-3.5504,-3.5504,-3.5504,-3.5504,-3.5833,-3.6462,-3.6462,-3.6791,-2.9829,0.0,-3.212,-3.3616,-3.4868,-3.6006,-3.6981,-3.7119,-3.7125,-3.7527,-3.7099,-3.6649,-3.6649,-3.6649,-3.7201,-3.8928,-3.9363,-4.0104,-4.186,-4.1903,-4.1512,-4.0844,-4.1149,0.0,0.0,0.0,0.0,-4.3906,-4.4545,-4.5169,-4.5851,-4.588,-4.588,-4.588,-4.588,-4.588,-4.588,-4.5745,-4.564,-4.564,-4.5458,-4.5321,-4.5152,-4.523,-4.5261,-4.5367,-4.5458,-4.564,-4.588,-4.588,-4.588,-4.588,-4.588,-4.588,-4.588,-4.588,-4.575,-4.5459,-4.4806,-4.4182,-4.3544,-4.2905,-4.2426,-4.2092,-4.2092,-4.2092,-4.2092,-4.2092,-4.2092,-4.2049,-4.1816,-4.1424,-4.1033,-4.0815,-4.0263,-3.9683,-3.9291,-3.903,-3.8739,-3.8289,-3.8202,-3.8202,-3.8202,-3.8202,-3.813,-3.7941,-3.7186,-3.633,-3.5508,-3.5203,-3.4878,-3.4457,-3.4448,-3.4616,-3.4868,-3.4902,-3.5082,-3.5472,-3.5439,-3.5439,-3.5504,-3.5504,-3.5504,-3.5504,-3.5504,-3.5504,-3.5504,-3.5953,-3.6267,-3.6492,-3.6911,-3.7449,-3.2292,-3.3186,-3.3585,-3.5332,-3.6364,-3.7005,-3.7236,-3.7192,-3.7011,-3.6707,-3.5909,-3.5299,-3.5299,-3.5096,-3.5735,-3.813,-3.8696,-3.9683,-4.2078,-4.2034,-4.1744,-4.1773,-4.1441,-4.1344,0.0,0.0,0.0,-4.3906,-4.4545,-4.5169,-4.5851,-4.588,-4.588,-4.588,-4.588,-4.5835,-4.5745,-4.5595,-4.5458,-4.5367,-4.517,-4.5,-4.4797,-4.5,-4.517,-4.5367,-4.5458,-4.564,-4.588,-4.588,-4.588,-4.588,-4.588,-4.588,-4.588,-4.588,-4.588,-4.5779,-4.5111,-4.4632,-4.4168,-4.3282,-4.2731,-4.2382,-4.2165,-4.2092,-4.2092,-4.2092,-4.2092,-4.2092,-4.2092,-4.1773,-4.1453,-4.1453,-4.0945,-4.035,-3.9958,-3.9697,-3.9334,-3.8681,-3.8565,-3.8478,-3.8246,-3.8202,-3.8202,-3.8202,-3.7506,-3.6765,-3.6177,-3.5886,-3.5459,-3.482,-3.4762,-3.4797,-3.4883,-3.4902,-3.5082,-3.5472,-3.5504,-3.5504,-3.5504,-3.5504,-3.5504,-3.5504,-3.5744,-3.5863,-3.5863,-3.6507,-3.6926,-3.718,-3.7584,-3.8123,-3.3058,-3.396,-3.4988,-3.6661,-3.7469,-3.7765,-3.7374,-3.723,-3.6794,-3.5523,-3.4244,-3.3329,-3.3271,0.0,-3.3481,-3.6693,-3.773,-3.9281,-4.2542,-4.1893,-4.1563,0.0,0.0,0.0,0.0,0.0,0.0,-4.395,0.0,-4.5169,-4.5851,-4.588,-4.588,-4.588,-4.588,-4.579,-4.5504,-4.5458,-4.5321,-4.5078,-4.5078,-4.5,-4.4797,-4.5,-4.5124,-4.5124,-4.5367,-4.564,-4.588,-4.588,-4.588,-4.588,-4.588,-4.588,-4.588,-4.588,-4.588,-4.5793,-4.5155,-4.4922,-4.469,-4.3485,-4.305,-4.289,-4.2324,-4.2121,-4.2092,-4.2092,-4.2092,-4.2092,-4.2092,-4.2092,-4.2092,-4.2092,-4.1613,-4.1134,-4.1105,-4.0597,-3.9973,-3.9363,-3.9218,-3.8986,-3.8318,-3.8202,-3.8202,-3.8202,-3.8202,-3.7984,-3.7389,-3.6751,-3.6112,-3.5508,-3.545,-3.5326,-3.5016,-3.5005,-3.517,-3.5576,-3.5609,-3.5609,-3.5609,-3.5609,-3.5609,-3.5609,-3.6207,-3.6537,-3.6537,-3.7165,-3.7778,-3.8392,-3.8422,-3.8796,-3.4273,-3.5382,-3.6234,-3.7543,-3.7566,-3.7232,-3.7309,-3.6185,-3.4791,-3.3514,-3.2222,-3.1048,-3.0104,0.0,0.0,-3.545,-3.659,0.0,-4.2444,-4.186,0.0,-4.2441,0.0,-4.2432,-4.2527,-4.344,0.0,0.0,-4.4792,-4.5169,-4.5851,-4.588,-4.588,-4.588,-4.588,-4.579,-4.5504,-4.5152,-4.483,-4.4583,-4.4783,-4.4737,-4.4504,-4.4894,-4.5124,-4.5124,-4.5367,-4.564,-4.588,-4.588,-4.588,-4.588,-4.588,-4.588,-4.588,-4.588,-4.588,-4.5866,-4.5692,-4.53,-4.4835,-4.4501,-4.3761,-4.2963,-4.2818,-4.2455,-4.2092,-4.2092,-4.2092,-4.2092,-4.2092,-4.2092,-4.2092,-4.2092,-4.1961,-4.17,-4.1207,-4.096,-4.0655,-4.0002,-3.9509,-3.8986,-3.8318,-3.8202,-3.8202,-3.8202,-3.8202,-3.7984,-3.7389,-3.7157,-3.6794,-3.6141,-3.6069,-3.6116,-3.6166,-3.629,-3.6478,-3.6669,-3.6824,-3.6926,-3.6926,-3.6926,-3.6926,-3.6926,-3.709,-3.718,-3.718,-3.7823,-3.8227,-3.8407,-3.8916,-3.9245,-3.5623,-3.656,-3.713,-3.8003,-3.7664,-3.6866,-3.588,-3.4559,-3.2904,-3.0495,-2.9421,0.0,-2.7229,-2.8782,0.0,0.0,0.0,0.0,-4.2415,-4.1942,-4.1744,0.0,-4.2546,0.0,-4.2551,-4.3412,-4.3991,0.0,-4.4838,-4.5444,-4.5716,-4.5835,-4.579,-4.5549,-4.564,-4.5549,-4.5198,-4.483,-4.4551,-4.4411,-4.4551,-4.4551,-4.4411,-4.4894,-4.5124,-4.5124,0.0,-4.5745,-4.588,-4.588,-4.588,-4.588,-4.588,-4.588,-4.588,-4.588,-4.588,-4.588,-4.588,-4.5634,-4.5271,-4.498,-4.44,-4.3718,-4.3166,-4.276,-4.244,-4.2165,-4.2092,-4.2092,-4.2092,-4.2092,-4.2092,-4.2092,-4.2092,-4.199,-4.1613,-4.1541,-4.1337,-4.067,-4.0031,-3.9392,-3.8754,-3.8638,-3.8551,-3.8246,-3.8202,-3.8086,-3.7738,-3.7694,-3.7462,-3.6823,-3.6751,-3.6742,-3.6714,-3.684,-3.7,-3.7213,-3.7351,-3.7404,-3.7404,-3.7404,-3.7404,-3.7404,-3.7689,-3.7838,-3.7838,-3.8512,-3.8841,-3.8856,-3.923,-3.9388,-3.6823,-3.7454,-3.7711,-3.7988,-3.7564,-3.6402,-3.3939,-3.2658,-3.0959,-2.7287,0.0,-2.5894,-2.4665,-2.6562,-2.9189,-3.1946,0.0,-3.8231,-4.2244,-4.182,-4.1786,-4.3667,-4.1837,-4.0965,-4.2447,-4.2744,-4.2792,-4.2792,-4.448,-4.5444,-4.5353,-4.57,-4.5654,-4.517,-4.5321,-4.5198,-4.4797,-4.4504,-4.4411,-4.4411,-4.4457,-4.4411,-4.4411,-4.4894,-4.5124,-4.5124,-4.5654,0.0,-4.588,-4.588,-4.588,-4.588,-4.588,-4.588,-4.588,-4.588,-4.588,-4.588,-4.588,-4.588,-4.5779,-4.5213,-4.4966,-4.4676,-4.3587,-4.3123,-4.2876,-4.2368,-4.215,-4.2092,-4.2092,-4.2092,-4.2092,-4.2092,-4.2092,-4.2092,-4.2092,-4.2092,-4.1903,-4.1221,-4.0626,-4.0046,-3.9421,-3.9247,-3.9,-3.842,-3.826,-3.8202,-3.8202,-3.8202,-3.7999,-3.7491,-3.7418,-3.7383,-3.7134,-3.7161,-3.7321,-3.7605,-3.7639,-3.7674,-3.7674,-3.7674,-3.7674,-3.7674,-3.8242,-3.8527,-3.8527,-3.9125,-3.9388,-3.9388,-3.9388,-3.9388,-3.6953,-3.7581,-3.7762,-3.7519,-3.6577,-3.5203,-3.3151,-3.0945,0.0,0.0,-2.4317,-2.336,-2.2628,-2.4573,-2.7476,-3.1105,0.0,0.0,0.0,0.0,-3.9712,0.0,0.0,0.0,0.0,0.0,0.0,0.0,0.0,-4.3701,-4.4466,-4.5398,-4.5745,-4.5458,-4.5106,-4.489,-4.4797,-4.4504,-4.4411,-4.4411,-4.4597,-4.4597,-4.4411,-4.5138,-4.5307,-4.5124,-4.5654,0.0,-4.588,-4.588,-4.588,-4.588,-4.588,-4.588,-4.588,-4.588,-4.588,-4.588,-4.588,-4.588,-4.5866,-4.575,-4.5343,-4.485,-4.4632,-4.3834,-4.2977,-4.2861,-4.2469,-4.2092,-4.2092,-4.2092,-4.2092,-4.2092,-4.2092,-4.2092,-4.2092,-4.2092,-4.1903,-4.1221,-4.1004,-4.0713,-4.006,-3.9523,-3.916,-3.9044,-3.8551,-3.8202,-3.8202,-3.8202,-3.8159,-3.8057,-3.8206,-3.8274,-3.8245,-3.8524,-3.8727,-3.8799,-3.8958,-3.9029,-3.9029,-3.9029,-3.9029,-3.9029,-3.9185,-3.9245,-3.9245,-3.9328,-3.9388,-3.9388,-3.9388,-3.9388,-3.6982,-3.7581,-3.7785,-3.7388,-3.633,-3.4637,-3.164,0.0,0.0,0.0,-2.233,-2.1605,-2.0669,0.0,0.0,0.0,0.0,0.0,0.0,0.0,0.0,0.0,0.0,0.0,0.0,0.0,0.0,0.0,0.0,-4.2971,-4.3904,-4.4709,-4.5106,-4.5152,-4.4783,-4.4597,-4.4597,-4.4457,-4.4411,-4.4411,-4.4504,-4.4597,-4.4597,-4.5092,-4.5307,-4.5307,-4.5745,0.0,-4.588,-4.588,-4.588,-4.588,-4.588,-4.588,-4.588,-4.588,-4.588,-4.588,-4.588,-4.588,-4.588,-4.588,-4.5663,-4.5343,-4.4995,-4.424,-4.3442,-4.3094,-4.2557,-4.2092,-4.2092,-4.2092,-4.2092,-4.2092,-4.2092,-4.2092,-4.2092,-4.2092,-4.199,-4.1671,-4.1613,-4.141,-4.0728,-4.0379,-4.0075,-3.9712,-3.9131,-3.8725,-3.8725,-3.842,-3.8202,-3.8202,-3.8366,-3.8553,-3.8649,-3.8922,-3.9141,-3.9265,-3.9337,-3.9388,-3.9388,-3.9388,-3.9388,-3.9388,-3.9388,-3.9388,-3.9388,-3.9388,-3.9388,-3.9388,-3.9388,-3.9388,-3.6982,-3.7618,-3.7818,-3.7251,-3.6112,-3.4109,-3.0118,-2.7737,0.0,0.0,-2.0683,-2.032,-1.9464,0.0,-2.4592,0.0,0.0,0.0,0.0,0.0,0.0,0.0,0.0,0.0,0.0,0.0,0.0,0.0,0.0,0.0,-4.3525,-4.3946,-4.435,-4.4797,-4.4551,-4.4411,-4.4411,-4.4411,-4.4411,-4.4411,-4.4411,-4.4551,-4.4797,-4.5,-4.5261,-4.5504,-4.579,0.0,0.0,-4.588,-4.588,-4.588,-4.588,-4.588,-4.588,-4.588,-4.588,-4.588,-4.588,-4.588,-4.588,-4.588,-4.588,-4.5779,-4.5256,-4.4676,-4.4052,-4.3398,-4.276,-4.2252,-4.2121,-4.2092,-4.2092,-4.2092,-4.2092,-4.2092,-4.2092,-4.2092,-4.2092,-4.2092,-4.2092,-4.1932,-4.1395,-4.1192,-4.0916,-4.0379,-3.9784,-3.9349,-3.9218,-3.8739,-3.8362,-3.8217,-3.8441,-3.8612,-3.8797,-3.9017,-3.9228,-3.9388,-3.9388,-3.9388,-3.9388,-3.9388,-3.9388,-3.9388,-3.9388,-3.9388,-3.9388,-3.9388,-3.9388,-3.9388,-3.9388,-3.9499,-3.7019,-3.7715,-3.7875,-3.6707,-3.5444,-3.334,-2.8884,0.0,0.0,-2.0857,-1.9696,-1.942,-1.9928,-2.0741,0.0,0.0,0.0,-3.0174,0.0,0.0,0.0,0.0,0.0,0.0,0.0,0.0,0.0,0.0,0.0,0.0,-4.3409,-4.3402,-4.3776,-4.4797,-4.4551,-4.4411,-4.4411,-4.4411,-4.4411,-4.4411,-4.4411,-4.4551,-4.4797,-4.5,-4.5261,-4.5504,-4.579,0.0,0.0,-4.588,-4.588,-4.588,-4.588,-4.588,-4.588,-4.588,-4.588,-4.588,-4.588,-4.588,-4.588,-4.588,-4.588,-4.588,-4.5808,-4.5329,-4.4676,-4.4066,-4.3427,-4.2774,-4.2237,-4.2092,-4.2092,-4.2092,-4.2092,-4.2092,-4.2092,-4.2092,-4.2092,-4.2092,-4.2092,-4.2078,-4.202,-4.1497,-4.1076,-4.1018,-4.0437,-3.9813,-3.9276,-3.9146,-3.887,-3.8275,-3.8523,-3.8797,-3.8782,-3.9141,-3.9388,-3.9388,-3.9388,-3.9388,-3.9388,-3.9388,-3.9388,-3.9388,-3.9388,-3.9388,-3.9388,-3.9388,-3.9388,-3.9388,-3.9388,-3.9738,-3.5816,-3.6591,-3.6852,-3.6002,-3.4501,-3.2263,-2.8551,0.0,-2.347,-2.0669,-1.9566,-1.9174,-1.9449,-2.0016,-2.1467,0.0,-2.5434,-2.7017,-3.0734,0.0,0.0,0.0,0.0,0.0,0.0,0.0,0.0,0.0,0.0,0.0,-4.1067,-4.2328,-4.3129,-4.3586,-4.4101,-4.4411,-4.4411,-4.4411,-4.4411,-4.4411,-4.4411,-4.4583,-4.5,-4.5078,-4.5307,-4.5745,-4.5835,0.0,0.0,-4.588,-4.588,-4.588,-4.588,-4.588,-4.588,-4.588,-4.588,-4.588,-4.588,-4.588,-4.588,-4.588,-4.588,-4.588,-4.588,-4.5416,-4.4763,-4.4153,-4.3515,-4.2861,-4.2252,-4.2092,-4.2092,-4.2092,-4.2092,-4.2092,-4.2092,-4.2092,-4.2092,-4.2092,-4.2092,-4.2092,-4.2092,-4.1874,-4.17,-4.17,-4.1134,-4.0612,-4.0365,-3.9987,-3.9533,-3.9046,-3.8869,-3.8782,-3.8782,-3.9177,-3.9388,-3.9388,-3.9388,-3.9388,-3.9388,-3.9388,-3.9388,-3.9388,-3.9388,-3.9388,-3.9388,-3.9388,-3.9388,-3.9388,-3.9828,-4.0142,-3.4424,-3.5532,-3.6156,-3.5552,-3.3935,-3.1596,0.0,-2.5604,-2.3107,-2.0364,-1.9435,-1.9101,-1.9101,-1.9493,-2.0582,-2.2947,-2.3483,-2.4899,-2.8698,0.0,0.0,0.0,0.0,0.0,0.0,0.0,0.0,0.0,0.0,0.0,0.0,-4.0843,-4.2133,-4.2792,-4.3851,-4.4411,-4.4411,-4.4411,-4.4411,-4.4411,-4.4411,-4.463,-4.5124,-4.5124,-4.5413,-4.588,0.0,0.0,0.0,-4.588,-4.588,-4.588,-4.588,-4.588,-4.588,-4.588,-4.588,-4.588,-4.588,-4.588,-4.588,-4.588,-4.588,-4.588,-4.588,-4.5561,-4.5053,-4.4429,-4.3645,-4.2861,-4.2252,-4.2092,-4.2092,-4.2092,-4.2092,-4.2092,-4.2092,-4.2092,-4.2092,-4.2092,-4.2092,-4.2092,-4.2092,-4.2092,-4.2092,-4.2092,-4.17,-4.1323,-4.112,-4.0684,-4.0226,-3.974,-3.9501,-3.9247,-3.8936,-3.9177,-3.9388,-3.9388,-3.9388,-3.9388,-3.9388,-3.9388,-3.9388,-3.9388,-3.9388,-3.9514,-3.9709,-3.9709,-3.9813,-4.0008,-4.0472,-4.0786,-3.3071,-3.4864,-3.6156,-3.5552,-3.3935,-3.1511,0.0,-2.5284,-2.2976,-1.9769,-1.9101,-1.9101,-1.9101,-1.9116,-1.9754,-2.1699,-2.2477,-2.4324,-2.8702,0.0,0.0,0.0,0.0,0.0,0.0,0.0,0.0,0.0,0.0,0.0,0.0,-3.9052,-4.0604,-4.2744,-4.3851,-4.4411,-4.4411,-4.4411,-4.4411,-4.4411,-4.4411,-4.463,-4.5124,-4.5124,-4.5413,0.0,0.0,0.0,0.0,-4.588,-4.588,-4.588,-4.588,-4.588,-4.588,-4.588,-4.588,-4.588,-4.588,-4.588,-4.588,-4.588,-4.588,-4.588,-4.588,-4.588,-4.5735,-4.5068,-4.3964,-4.2861,-4.2252,-4.2092,-4.2092,-4.2092,-4.2092,-4.2092,-4.2092,-4.2092,-4.2092,-4.2092,-4.2092,-4.2092,-4.2092,-4.2092,-4.2092,-4.2092,-4.2092,-4.1845,-4.1192,-4.1091,-4.0829,-4.0162,-4.0495,-4.0341,-3.9172,-3.9265,-3.9388,-3.9388,-3.9388,-3.9388,-3.9388,-3.9388,-3.9388,-3.9388,-3.9388,-3.9738,-4.0382,-4.0382,-4.0726,-4.1392,-4.1407,-4.1767,-2.8782,-3.0002,-3.0843,-2.9798,-2.8738,-2.7258,-2.4708,-2.3354,-2.1931,-1.958,-1.9101,-1.9101,-1.9101,-1.8879,-1.9861,-2.3418,-2.3392,0.0,0.0,0.0,0.0,0.0,0.0,0.0,0.0,0.0,0.0,0.0,0.0,0.0,0.0,-3.9,-3.9905,-4.0604,-4.1654,-4.2208,-4.2208,-4.295,-4.33,-4.33,-4.4054,-4.4551,-4.4922,-4.5032,0.0,0.0,0.0,0.0,0.0,-4.588,-4.588,-4.588,-4.588,-4.588,-4.588,-4.588,-4.588,-4.588,-4.588,-4.588,-4.588,-4.588,-4.588,-4.588,-4.588,-4.588,-4.5663,-4.4574,-4.366,-4.2861,-4.2252,-4.2092,-4.2092,-4.2092,-4.2092,-4.2092,-4.2092,-4.2092,-4.2092,-4.2092,-4.2092,-4.2092,-4.2092,-4.2092,-4.2092,-4.2092,-4.2092,-4.202,-4.1802,-4.1787,-4.1567,-4.1073,-4.1223,-4.0943,-3.9668,-3.9899,-4.0083,-4.0083,-4.0083,-4.0292,-4.0741,-4.0756,-4.0756,-4.0756,-4.0756,-4.0861,-4.107,-4.107,-4.1452,-4.2096,-4.2096,-4.2402,-2.5778,-2.6982,-2.7808,-2.7009,-2.6097,-2.4994,-2.3279,-2.2229,-2.1133,-1.9449,-1.9101,-1.9101,-1.9101,-1.8765,-1.9571,-2.2902,-2.2826,0.0,0.0,0.0,0.0,0.0,0.0,0.0,0.0,0.0,0.0,0.0,0.0,0.0,0.0,-3.8647,-3.9,-3.9,-4.0414,-4.1219,-4.1219,-4.1851,-4.2208,-4.2195,-4.2854,-4.3348,-4.36,-4.381,0.0,0.0,0.0,0.0,0.0,-4.5595,-4.5685,-4.5338,-4.573,-4.588,-4.588,-4.588,-4.588,-4.588,-4.588,-4.588,-4.588,-4.588,-4.588,-4.588,-4.588,-4.588,-4.5619,-4.4342,-4.3689,-4.3166,-4.2324,-4.2092,-4.2092,-4.2092,-4.2092,-4.2092,-4.2092,-4.2092,-4.2092,-4.2092,-4.2092,-4.2092,-4.2092,-4.2092,-4.2092,-4.2092,-4.2092,-4.2092,-4.2092,-4.2092,-4.1988,-4.1689,-4.1898,-4.1656,-4.0625,-4.068,-4.0771,-4.0771,-4.0771,-4.095,-4.1369,-4.1422,-4.1422,-4.1422,-4.1422,-4.1542,-4.1796,-4.1998,-4.2327,-4.2731,-4.2731,-4.294,0.0,-2.5371,-2.6384,-2.6257,-2.5357,-2.4134,-2.2902,-2.175,0.0,-1.9348,-1.9101,-1.9159,-1.9348,-1.8931,-1.9214,-2.1173,0.0,0.0,0.0,0.0,0.0,0.0,0.0,0.0,0.0,0.0,0.0,0.0,0.0,0.0,0.0,-3.7986,-3.7986,-3.7986,-3.9905,-4.0969,-4.0969,-4.1069,-4.1069,-4.1069,-4.1169,-4.1319,-4.1604,-4.1887,0.0,0.0,0.0,0.0,0.0,-4.4957,-4.5201,-4.4406,-4.5489,-4.588,-4.588,-4.588,-4.588,-4.588,-4.588,-4.588,-4.588,-4.588,-4.588,-4.588,-4.588,-4.588,-4.5619,-4.4342,-4.3993,-4.3703,-4.2426,-4.2092,-4.2092,-4.2092,-4.2092,-4.2092,-4.2092,-4.2092,-4.2092,-4.2092,-4.2092,-4.2092,-4.2092,-4.2092,-4.2092,-4.2092,-4.2092,-4.2092,-4.2092,-4.2092,-4.2092,-4.2133,-4.2474,-4.2438,-4.1833,-4.1588,-4.1444,-4.1444,-4.1444,-4.1474,-4.1519,-4.1519,-4.1519,-4.1519,-4.1519,-4.1818,-4.247,-4.3045,-4.329,-4.329,-4.329,-4.329,-2.0291,0.0,-2.212,-2.1148,-2.1061,-2.1003,0.0,-2.0161,-2.0074,-1.9275,-1.9101,-1.9711,-2.1663,-2.0491,-2.0795,-2.545,0.0,0.0,0.0,0.0,0.0,0.0,0.0,0.0,0.0,0.0,0.0,0.0,0.0,0.0,0.0,-3.7986,-3.7986,-3.7986,-3.8489,-3.8739,-3.8739,-3.9558,-3.9956,-4.0007,-4.0818,-4.1219,-4.1319,-4.1789,-4.2035,0.0,0.0,0.0,-4.2889,-4.4172,-4.4513,-4.4406,-4.5489,-4.588,-4.588,-4.588,-4.588,-4.588,-4.588,-4.588,-4.588,-4.588,-4.588,-4.588,-4.588,-4.588,-4.5619,-4.4342,-4.3993,-4.3703,-4.2426,-4.2092,-4.2092,-4.2092,-4.2092,-4.2092,-4.2092,-4.2092,-4.2092,-4.2092,-4.2092,-4.2092,-4.2092,-4.2092,-4.2092,-4.2092,-4.2092,-4.2092,-4.2092,-4.2092,-4.2175,-4.2325,-4.2541,-4.271,-4.2693,-4.2375,-4.2171,-4.2171,-4.2171,-4.2357,-4.2811,-4.2826,-4.2826,-4.2826,-4.2826,-4.2955,-4.3105,-4.3215,-4.329,-4.329,-4.329,-4.329,-1.9101,-2.0248,-2.1278,-2.0596,-2.0698,-2.0872,-2.0509,-2.0016,-1.9479,-1.8932,-1.8822,-1.9423,-2.1384,-2.0777,0.0,0.0,0.0,0.0,0.0,0.0,0.0,0.0,0.0,0.0,0.0,0.0,0.0,0.0,0.0,0.0,0.0,-3.7986,-3.7986,-3.7986,-3.7986,-3.7986,-3.7986,-3.8594,-3.8896,-3.8896,-3.9558,-3.9917,-3.9917,-4.0516,-4.0768,0.0,0.0,0.0,-4.1482,-4.2971,-4.3307,-4.3006,-4.4559,-4.5155,-4.5247,-4.573,-4.588,-4.588,-4.588,-4.588,-4.588,-4.588,-4.588,-4.588,-4.588,-4.588,-4.5677,-4.4676,-4.4197,-4.3761,-4.276,-4.2295,-4.2092,-4.2092,-4.2092,-4.2092,-4.2092,-4.2092,-4.2092,-4.2092,-4.2092,-4.2092,-4.2092,-4.2092,-4.2092,-4.2092,-4.2092,-4.2092,-4.2092,-4.2092,-4.2175,-4.2392,-4.2581,-4.2769,-4.2981,-4.2882,-4.2806,-4.2806,-4.2806,-4.297,-4.329,-4.329,-4.329,-4.329,-4.329,-4.329,-4.329,-4.329,-4.329,-4.329,-4.329,-4.329,-1.9315,-2.0758,-2.2111,-2.1787,-2.1787,-2.1844,-2.1758,0.0,0.0,0.0,0.0,-1.9258,-2.0803,-2.1019,0.0,0.0,0.0,0.0,0.0,0.0,0.0,0.0,0.0,0.0,0.0,0.0,0.0,0.0,0.0,0.0,0.0,-3.7986,-3.8039,-3.8039,-3.8092,-3.8092,-3.8092,-3.8027,-3.8027,-3.8092,-3.8303,-3.8409,-3.8461,-3.905,-3.931,-3.9362,0.0,0.0,-3.9839,-4.1779,-4.1999,-4.1369,-4.3293,-4.4078,-4.4219,-4.5247,-4.564,-4.5685,-4.5835,-4.588,-4.588,-4.588,-4.588,-4.588,-4.588,-4.588,-4.5764,-4.5198,-4.4531,-4.3834,-4.3166,-4.2542,-4.2092,-4.2092,-4.2092,-4.2092,-4.2092,-4.2092,-4.2092,-4.2092,-4.2092,-4.2092,-4.2092,-4.2092,-4.2092,-4.2092,-4.2092,-4.2092,-4.2092,-4.2133,-4.2201,-4.2433,-4.2622,-4.285,-4.3036,-4.321,-4.329,-4.329,-4.329,-4.329,-4.329,-4.329,-4.329,-4.329,-4.329,-4.329,-4.329,-4.329,-4.329,-4.329,-4.329,-4.329,-2.025,-2.1779,-2.2591,-2.0817,-2.082,-2.1131,-2.0665,-1.9988,0.0,0.0,0.0,0.0,0.0,-2.3619,-2.427,0.0,0.0,0.0,0.0,0.0,0.0,0.0,0.0,0.0,0.0,0.0,0.0,0.0,0.0,0.0,0.0,-3.7986,-3.8092,-3.8303,-3.8356,-3.8356,-3.8356,-3.8092,-3.8092,-3.8356,-3.8356,-3.8514,-3.8736,-3.9102,-3.931,-3.931,0.0,-3.9839,-3.9788,-4.0932,-4.1369,-4.1319,-4.2536,-4.3033,-4.3163,-4.4172,-4.4559,-4.4652,-4.5595,-4.588,-4.588,-4.588,-4.588,-4.588,-4.588,-4.588,-4.5866,-4.5764,-4.4893,-4.3834,-4.3166,-4.2542,-4.2092,-4.2092,-4.2092,-4.2092,-4.2092,-4.2092,-4.2092,-4.2092,-4.2092,-4.2092,-4.2092,-4.2092,-4.2092,-4.2092,-4.2092,-4.2092,-4.2092,-4.2242,-4.2433,-4.2607,-4.2835,-4.3036,-4.325,-4.329,-4.329,-4.329,-4.329,-4.329,-4.329,-4.329,-4.329,-4.329,-4.329,-4.329,-4.329,-4.329,-4.329,-4.329,-4.329,-4.329,-1.9398,-2.0642,-2.1586,-2.0896,-2.2169,-2.3595,-2.3632,-2.2648,-2.1644,0.0,0.0,0.0,0.0,0.0,0.0,0.0,0.0,0.0,0.0,0.0,0.0,0.0,0.0,0.0,0.0,0.0,0.0,0.0,0.0,0.0,0.0,0.0,-3.8039,-3.8198,-3.8303,-3.8409,-3.8409,-3.8117,-3.8129,-3.8409,-3.8724,-3.8945,-3.905,-3.9374,-3.953,-3.953,0.0,-3.9697,-3.9736,-4.0224,-4.0415,-4.0503,-4.1518,-4.1963,-4.2048,-4.3115,-4.3829,-4.4359,-4.4851,-4.5384,-4.588,-4.588,-4.588,-4.588,-4.588,-4.588,-4.588,-4.588,-4.5213,-4.44,-4.4095,-4.3573,-4.3036,-4.2658,-4.2586,-4.2498,-4.2165,-4.2092,-4.2092,-4.2092,-4.2092,-4.2092,-4.2092,-4.2092,-4.2092,-4.2092,-4.2092,-4.2092,-4.2092,-4.2175,-4.2366,-4.2648,-4.2769,-4.297,-4.325,-4.329,-4.329,-4.329,-4.329,-4.329,-4.329,-4.329,-4.329,-4.329,-4.329,-4.329,-4.329,-4.329,-4.329,-4.329,-4.329,-4.329,-1.8814,-1.9512,-2.0382,-2.1297,-2.3149,-2.4957,-2.5871,-2.4657,-2.3315,0.0,0.0,0.0,0.0,0.0,0.0,0.0,0.0,0.0,0.0,0.0,0.0,0.0,0.0,0.0,0.0,0.0,0.0,0.0,0.0,0.0,0.0,0.0,-3.7665,-3.7823,-3.7979,-3.8148,-3.82,-3.8054,-3.8103,-3.8371,-3.8728,-3.8924,-3.8976,-3.9193,-3.9371,-3.9496,-3.9496,-3.9572,-3.9697,-3.9697,-3.9697,-3.9788,-4.0554,-4.0982,-4.1319,-4.211,-4.3067,-4.3923,-4.3923,-4.4652,-4.5535,-4.5535,-4.5685,-4.588,-4.588,-4.588,-4.588,-4.588,-4.5518,-4.5082,-4.4922,-4.4443,-4.3863,-4.3355,-4.3224,-4.305,-4.244,-4.231,-4.2266,-4.2121,-4.2092,-4.2092,-4.2092,-4.2092,-4.2092,-4.2092,-4.2092,-4.2092,-4.2092,-4.2133,-4.2325,-4.2648,-4.2729,-4.293,-4.325,-4.329,-4.329,-4.329,-4.329,-4.329,-4.329,-4.329,-4.329,-4.329,-4.329,-4.329,-4.329,-4.329,-4.329,-4.329,-4.329,-4.329,-1.9759,-1.9647,-1.9598,-2.1703,-2.2009,-2.2315,-2.4373,-2.3577,-2.2837,-2.435,0.0,0.0,0.0,0.0,0.0,0.0,0.0,0.0,0.0,0.0,0.0,0.0,0.0,0.0,0.0,0.0,0.0,0.0,0.0,0.0,0.0,0.0,0.0,-3.7241,-3.7291,-3.7404,-3.7655,-3.7904,-3.8141,-3.8412,-3.794,-3.7854,-3.8078,-3.8128,-3.8417,-3.8982,-3.8982,-3.922,-3.9697,-3.9697,-3.9697,-3.9697,-3.9788,-4.0364,-4.1219,-4.1269,-4.2012,-4.2937,-4.2937,-4.3545,-4.4406,-4.4406,-4.5095,-4.588,-4.588,-4.588,-4.588,-4.588,-4.5851,-4.5663,-4.5053,-4.4443,-4.3979,-4.3935,-4.3921,-4.3732,-4.3065,-4.2934,-4.276,-4.2208,-4.2092,-4.2092,-4.2092,-4.2092,-4.2092,-4.2092,-4.2092,-4.2092,-4.2092,-4.2242,-4.2474,-4.2688,-4.2875,-4.3076,-4.329,-4.329,-4.329,-4.329,-4.329,-4.329,-4.329,-4.329,-4.329,-4.329,-4.329,-4.329,-4.329,-4.329,-4.329,-4.329,-4.329,-4.329,-1.8264,-1.9188,-2.025,-2.1106,-2.2435,-2.3966,-2.5458,-2.611,-2.6634,-2.7491,-2.8027,0.0,0.0,0.0,0.0,0.0,0.0,0.0,0.0,0.0,0.0,0.0,0.0,0.0,0.0,0.0,0.0,0.0,0.0,0.0,0.0,0.0,0.0,-3.6715,-3.6866,-3.703,-3.713,-3.7221,-3.7294,-3.7394,-3.7705,-3.7916,-3.8002,-3.8002,-3.8128,-3.8329,-3.8329,-3.8454,-3.8642,-3.8642,-3.8642,-3.8642,-3.8642,-3.9095,-3.9752,-3.9752,-4.0633,-4.1815,-4.1815,-4.2488,-4.3355,-4.3355,-4.3654,-4.3951,-4.3951,-4.442,-4.4897,-4.4897,-4.5398,-4.5822,-4.5576,-4.5343,-4.5068,-4.4647,-4.4545,-4.4255,-4.3224,-4.2992,-4.2818,-4.2208,-4.2092,-4.2092,-4.2092,-4.2092,-4.2092,-4.2092,-4.2092,-4.2092,-4.2092,-4.2175,-4.2284,-4.2514,-4.2809,-4.3076,-4.329,-4.329,-4.329,-4.329,-4.329,-4.329,-4.329,-4.329,-4.329,-4.329,-4.329,-4.329,-4.329,-4.329,-4.329,-4.329,-4.329,-4.329,-1.782,-1.8915,-2.0339,-2.1043,-2.2689,-2.4661,-2.6565,-2.7858,-2.885,-2.9518,-2.9911,-2.9908,-2.9335,0.0,0.0,0.0,0.0,0.0,0.0,0.0,0.0,0.0,0.0,0.0,0.0,0.0,0.0,0.0,0.0,0.0,0.0,0.0,0.0,0.0,-3.6218,-3.6367,-3.6566,-3.648,-3.6489,-3.667,-3.7166,-3.739,-3.7487,-3.7487,-3.7575,-3.7751,-3.7751,-3.7839,-3.8002,-3.8002,-3.8002,-3.8002,-3.8002,-3.8253,-3.8592,-3.8592,-3.9258,-4.0201,-4.0201,-4.0985,-4.2024,-4.2024,-4.2401,-4.2792,-4.2792,-4.3259,-4.3829,-4.3829,-4.4373,-4.5003,-4.5293,-4.564,-4.5764,-4.53,-4.5198,-4.4908,-4.3819,-4.3442,-4.3123,-4.2498,-4.2223,-4.2092,-4.2092,-4.2092,-4.2092,-4.2092,-4.2092,-4.2092,-4.2092,-4.2092,-4.2201,-4.2474,-4.2809,-4.3076,-4.329,-4.329,-4.329,-4.329,-4.329,-4.329,-4.329,-4.329,-4.329,-4.329,-4.329,-4.329,-4.329,-4.329,-4.329,-4.329,-4.329,-4.329,-1.8921,-1.8905,-1.9559,-2.1741,0.0,0.0,-2.7285,-2.8122,-2.8525,-2.9915,-3.0063,-2.9951,-3.0085,0.0,0.0,0.0,0.0,0.0,0.0,0.0,0.0,0.0,0.0,0.0,0.0,0.0,0.0,0.0,0.0,0.0,0.0,0.0,0.0,0.0,-3.5223,-3.5464,-3.5968,-3.5716,-3.5847,-3.6405,-3.6146,-3.6146,-3.6405,-3.6405,-3.6707,-3.7174,-3.7174,-3.7487,-3.799,-3.799,-3.799,-3.799,-3.799,-3.799,-3.8002,-3.8002,-3.8002,-3.8002,-3.8002,-3.9022,-4.0357,-4.0357,-4.1471,-4.2778,-4.2778,-4.2778,-4.2778,-4.2778,-4.2792,-4.3033,-4.4031,-4.5049,-4.588,-4.588,-4.588,-4.5706,-4.5024,-4.4414,-4.379,-4.3123,-4.2513,-4.2092,-4.2092,-4.2092,-4.2092,-4.2092,-4.2092,-4.2092,-4.2092,-4.2092,-4.2242,-4.2662,-4.2875,-4.3076,-4.329,-4.329,-4.329,-4.329,-4.329,-4.329,-4.329,-4.329,-4.329,-4.329,-4.329,-4.329,-4.329,-4.329,-4.329,-4.329,-4.329,-4.329,-1.8032,-1.9535,0.0,-2.2146,0.0,0.0,0.0,-2.9073,0.0,0.0,-3.1131,-3.0628,-3.0657,0.0,0.0,0.0,0.0,0.0,0.0,0.0,0.0,0.0,0.0,0.0,0.0,0.0,0.0,0.0,0.0,0.0,0.0,0.0,0.0,0.0,-3.4932,-3.5078,-3.5416,-3.5572,-3.5764,-3.6098,-3.6228,-3.6323,-3.6405,-3.6405,-3.6505,-3.6656,-3.6656,-3.6744,-3.6895,-3.6895,-3.6895,-3.6895,-3.6895,-3.7086,-3.7425,-3.7425,-3.7676,-3.8002,-3.8002,-3.83,-3.8723,-3.8723,-3.9022,-3.9522,-3.9947,-4.0533,-4.1187,-4.1548,-4.2208,-4.2889,-4.3163,-4.3464,-4.4092,-4.5549,-4.588,-4.5706,-4.5024,-4.4414,-4.379,-4.3123,-4.2513,-4.2092,-4.2092,-4.2092,-4.2092,-4.2092,-4.2092,-4.2092,-4.2092,-4.2201,-4.2392,-4.2648,-4.2875,-4.3076,-4.329,-4.329,-4.329,-4.329,-4.329,-4.329,-4.329,-4.329,-4.329,-4.329,-4.329,-4.329,-4.329,-4.329,-4.329,-4.329,-4.329,-4.329,-1.8988,-2.079,0.0,-2.4017,-2.6083,-2.8101,-2.9084,0.0,0.0,0.0,0.0,0.0,0.0,0.0,0.0,0.0,0.0,0.0,0.0,0.0,0.0,0.0,0.0,0.0,0.0,0.0,0.0,0.0,0.0,0.0,0.0,0.0,0.0,0.0,-3.4981,-3.5126,-3.5512,-3.5572,-3.5812,-3.6146,-3.6181,-3.6323,-3.6405,-3.6405,-3.6405,-3.6405,-3.6405,-3.6405,-3.6405,-3.6405,-3.6405,-3.6405,-3.6405,-3.6619,-3.6908,-3.6908,-3.7073,-3.7349,-3.7349,-3.75,-3.7676,-3.7676,-3.7826,-3.8078,-3.8417,-3.894,-3.9522,-3.982,-4.0575,-4.1337,-4.1763,-4.1972,-4.2682,-4.4759,-4.5247,-4.5283,-4.5269,-4.4603,-4.3863,-4.3471,-4.2687,-4.2092,-4.2092,-4.2092,-4.2092,-4.2092,-4.2092,-4.2092,-4.2092,-4.2284,-4.2474,-4.2688,-4.2875,-4.3076,-4.329,-4.329,-4.329,-4.329,-4.329,-4.329,-4.329,-4.329,-4.329,-4.329,-4.329,-4.329,-4.329,-4.329,-4.329,-4.329,-4.329,-4.329,-2.0874,-2.2192,0.0,-2.6527,-2.7108,0.0,-2.9878,-3.0792,-3.1338,0.0,0.0,0.0,0.0,0.0,0.0,0.0,0.0,0.0,0.0,0.0,0.0,0.0,0.0,0.0,0.0,0.0,0.0,0.0,0.0,0.0,0.0,0.0,0.0,-3.5029,-3.5029,-3.5317,-3.5866,-3.5616,-3.5746,-3.6254,-3.5996,-3.6021,-3.6329,-3.638,-3.6405,-3.6405,-3.6405,-3.6405,-3.6405,-3.6405,-3.6405,-3.6405,-3.6405,-3.6405,-3.6405,-3.6405,-3.6405,-3.6405,-3.6405,-3.6732,-3.7111,-3.7111,-3.745,-3.7864,-3.7914,-3.7939,-3.7939,-3.799,-3.8379,-3.9032,-3.9962,-4.0535,-4.1396,-4.3427,-4.4027,-4.4406,-4.5326,-4.4614,-4.369,-4.3676,-4.2651,-4.1829,-4.1829,-4.1829,-4.187,-4.1953,-4.2051,-4.2092,-4.2092,-4.2284,-4.2514,-4.2688,-4.2915,-4.3115,-4.329,-4.329,-4.329,-4.329,-4.329,-4.329,-4.329,-4.329,-4.329,-4.329,-4.329,-4.329,-4.329,-4.329,-4.329,-4.329,-4.329,-4.329,-1.9826,-2.1591,0.0,0.0,-2.794,-2.9392,-3.0024,-3.0579,0.0,0.0,0.0,0.0,0.0,0.0,0.0,0.0,0.0,0.0,0.0,0.0,0.0,0.0,0.0,0.0,0.0,0.0,0.0,0.0,0.0,0.0,0.0,0.0,0.0,-3.3924,-3.3924,-3.4157,-3.4653,-3.4607,-3.4744,0.0,-3.4986,-3.5211,-3.5683,-3.6157,-3.6405,-3.6405,-3.6405,-3.6405,-3.6405,-3.6405,-3.6405,-3.6405,-3.6405,-3.6405,-3.6405,-3.6405,-3.6405,-3.6405,-3.6405,-3.648,-3.6581,-3.6581,-3.6669,-3.6845,-3.7224,-3.7362,-3.745,-3.7889,-3.809,-3.824,-3.8475,-3.86,-3.9022,-4.0293,-4.1909,-4.3088,-4.2857,-4.2182,-4.1534,-4.1097,-4.0349,-3.9839,-3.9839,-3.9839,-4.0057,-4.0788,-4.1577,-4.2092,-4.2092,-4.2392,-4.2648,-4.2703,-4.301,-4.325,-4.329,-4.329,-4.329,-4.329,-4.329,-4.329,-4.329,-4.329,-4.329,-4.329,-4.329,-4.329,-4.329,-4.329,-4.329,-4.329,-4.329,-4.329,-1.9636,0.0,0.0,-2.7032,0.0,-2.9854,-2.9723,0.0,0.0,0.0,0.0,0.0,0.0,0.0,0.0,0.0,0.0,0.0,0.0,0.0,0.0,0.0,0.0,0.0,0.0,0.0,0.0,0.0,0.0,0.0,0.0,-3.3284,-3.3377,-3.3584,-3.3584,-3.386,-3.4363,-3.4363,-3.4454,-3.468,-3.468,-3.4831,-3.5132,-3.5994,-3.6405,-3.6405,-3.6405,-3.6405,-3.6405,-3.6405,-3.6405,-3.6405,-3.6405,-3.6405,-3.6405,-3.6405,-3.6405,-3.6405,-3.6405,-3.6405,-3.6405,-3.6405,-3.6405,-3.6468,-3.6757,-3.6832,-3.6895,-3.7136,-3.7412,-3.7613,-3.7613,-3.7814,-3.815,-3.8713,-4.0062,-4.1319,-4.153,-4.1047,-4.0545,-4.0246,-3.9675,-3.921,-3.921,-3.9549,-4.0029,-4.0504,-4.1437,-4.2092,-4.2092,-4.2351,-4.2581,-4.2688,-4.297,-4.321,-4.329,-4.329,-4.329,-4.329,-4.329,-4.329,-4.329,-4.329,-4.329,-4.329,-4.329,-4.329,-4.329,-4.329,-4.329,-4.329,-4.329,-4.329,-1.9321,0.0,-2.4898,-2.8088,-2.9327,0.0,0.0,0.0,0.0,0.0,0.0,0.0,0.0,0.0,0.0,0.0,0.0,0.0,0.0,0.0,0.0,0.0,0.0,0.0,0.0,0.0,0.0,0.0,0.0,0.0,-3.3008,-3.3008,-3.3146,-3.3305,-3.3305,-3.3546,-3.4057,-3.4057,-3.4147,-3.4347,-3.4492,-3.4575,-3.4613,-3.5617,-3.6179,-3.6267,-3.6367,-3.6405,-3.6405,-3.6405,-3.6405,-3.6405,-3.6405,-3.6405,-3.6405,-3.6405,-3.6405,-3.6405,-3.6405,-3.6405,-3.6405,-3.6405,-3.6405,-3.6405,-3.6405,-3.6405,-3.6405,-3.6405,-3.6732,-3.7048,-3.7048,-3.7374,-3.7713,-3.7713,-3.8418,-3.928,-4.0241,-4.0045,-3.9637,-3.9543,-3.9114,-3.872,-3.872,-3.9637,-4.0375,-4.0375,-4.1353,-4.2092,-4.2092,-4.2284,-4.2474,-4.2607,-4.2835,-4.3076,-4.325,-4.329,-4.329,-4.329,-4.329,-4.329,-4.329,-4.329,-4.329,-4.329,-4.329,-4.329,-4.329,-4.329,-4.329,-4.329,-4.329,-4.329,0.0,0.0,-2.5231,0.0,-2.8619,0.0,0.0,0.0,0.0,0.0,0.0,0.0,0.0,0.0,0.0,0.0,0.0,0.0,0.0,0.0,0.0,0.0,0.0,0.0,0.0,0.0,0.0,0.0,0.0,0.0,-3.1922,-3.1922,-3.2023,-3.22,-3.22,-3.2345,-3.2653,-3.2653,-3.2784,-3.299,-3.3683,-3.401,-3.4035,-3.4663,-3.5203,-3.5633,-3.6157,-3.6405,-3.6405,-3.6405,-3.6405,-3.6405,-3.6405,-3.6405,-3.6405,-3.6405,-3.6405,-3.6405,-3.6405,-3.6405,-3.6405,-3.6405,-3.6405,-3.6405,-3.6405,-3.6405,-3.6405,-3.6405,-3.6455,-3.6518,-3.6518,-3.6568,-3.6631,-3.6631,-3.6713,-3.6982,-3.7607,-3.7658,-3.7454,-3.7019,-3.6866,-3.6756,-3.6756,-3.8225,-3.9373,-3.9373,-4.0916,-4.2092,-4.2092,-4.2284,-4.2392,-4.2433,-4.2769,-4.3036,-4.3036,-4.321,-4.329,-4.329,-4.329,-4.329,-4.329,-4.329,-4.329,-4.329,-4.329,-4.329,-4.329,-4.329,-4.329,-4.329,-4.329,-4.329,-1.8441,-2.1493,-2.4461,0.0,0.0,0.0,0.0,0.0,0.0,0.0,0.0,0.0,0.0,0.0,0.0,0.0,0.0,0.0,0.0,0.0,0.0,0.0,0.0,0.0,0.0,0.0,0.0,0.0,0.0,-3.1705,-3.1705,-3.1705,-3.1749,-3.1849,-3.1849,-3.1937,-3.2169,-3.2169,-3.23,-3.2562,-3.2897,-3.3052,-3.3077,-3.361,-3.4292,-3.5069,-3.5667,-3.5906,-3.5931,-3.6279,-3.6405,-3.6405,-3.6405,-3.6405,-3.6405,-3.6405,-3.6405,-3.6405,-3.6405,-3.6405,-3.6405,-3.6405,-3.6405,-3.6405,-3.6405,-3.6405,-3.6405,-3.6405,-3.6405,-3.6405,-3.6405,-3.6405,-3.6405,-3.6405,-3.6405,-3.6468,-3.6719,-3.6769,-3.6694,-3.6455,-3.6405,-3.6405,-3.6405,-3.7965,-3.921,-3.921,-4.0873,-4.2092,-4.2092,-4.2175,-4.2284,-4.2392,-4.2541,-4.2769,-4.2996,-4.3076,-4.317,-4.329,-4.329,-4.329,-4.329,-4.329,-4.329,-4.329,-4.329,-4.329,-4.329,-4.329,-4.329,-4.329,-4.329,-4.329,0.0,0.0,-2.2627,0.0,0.0,0.0,0.0,0.0,0.0,0.0,0.0,0.0,0.0,0.0,0.0,0.0,0.0,0.0,0.0,0.0,0.0,0.0,0.0,0.0,0.0,0.0,0.0,0.0,0.0,-3.1705,-3.1705,-3.1705,-3.1705,-3.1705,-3.1705,-3.1749,-3.1937,-3.1994,-3.2081,-3.2313,-3.2344,-3.24,-3.2412,-3.2806,-3.339,-3.417,-3.4844,-3.519,-3.5332,-3.5871,-3.6157,-3.6169,-3.6355,-3.6405,-3.6405,-3.6405,-3.6405,-3.6405,-3.6405,-3.6405,-3.6405,-3.6405,-3.6405,-3.6405,-3.6405,-3.6405,-3.6405,-3.6405,-3.6405,-3.6405,-3.6405,-3.6405,-3.6405,-3.6405,-3.6405,-3.6405,-3.6405,-3.6405,-3.6405,-3.6405,-3.6405,-3.6405,-3.6405,-3.7965,-3.921,-3.921,-4.1,-4.2266,-4.2121,-4.2223,-4.2335,-4.2339,-4.2433,-4.2581,-4.2915,-4.3036,-4.3155,-4.329,-4.329,-4.329,-4.329,-4.329,-4.329,-4.329,-4.329,-4.329,-4.329,-4.329,-4.329,-4.329,-4.329,-4.329,0.0,-1.799,0.0,0.0,0.0,0.0,0.0,0.0,0.0,0.0,0.0,0.0,0.0,0.0,0.0,0.0,0.0,0.0,0.0,0.0,0.0,0.0,0.0,0.0,0.0,0.0,0.0,0.0,0.0,-3.1705,-3.1705,-3.1705,-3.1705,-3.1705,-3.1705,-3.1717,-3.1705,-3.1893,-3.1994,-3.2038,-3.2257,-3.24,-3.24,-3.2425,-3.2449,-3.2579,-3.3601,-3.433,-3.4756,-3.511,-3.5381,-3.5596,-3.6157,-3.6405,-3.6405,-3.6405,-3.6405,-3.6405,-3.6405,-3.6405,-3.6405,-3.6405,-3.6405,-3.6405,-3.6405,-3.6405,-3.6405,-3.6405,-3.6405,-3.6405,-3.6405,-3.6405,-3.6405,-3.6405,-3.6405,-3.6405,-3.6405,-3.6405,-3.6405,-3.6405,-3.6405,-3.6405,-3.6405,-3.7965,-3.921,-3.921,-4.1339,-4.2745,-4.2165,-4.2586,-4.2731,-4.2165,-4.2474,-4.2688,-4.2729,-4.305,-4.329,-4.329,-4.329,-4.329,-4.329,-4.329,-4.329,-4.329,-4.329,-4.329,-4.329,-4.329,-4.329,-4.329,-4.329,-4.329,0.0,0.0,0.0,0.0,0.0,0.0,0.0,0.0,0.0,0.0,0.0,0.0,0.0,0.0,0.0,0.0,0.0,0.0,0.0,0.0,0.0,0.0,0.0,0.0,0.0,0.0,0.0,0.0,0.0,0.0,-3.0651,-3.0651,-3.0651,-3.0651,-3.0651,-3.0862,-3.1199,-3.1592,-3.1805,-3.1805,-3.2038,-3.2125,-3.2169,-3.23,-3.2475,-3.2618,-3.2869,-3.3328,-3.3956,-3.4607,-3.5123,-3.552,-3.5768,-3.6056,-3.6405,-3.6405,-3.6405,-3.6405,-3.6405,-3.6405,-3.6405,-3.6405,-3.6405,-3.6405,-3.6405,-3.6405,-3.6405,-3.6405,-3.6405,-3.6405,-3.6405,-3.6405,-3.6405,-3.6405,-3.6405,-3.6405,-3.6405,-3.6405,-3.6405,-3.6405,-3.6405,-3.6405,-3.6405,-3.7965,-3.921,-3.921,-4.1042,-4.2339,-4.2121,-4.2281,-4.2339,-4.2121,-4.2351,-4.2541,-4.2688,-4.2955,-4.3155,-4.329,-4.329,-4.329,-4.329,-4.329,-4.329,-4.329,-4.329,-4.329,-4.329,-4.329,-4.329,-4.329,-4.329,-4.329,-1.506,0.0,0.0,0.0,0.0,0.0,0.0,0.0,0.0,0.0,0.0,0.0,0.0,0.0,0.0,0.0,0.0,0.0,0.0,0.0,0.0,0.0,0.0,0.0,0.0,0.0,0.0,0.0,0.0,0.0,-3.0086,-3.0086,-3.0086,-3.0086,-3.0086,-3.0254,-3.0645,-3.0963,-3.1259,-3.144,-3.1583,-3.1724,-3.1893,-3.2069,-3.2245,-3.2363,-3.2288,-3.2672,-3.3395,-3.4033,-3.4573,-3.4981,-3.5357,-3.5768,-3.6107,-3.6342,-3.6405,-3.6405,-3.6405,-3.6405,-3.6405,-3.6405,-3.6405,-3.6405,-3.6405,-3.6405,-3.6405,-3.6405,-3.6405,-3.6405,-3.6405,-3.6405,-3.6405,-3.6405,-3.6405,-3.6405,-3.6405,-3.6405,-3.6405,-3.6405,-3.6405,-3.6405,-3.6405,-3.7704,-3.872,-3.872,-4.0555,-4.1835,-4.1606,-4.2085,-4.2324,-4.2121,-4.2284,-4.2459,-4.2688,-4.2875,-4.3076,-4.329,-4.329,-4.329,-4.329,-4.329,-4.329,-4.329,-4.329,-4.329,-4.329,-4.329,-4.329,-4.329,-4.329,-4.329,0.0,0.0,0.0,0.0,0.0,0.0,0.0,0.0,0.0,0.0,0.0,0.0,0.0,0.0,0.0,0.0,0.0,0.0,0.0,0.0,0.0,0.0,0.0,0.0,0.0,0.0,0.0,0.0,0.0,-3.0037,-3.0037,-3.0037,-3.0037,-3.0037,-3.0062,-3.0062,-3.0062,-3.0074,-3.035,-3.0898,-3.0886,-3.1175,-3.1681,-3.1681,-3.1693,-3.1705,-3.195,-3.2431,-3.3119,-3.3383,-3.3651,-3.401,-3.5031,-3.5458,-3.5545,-3.6132,-3.638,-3.6392,-3.6405,-3.6405,-3.6405,-3.6405,-3.6405,-3.6405,-3.6405,-3.6405,-3.6405,-3.6405,-3.6405,-3.6405,-3.6405,-3.6405,-3.6405,-3.6405,-3.6405,-3.6405,-3.6405,-3.6405,-3.6405,-3.6405,-3.6405,-3.6405,-3.6405,-3.7176,-3.7808,-3.7808,-3.9936,-4.1349,-4.0674,-4.198,-4.2745,-4.2165,-4.2284,-4.2459,-4.2688,-4.2875,-4.3076,-4.329,-4.329,-4.329,-4.329,-4.329,-4.329,-4.329,-4.329,-4.329,-4.329,-4.329,-4.329,-4.329,-4.329,-4.329,-1.4771,0.0,0.0,0.0,0.0,0.0,0.0,0.0,0.0,0.0,0.0,0.0,0.0,0.0,0.0,0.0,0.0,0.0,0.0,0.0,0.0,0.0,0.0,0.0,0.0,0.0,0.0,0.0,-2.8943,-2.8943,-2.8943,-2.8943,-2.8943,-2.8943,-2.9316,-2.952,-2.952,-2.9893,-3.0158,-3.0302,-3.0459,-3.081,-3.1331,-3.1528,-3.1846,-3.2213,-3.2257,-3.2388,-3.2618,-3.2679,-3.3051,-3.3657,-3.3956,-3.4407,-3.4969,-3.552,-3.5768,-3.583,-3.6267,-3.6405,-3.6405,-3.6405,-3.6405,-3.6405,-3.6405,-3.6405,-3.6405,-3.6405,-3.6405,-3.6405,-3.6405,-3.6405,-3.6405,-3.6405,-3.6405,-3.6405,-3.6405,-3.6405,-3.6405,-3.6405,-3.6405,-3.6405,-3.6405,-3.7176,-3.7808,-3.7808,-3.9567,-4.08,-4.0617,-4.1622,-4.2281,-4.2121,-4.2284,-4.2433,-4.2474,-4.2809,-4.3036,-4.3076,-4.321,-4.329,-4.329,-4.329,-4.329,-4.329,-4.329,-4.329,-4.329,-4.329,-4.329,-4.329,-4.329,-4.329,-1.5449,-1.5856,0.0,0.0,0.0,0.0,0.0,0.0,0.0,0.0,0.0,0.0,0.0,0.0,0.0,0.0,0.0,0.0,0.0,0.0,0.0,0.0,0.0,0.0,0.0,0.0,0.0,-2.851,-2.851,-2.851,-2.851,-2.851,-2.851,-2.851,-2.8811,-2.8967,-2.8967,-2.928,-2.9544,-2.9761,-2.9873,-3.0223,-3.0743,-3.1126,-3.1534,-3.1914,-3.2059,-3.2169,-3.2213,-3.2213,-3.2616,-3.3208,-3.3532,-3.3952,-3.4449,-3.4956,-3.5307,-3.5545,-3.5906,-3.6169,-3.6405,-3.6405,-3.6405,-3.6405,-3.6405,-3.6405,-3.6405,-3.6405,-3.6405,-3.6405,-3.6405,-3.6405,-3.6405,-3.6405,-3.6405,-3.6405,-3.6405,-3.6405,-3.6405,-3.6405,-3.6405,-3.6405,-3.6405,-3.6862,-3.7222,-3.7222,-3.8496,-3.9417,-3.9417,-4.0631,-4.1479,-4.1479,-4.1924,-4.2325,-4.2392,-4.2688,-4.2915,-4.2981,-4.321,-4.329,-4.329,-4.329,-4.329,-4.329,-4.329,-4.329,-4.329,-4.329,-4.329,-4.329,-4.329,-4.329,-1.6434,-1.6559,-1.7152,-1.8003,0.0,0.0,-1.8758,-1.8741,0.0,0.0,0.0,0.0,0.0,0.0,0.0,0.0,0.0,0.0,0.0,0.0,0.0,0.0,0.0,0.0,0.0,-2.851,-2.851,-2.851,-2.851,-2.851,-2.851,-2.851,-2.851,-2.851,-2.851,-2.851,-2.851,-2.851,-2.8751,-2.9208,-2.9208,-2.9484,-3.0013,-3.0482,-3.0876,-3.118,-3.1491,-3.1745,-3.1994,-3.1994,-3.2245,-3.2717,-3.3477,-3.3765,-3.3872,-3.4424,-3.4893,-3.5332,-3.5458,-3.5868,-3.6329,-3.6392,-3.6405,-3.6405,-3.6405,-3.6405,-3.6405,-3.6405,-3.6405,-3.6405,-3.6405,-3.6405,-3.6405,-3.6405,-3.6405,-3.6405,-3.6405,-3.6405,-3.6405,-3.6405,-3.6405,-3.6405,-3.6405,-3.6405,-3.6405,-3.6405,-3.7176,-3.7854,-3.7946,-3.9505,-4.0646,-4.0731,-4.1577,-4.2175,-4.2351,-4.2581,-4.2769,-4.2955,-4.317,-4.329,-4.329,-4.329,-4.329,-4.329,-4.329,-4.329,-4.329,-4.329,-4.329,-4.329,-4.329,-4.329,-1.9146,-1.9447,-1.961,-1.848,0.0,0.0,-1.7528,-1.7832,0.0,0.0,0.0,0.0,0.0,0.0,0.0,0.0,0.0,0.0,0.0,0.0,0.0,0.0,0.0,0.0,0.0,-2.851,-2.851,-2.851,-2.851,-2.851,-2.851,-2.851,-2.851,-2.851,-2.851,-2.851,-2.851,-2.851,-2.8558,-2.8667,-2.8667,-2.8943,-2.946,-2.9556,-3.0116,-3.0965,-3.1031,-3.132,-3.1749,-3.1937,-3.2169,-3.2487,-3.2792,-3.3058,-3.3307,-3.3859,-3.4123,-3.4349,-3.5194,-3.5571,-3.578,-3.6267,-3.6405,-3.6405,-3.6405,-3.6405,-3.6405,-3.6405,-3.6405,-3.6405,-3.6405,-3.6405,-3.6405,-3.6405,-3.6405,-3.6405,-3.6405,-3.6405,-3.6405,-3.6405,-3.6405,-3.6405,-3.6405,-3.6405,-3.6405,-3.6405,-3.7176,-3.8069,-3.881,-3.9899,-4.0916,-4.1717,-4.1995,-4.2133,-4.2175,-4.2514,-4.2729,-4.2769,-4.309,-4.329,-4.329,-4.329,-4.329,-4.329,-4.329,-4.329,-4.329,-4.329,-4.329,-4.329,-4.329,-4.329,-2.0486,-2.0465,-2.0566,-1.9974,0.0,0.0,0.0,0.0,0.0,0.0,0.0,0.0,0.0,0.0,0.0,0.0,0.0,0.0,0.0,0.0,0.0,0.0,0.0,0.0,0.0,-2.8114,-2.8222,-2.8486,-2.851,-2.851,-2.851,-2.851,-2.851,-2.851,-2.851,-2.851,-2.851,-2.851,-2.851,-2.851,-2.851,-2.8655,-2.8919,-2.9184,-2.9663,-3.0277,-3.0724,-3.1209,-3.1692,-3.2059,-3.2344,-3.255,-3.268,-3.2853,-3.3106,-3.3382,-3.3658,-3.3985,-3.4537,-3.4856,-3.5182,-3.578,-3.5956,-3.6006,-3.6329,-3.6405,-3.6405,-3.6405,-3.6405,-3.6405,-3.6405,-3.6405,-3.6405,-3.6405,-3.6405,-3.6405,-3.6405,-3.6405,-3.6405,-3.6405,-3.6405,-3.6405,-3.6405,-3.6405,-3.6405,-3.6405,-3.6815,-3.7441,-3.8373,-3.9329,-4.026,-4.1254,-4.1814,-4.2092,-4.2092,-4.2392,-4.2581,-4.2688,-4.2955,-4.321,-4.329,-4.329,-4.329,-4.329,-4.329,-4.329,-4.329,-4.329,-4.329,-4.329,-4.329,-4.329,0.0,0.0,0.0,0.0,0.0,-2.0526,0.0,0.0,0.0,-1.9245,0.0,0.0,0.0,0.0,0.0,0.0,0.0,0.0,0.0,0.0,0.0,0.0,0.0,0.0,0.0,-2.7176,-2.7416,-2.815,-2.8017,-2.8029,-2.8342,-2.845,-2.851,-2.851,-2.851,-2.851,-2.851,-2.851,-2.851,-2.851,-2.851,-2.851,-2.8522,-2.8955,-2.9277,-2.9573,-3.0278,-3.0955,-3.1571,-3.2,-3.2376,-3.2723,-3.2766,-3.2896,-3.3124,-3.3124,-3.3357,-3.3759,-3.3859,-3.4186,-3.4605,-3.5157,-3.5408,-3.5596,-3.6194,-3.6405,-3.6405,-3.6405,-3.6405,-3.6405,-3.6405,-3.6405,-3.6405,-3.6405,-3.6405,-3.6405,-3.6405,-3.6405,-3.6405,-3.6405,-3.6405,-3.6405,-3.6405,-3.6405,-3.6405,-3.6405,-3.6405,-3.6722,-3.7671,-3.8464,-3.9373,-4.0461,-4.1339,-4.1912,-4.2092,-4.2284,-4.2474,-4.2607,-4.2875,-4.3076,-4.325,-4.329,-4.329,-4.329,-4.329,-4.329,-4.329,-4.329,-4.329,-4.329,-4.329,-4.329,0.0,0.0,0.0,0.0,-2.3008,0.0,0.0,0.0,-1.9492,-1.8004,0.0,0.0,0.0,0.0,0.0,0.0,0.0,0.0,0.0,0.0,0.0,0.0,0.0,0.0,0.0,0.0,-2.5599,-2.697,-2.6311,-2.6432,-2.7729,-2.8258,-2.851,-2.851,-2.851,-2.851,-2.851,-2.851,-2.851,-2.851,-2.851,-2.851,-2.851,-2.857,-2.8859,-2.9345,-2.9424,-3.0169,-3.1241,-3.1302,-3.1878,-3.2711,-3.2939,-3.3068,-3.3124,-3.3124,-3.3162,-3.3244,-3.3734,-3.3935,-3.4085,-3.4638,-3.5107,-3.5596,-3.6194,-3.6405,-3.6405,-3.6405,-3.6405,-3.6405,-3.6405,-3.6405,-3.6405,-3.6405,-3.6405,-3.6405,-3.6405,-3.6405,-3.6405,-3.6405,-3.6405,-3.6405,-3.6405,-3.6405,-3.6405,-3.6405,-3.6405,-3.6722,-3.7671,-3.79,-3.8644,-4.0418,-4.0689,-4.1113,-4.2009,-4.2284,-4.2392,-4.2433,-4.2809,-4.3036,-4.3036,-4.321,-4.329,-4.329,-4.329,-4.329,-4.329,-4.329,-4.329,-4.329,-4.329,-4.329,0.0,0.0,0.0,0.0,0.0,0.0,-2.0263,0.0,-1.9307,0.0,0.0,0.0,0.0,0.0,0.0,0.0,0.0,0.0,0.0,0.0,0.0,0.0,0.0,0.0,0.0,0.0,0.0,0.0,0.0,-2.5683,-2.715,-2.7726,-2.8198,-2.8498,-2.851,-2.851,-2.851,-2.851,-2.851,-2.851,-2.851,-2.851,-2.851,-2.851,-2.8631,-2.8859,-2.916,-2.9668,-3.0311,-3.0931,-3.1559,-3.2117,-3.2642,-3.2939,-3.3124,-3.3124,-3.3124,-3.3106,-3.3345,-3.342,-3.3508,-3.406,-3.4793,-3.5545,-3.5818,-3.6107,-3.6405,-3.6405,-3.6405,-3.6405,-3.6405,-3.6405,-3.6405,-3.6405,-3.6405,-3.6405,-3.6405,-3.6405,-3.6405,-3.6405,-3.6405,-3.6405,-3.6405,-3.6405,-3.6405,-3.6405,-3.6405,-3.6722,-3.7671,-3.7808,-3.8283,-3.9637,-4.0289,-4.0774,-4.1198,-4.1841,-4.2325,-4.2541,-4.297,-4.3155,-4.3155,-4.325,-4.329,-4.329,-4.329,-4.329,-4.329,-4.329,-4.329,-4.329,-4.329,-4.329,-2.4616,0.0,0.0,0.0,0.0,0.0,0.0,0.0,0.0,0.0,0.0,0.0,0.0,0.0,0.0,0.0,0.0,0.0,0.0,0.0,0.0,0.0,0.0,0.0,0.0,0.0,0.0,0.0,0.0,0.0,-2.6345,-2.7102,-2.7753,-2.827,-2.8426,-2.851,-2.851,-2.851,-2.851,-2.851,-2.851,-2.851,-2.851,-2.851,-2.851,-2.8534,-2.8919,-2.9282,-2.9654,-3.0433,-3.107,-3.1668,-3.2179,-3.2642,-3.2995,-3.3068,-3.3124,-3.3124,-3.3124,-3.3124,-3.3212,-3.3721,-3.4449,-3.5107,-3.5408,-3.583,-3.6169,-3.6367,-3.6405,-3.6405,-3.6405,-3.6405,-3.6405,-3.6405,-3.6405,-3.6405,-3.6405,-3.6405,-3.6405,-3.6405,-3.6405,-3.6405,-3.6405,-3.6405,-3.6405,-3.6405,-3.6405,-3.664,-3.7315,-3.7407,-3.7795,-3.872,-3.9417,-4.0029,-4.0546,-4.1353,-4.209,-4.2729,-4.305,-4.325,-4.329,-4.329,-4.329,-4.329,-4.329,-4.329,-4.329,-4.329,-4.329,-4.329,-4.329,-4.329,0.0,0.0,0.0,-2.2967,0.0,0.0,0.0,0.0,-2.1183,0.0,0.0,0.0,0.0,0.0,0.0,-1.854,0.0,0.0,0.0,0.0,0.0,0.0,0.0,0.0,0.0,0.0,0.0,0.0,0.0,0.0,-2.5204,-2.6333,-2.7162,-2.769,-2.8246,-2.851,-2.851,-2.851,-2.851,-2.851,-2.851,-2.851,-2.851,-2.851,-2.851,-2.851,-2.8522,-2.8931,-2.9594,-2.963,-3.0399,-3.1589,-3.1613,-3.2092,-3.2766,-3.2982,-3.3124,-3.3124,-3.3124,-3.3124,-3.3212,-3.3721,-3.3922,-3.4161,-3.5182,-3.5508,-3.5633,-3.6267,-3.6405,-3.6405,-3.6405,-3.6405,-3.6405,-3.6405,-3.6405,-3.6405,-3.6405,-3.6405,-3.6405,-3.6405,-3.6405,-3.6405,-3.6405,-3.6405,-3.6405,-3.6405,-3.6405,-3.6405,-3.6452,-3.6452,-3.6815,-3.7763,-3.7854,-3.8644,-4.0461,-4.0845,-4.1576,-4.29,-4.2981,-4.3115,-4.329,-4.329,-4.329,-4.329,-4.329,-4.329,-4.329,-4.329,-4.329,-4.329,-4.329,-4.329,0.0,0.0,-2.4843,-2.3317,0.0,0.0,0.0,0.0,0.0,0.0,0.0,0.0,0.0,0.0,-1.954,-1.8551,0.0,0.0,0.0,0.0,0.0,0.0,0.0,0.0,0.0,0.0,0.0,0.0,0.0,0.0,0.0,-2.5997,-2.6915,-2.7693,-2.8234,-2.851,-2.851,-2.851,-2.851,-2.851,-2.7926,-2.7926,-2.8471,-2.7886,-2.7966,-2.851,-2.851,-2.8646,-2.8919,-2.927,-2.9878,-3.0652,-3.1162,-3.1712,-3.2288,-3.268,-3.2939,-3.3124,-3.3124,-3.3124,-3.3106,-3.3294,-3.3608,-3.4035,-3.4731,-3.5207,-3.5621,-3.6207,-3.6405,-3.6405,-3.6405,-3.6405,-3.6405,-3.6405,-3.6405,-3.6405,-3.6405,-3.6405,-3.6405,-3.6405,-3.6405,-3.6405,-3.6405,-3.6405,-3.6405,-3.6405,-3.6405,-3.6405,-3.6405,-3.6405,-3.6499,-3.6862,-3.7441,-3.8069,-3.8675,-4.0144,-4.1506,-4.2729,-4.2915,-4.3076,-4.329,-4.329,-4.329,-4.329,-4.329,-4.329,-4.329,-4.329,-4.329,-4.329,-4.329,-4.329,-2.3981,-2.4273,0.0,-2.3294,-2.276,0.0,-2.0957,0.0,0.0,0.0,0.0,0.0,0.0,0.0,0.0,-1.8967,-1.8285,0.0,0.0,0.0,0.0,0.0,0.0,0.0,0.0,0.0,-1.7883,-1.9929,0.0,0.0,0.0,0.0,-2.6142,-2.7115,-2.7849,-2.8318,-2.851,-2.851,-2.8339,-2.8007,-2.747,-2.7307,-2.7499,-2.6958,-2.7174,-2.8059,-2.8059,-2.8219,-2.8534,-2.8883,-2.9436,-3.0164,-3.0616,-3.1381,-3.2169,-3.2463,-3.2766,-3.2982,-3.3068,-3.3124,-3.3124,-3.3124,-3.3319,-3.3746,-3.45,-3.4919,-3.5357,-3.6204,-3.6405,-3.6405,-3.6405,-3.6405,-3.6405,-3.6405,-3.6405,-3.6405,-3.6405,-3.6405,-3.6405,-3.6405,-3.6405,-3.6405,-3.6405,-3.6405,-3.6405,-3.6405,-3.6405,-3.6405,-3.6405,-3.6405,-3.6405,-3.6405,-3.6956,-3.7612,-3.836,-4.0014,-4.1506,-4.2714,-4.2915,-4.3076,-4.329,-4.329,-4.329,-4.329,-4.329,-4.329,-4.329,-4.329,-4.329,-4.329,-4.329,-4.329]}]]